Date StartTime U_cm/s V_cm/s W_cm/s Ustd_cm/s Vstd_cm/s Wstd_cm/s Uvar_(cm/s)^2 Vvar_(cm/s)^2 Wvar_(cm/s)^2 KE_(m/s)^2 TurbulentKE_(m/s)^2 HorizWindSpeed_cm/s FrictionSpeec_cm/s DragCoef SpeedOfSound_m/s SonicTemperature_C Pressure_mb 
12/06/2014  00:00:00      -73.957     -100.387        0.619       51.046       51.399       30.547     2605.708     2641.811      933.095        1.086        0.309      124.688       27.891        0.050      337.300        9.181      862.511
12/06/2014  00:01:00     -108.141      -41.582       -0.750       29.326       49.007       20.402      860.030     2401.718      416.231        0.855        0.184      115.860       17.309        0.022      337.266        9.125      862.514
12/06/2014  00:02:00       14.792      -29.510       -1.336       46.527       32.012       20.648     2164.726     1024.740      426.351        0.235        0.181       33.009       12.261        0.138      337.296        9.175      862.504
12/06/2014  00:03:00       -9.408        1.679        5.535       26.023       17.861       13.287      677.217      319.026      176.542        0.065        0.059        9.556        9.715        1.033      337.284        9.153      862.494
12/06/2014  00:04:00      -15.708        9.861        8.667       15.804       23.018       16.112      249.775      529.824      259.609        0.073        0.052       18.547       13.525        0.532      337.263        9.121      862.466
12/06/2014  00:05:00       -0.459       12.093       32.832       19.489       22.123       20.396      379.815      489.416      415.987        0.125        0.064       12.102        9.119        0.568      337.234        9.071      862.447
12/06/2014  00:06:00      -10.551       33.317       71.779       15.468       37.996       30.587      239.255     1443.710      935.587        0.450        0.131       34.948       30.054        0.740      337.239        9.081      862.436
12/06/2014  00:07:00        2.207       63.352       98.208       34.113       42.992       42.308     1163.695     1848.341     1790.003        0.923        0.240       63.391       37.193        0.344      337.293        9.170      862.432
12/06/2014  00:08:00       42.210       54.428       61.196       47.752       43.509       30.843     2280.261     1893.037      951.262        0.681        0.256       68.878       26.848        0.152      337.202        9.018      862.445
12/06/2014  00:09:00      131.172       61.296       16.480       33.723       30.385       25.829     1137.270      923.271      667.119        1.198        0.136      144.787       13.265        0.008      337.129        8.894      862.425
12/06/2014  00:10:00      105.601       59.975        9.569       30.361       27.466       21.499      921.777      754.361      462.202        0.849        0.107      121.444       12.505        0.011      337.096        8.837      862.400
12/06/2014  00:11:00       41.119       17.939        4.674       46.219       26.761       17.926     2136.152      716.168      321.351        0.260        0.159       44.862       17.237        0.148      337.108        8.858      862.374
12/06/2014  00:12:00      -61.205       13.540      -10.933       25.218       20.739       11.049      635.931      430.091      122.075        0.262        0.059       62.684       10.651        0.029      337.091        8.830      862.358
12/06/2014  00:13:00      -24.164        4.503        1.326       28.634       17.530        9.981      819.908      307.305       99.616        0.092        0.061       24.580        9.071        0.136      337.029        8.725      862.332
12/06/2014  00:14:00        2.564       39.105        5.573       19.768       25.392       14.439      390.791      644.775      208.499        0.141        0.062       39.188       15.227        0.151      337.153        8.934      862.318
12/06/2014  00:15:00       -6.789       61.121        4.922       24.355       21.073       20.906      593.142      444.068      437.054        0.264        0.074       61.497       13.065        0.045      337.187        8.992      862.311
12/06/2014  00:16:00       15.887       28.685        8.321       21.970       17.378       13.046      482.659      301.979      170.189        0.105        0.048       32.791        9.985        0.093      337.194        9.006      862.321
12/06/2014  00:17:00       21.865       26.172        2.795       22.978       17.190       13.585      528.000      295.482      184.561        0.109        0.050       34.104        7.671        0.051      337.154        8.936      862.360
12/06/2014  00:18:00       11.956       29.043       -5.292       26.324       14.361       14.919      692.934      206.226      222.575        0.107        0.056       31.408       12.332        0.154      337.114        8.870      862.389
12/06/2014  00:19:00      -73.633       23.337      -12.181       35.734       14.877       14.944     1276.908      221.335      223.335        0.392        0.086       77.243       14.694        0.036      337.143        8.918      862.392
12/06/2014  00:20:00      -66.753       62.014      -15.492       20.769       26.409       16.188      431.364      697.444      262.056        0.497        0.070       91.114       11.134        0.015      337.193        9.003      862.379
12/06/2014  00:21:00      -60.501       93.198      -14.809       11.076       14.244       10.865      122.685      202.901      118.038        0.650        0.022      111.114        7.985        0.005      337.299        9.179      862.338
12/06/2014  00:22:00      -32.056       92.713      -15.905       26.672       20.633       18.069      711.397      425.712      326.476        0.567        0.073       98.099       13.793        0.020      337.463        9.452      862.258
12/06/2014  00:23:00        7.151      110.811      -22.284       10.889       16.913       10.048      118.578      286.057      100.962        0.667        0.025      111.042        8.551        0.006      337.297        9.176      862.231
12/06/2014  00:24:00      -13.467       57.545       -9.071       14.105       31.498        9.482      198.940      992.100       89.911        0.243        0.064       59.100       11.133        0.035      337.358        9.277      862.301
12/06/2014  00:25:00     -105.560      -43.033      -13.524       44.749       29.577       13.535     2002.503      874.804      183.209        0.812        0.153      113.994       15.394        0.018      337.184        8.986      862.375
12/06/2014  00:26:00      -99.236      -94.687       -2.236       56.694       48.159       29.649     3214.244     2319.298      879.068        1.261        0.321      137.161       19.400        0.020      337.226        9.056      862.427
12/06/2014  00:27:00      -82.293      -52.363        6.636       76.892       42.114       29.208     5912.415     1773.623      853.133        0.905        0.427       97.540       39.482        0.164      337.326        9.224      862.463
12/06/2014  00:28:00     -129.350      -91.292        3.514       43.938       49.042       23.175     1930.553     2405.132      537.059        1.497        0.244      158.321       19.392        0.015      337.349        9.263      862.480
12/06/2014  00:29:00     -155.236     -119.173        0.473       87.562       76.045       43.814     7667.048     5782.779     1919.676        2.683        0.768      195.705       42.813        0.048      337.277        9.139      862.510
12/06/2014  00:30:00     -204.264     -111.280       -2.209       71.638       81.862       42.202     5132.066     6701.432     1781.006        3.386        0.681      232.609       34.506        0.022      337.228        9.058      862.514
12/06/2014  00:31:00     -125.758      -95.191       11.206      102.296       76.914       46.432    10464.454     5915.772     2155.917        2.177        0.927      157.723       54.456        0.119      337.114        8.867      862.471
12/06/2014  00:32:00      -58.272     -136.938        0.990       33.274       67.813       37.404     1107.160     4598.595     1399.095        1.463        0.355      148.821       21.214        0.020      337.037        8.737      862.373
12/06/2014  00:33:00      -30.784      -10.577       -8.321       30.821       25.382       21.604      949.931      644.241      466.742        0.159        0.103       32.550       16.416        0.254      337.092        8.832      862.248
12/06/2014  00:34:00      -54.554      -49.706       -2.681       27.402       16.661       15.689      750.883      277.601      246.139        0.336        0.064       73.803       14.300        0.038      337.047        8.756      862.215
12/06/2014  00:35:00      -41.553      -41.140        0.796       38.705       18.805       20.925     1498.105      353.643      437.840        0.285        0.114       58.474       20.953        0.128      337.046        8.753      862.258
12/06/2014  00:36:00     -153.138      -96.249       -6.316       68.171       48.950       31.339     4647.270     2396.112      982.156        2.039        0.401      180.873       38.280        0.045      337.014        8.699      862.289
12/06/2014  00:37:00     -218.545      -98.232      -15.642       74.744       57.053       27.379     5586.689     3255.072      749.634        3.362        0.480      239.607       28.824        0.014      336.930        8.558      862.325
12/06/2014  00:38:00     -254.018      -59.887       -6.969       42.881       34.343       22.157     1838.790     1179.457      490.954        3.583        0.175      260.982       19.161        0.005      336.827        8.384      862.384
12/06/2014  00:39:00     -238.729      -62.438      -12.383       67.196       49.823       31.862     4515.342     2482.329     1015.211        3.453        0.401      246.759       36.975        0.022      336.823        8.379      862.401
12/06/2014  00:40:00     -109.878       20.447       -0.065       52.112       45.801       27.870     2715.636     2097.731      776.728        0.904        0.280      111.764       27.667        0.061      336.811        8.364      862.395
12/06/2014  00:41:00     -113.399       -7.533       -3.434       23.060       35.857       21.266      531.779     1285.730      452.242        0.760        0.113      113.649       18.160        0.026      337.047        8.757      862.381
12/06/2014  00:42:00     -101.048      -70.216       -9.203       43.963       30.343       20.558     1932.746      920.673      422.613        0.925        0.164      123.049       19.733        0.026      337.263        9.119      862.384
12/06/2014  00:43:00      -85.304      -26.686        0.432       80.587       55.703       31.478     6494.213     3102.798      990.877        0.929        0.529       89.381       40.877        0.209      337.198        9.010      862.413
12/06/2014  00:44:00     -222.034     -103.248      -17.005       84.147       41.576       32.640     7080.675     1728.582     1065.351        3.506        0.494      244.866       29.982        0.015      337.209        9.024      862.436
12/06/2014  00:45:00     -196.145      -53.846       -0.617       78.299       54.018       36.000     6130.804     2917.965     1295.972        2.586        0.517      203.402       41.731        0.042      337.202        9.014      862.421
12/06/2014  00:46:00     -118.436      -62.578       12.308      106.741       52.772       45.016    11393.685     2784.878     2026.447        1.715        0.810      133.952       59.147        0.195      337.164        8.953      862.403
12/06/2014  00:47:00     -125.772      -41.233        4.724       89.585       47.982       37.908     8025.430     2302.280     1437.033        1.465        0.588      132.358       36.611        0.077      337.235        9.072      862.418
12/06/2014  00:48:00     -143.677      -51.602       -4.042      102.316       50.681       38.239    10468.485     2568.594     1462.217        1.891        0.725      152.663       51.342        0.113      337.338        9.243      862.453
12/06/2014  00:49:00     -173.749      -92.204       10.525      102.253       83.269       42.104    10455.625     6933.756     1772.785        2.898        0.958      196.698       50.051        0.065      337.370        9.296      862.442
12/06/2014  00:50:00     -161.877      -95.505        8.294       76.229       73.211       38.105     5810.825     5359.902     1451.984        2.401        0.631      187.950       33.654        0.032      337.453        9.433      862.479
12/06/2014  00:51:00     -169.867      -64.444      -12.292       40.774       44.352       28.806     1662.501     1967.116      829.794        1.881        0.223      181.681       22.688        0.016      337.385        9.322      862.522
12/06/2014  00:52:00     -138.615      -68.379        0.566       56.225       46.496       32.617     3161.269     2161.845     1063.878        1.514        0.319      154.563       27.071        0.031      337.415        9.373      862.551
12/06/2014  00:53:00      -50.920      -54.141       -3.091       49.358       37.123       26.368     2436.234     1378.118      695.247        0.502        0.225       74.324       21.724        0.085      337.558        9.614      862.569
12/06/2014  00:54:00       -0.943      -73.001        6.911       43.871       80.471       32.922     1924.655     6475.611     1083.855        0.743        0.474       73.007       15.148        0.043      337.658        9.779      862.559
12/06/2014  00:55:00      -53.941      -44.069        5.811       51.721       36.905       25.894     2675.100     1361.990      670.508        0.480        0.235       69.654       28.301        0.165      337.603        9.688      862.573
12/06/2014  00:56:00     -102.416      -63.724        5.256       53.281       47.434       30.308     2838.910     2249.969      918.596        1.029        0.300      120.623       27.168        0.051      337.602        9.687      862.591
12/06/2014  00:57:00      -60.283      -89.636       -7.628       42.083       42.320       25.124     1770.949     1790.983      631.207        0.796        0.210      108.021       24.045        0.050      337.734        9.909      862.563
12/06/2014  00:58:00      -12.717      -21.594        6.855       36.685       24.060       13.969     1345.756      578.874      195.123        0.140        0.106       25.061       17.578        0.492      337.724        9.891      862.501
12/06/2014  00:59:00        4.904        5.683        6.587       45.240       15.419       14.777     2046.647      237.752      218.352        0.130        0.125        7.506        5.067        0.456      337.721        9.884      862.470
12/06/2014  01:00:00      -70.871      -20.823      -13.260       14.704       19.321       11.654      216.200      373.294      135.826        0.318        0.036       73.866        8.023        0.012      337.668        9.798      862.478
12/06/2014  01:01:00      -70.984      -56.555        8.443       46.947       26.848       30.979     2204.060      720.801      959.671        0.610        0.194       90.760       28.767        0.100      337.833       10.074      862.490
12/06/2014  01:02:00      -25.354      -32.242        6.718       38.035       29.716       18.432     1446.679      883.043      339.726        0.220        0.133       41.017       16.015        0.152      337.836       10.080      862.469
12/06/2014  01:03:00        5.409       10.625       -2.172       12.404       28.904       10.527      153.848      835.429      110.814        0.062        0.055       11.923       12.260        1.057      337.843       10.090      862.433
12/06/2014  01:04:00      -38.780        4.114        0.849       21.284       23.063       12.579      453.006      531.916      158.223        0.133        0.057       38.998       14.494        0.138      337.736        9.913      862.406
12/06/2014  01:05:00      -44.978       -5.113        3.649       40.392       22.343       14.654     1631.544      499.212      214.753        0.220        0.117       45.268       16.333        0.130      337.657        9.781      862.405
12/06/2014  01:06:00      -12.070      -42.762        3.665       38.249       24.604       14.401     1462.990      605.357      207.386        0.213        0.114       44.433       14.628        0.108      337.692        9.837      862.419
12/06/2014  01:07:00       -2.255      -12.108       -0.224       17.026       24.120       13.350      289.874      581.758      178.210        0.060        0.052       12.316        9.286        0.568      337.713        9.874      862.419
12/06/2014  01:08:00      -16.309       -2.570       -3.707       25.440       15.704       10.174      647.175      246.602      103.500        0.064        0.050       16.510        7.769        0.221      337.751        9.936      862.386
12/06/2014  01:09:00       -5.770       -4.564        4.142        8.684        9.695        9.364       75.405       93.996       87.677        0.016        0.013        7.357        7.661        1.084      337.714        9.875      862.380
12/06/2014  01:10:00      -34.974       -0.454       -5.779       10.707        8.463        7.561      114.631       71.615       57.161        0.075        0.012       34.977        7.405        0.045      337.661        9.788      862.363
12/06/2014  01:11:00       -6.086       42.478       10.418       20.535       11.790       11.348      421.691      138.998      128.769        0.132        0.034       42.912        9.708        0.051      337.785        9.992      862.351
12/06/2014  01:12:00      -13.839       33.124        8.946       53.781       26.414       15.811     2892.416      697.694      250.003        0.260        0.192       35.898       19.532        0.296      337.912       10.207      862.350
12/06/2014  01:13:00      -78.410        7.629       -7.196       18.723       22.543       11.531      350.567      508.165      132.956        0.362        0.050       78.780       10.442        0.018      337.344        9.255      862.372
12/06/2014  01:14:00      -66.245       -9.484       -6.433       18.942       13.395        9.405      358.811      179.427       88.454        0.257        0.031       66.920        5.464        0.007      337.055        8.770      862.405
12/06/2014  01:15:00     -130.431      -48.091      -11.136       49.963       37.971       19.016     2496.332     1441.802      361.595        1.187        0.215      139.014       12.409        0.008      336.961        8.611      862.417
12/06/2014  01:16:00     -127.604       -8.824        3.440       60.744       39.584       35.741     3689.879     1566.879     1277.394        1.145        0.327      127.909       37.477        0.086      336.980        8.645      862.402
12/06/2014  01:17:00     -116.474       21.945       -8.786       44.850       30.768       24.796     2011.562      946.655      614.820        0.885        0.179      118.523       18.425        0.024      337.014        8.703      862.381
12/06/2014  01:18:00      -70.381       33.655        4.619       49.079       30.857       32.779     2408.770      952.149     1074.469        0.527        0.222       78.014       25.508        0.107      337.261        9.116      862.335
12/06/2014  01:19:00      -54.970       23.991       -1.916       37.742       28.368       17.414     1424.487      804.754      303.259        0.307        0.127       59.978       16.445        0.075      337.288        9.161      862.291
12/06/2014  01:20:00      -53.014       -7.791       -2.108       24.363       22.655       16.547      593.546      513.252      273.819        0.213        0.069       53.583        7.997        0.022      337.278        9.144      862.279
12/06/2014  01:21:00      -57.104      -39.753       -1.119       22.763       15.500       11.926      518.162      240.235      142.229        0.287        0.045       69.579        8.162        0.014      337.264        9.121      862.283
12/06/2014  01:22:00      -37.843      -24.146       -1.574       40.073       23.945       17.113     1605.808      573.372      292.852        0.224        0.124       44.890       13.394        0.089      337.246        9.090      862.289
12/06/2014  01:23:00      -28.195      -31.029       12.305       32.900       21.670       18.323     1082.410      469.610      335.730        0.190        0.094       41.925       15.731        0.141      337.251        9.099      862.292
12/06/2014  01:24:00      -43.382      -29.944       -1.033       67.306       30.077       25.835     4530.092      904.646      667.434        0.444        0.305       52.713       19.736        0.140      337.636        9.745      862.302
12/06/2014  01:25:00      -47.397      -21.051       -0.134       41.572       29.331       22.470     1728.219      860.289      504.885        0.289        0.155       51.861       18.636        0.129      337.498        9.512      862.270
12/06/2014  01:26:00       41.012      -35.079       27.294       67.324       74.163       52.936     4532.573     5500.191     2802.184        0.824        0.642       53.968       54.021        1.002      337.925       10.228      862.219
12/06/2014  01:27:00      -76.669      -48.306       -5.754       66.190       28.002       13.695     4381.080      784.105      187.560        0.680        0.268       90.618       11.885        0.017      337.846       10.097      862.168
12/06/2014  01:28:00     -165.352     -100.850      -15.990      120.003       64.139       35.325    14400.666     4113.812     1247.880        2.876        0.988      193.680       30.789        0.025      337.903       10.189      862.160
12/06/2014  01:29:00       -6.779      -90.520       13.249       90.849       64.082       47.731     8253.622     4106.442     2278.275        1.152        0.732       90.773       27.562        0.092      338.106       10.532      862.174
12/06/2014  01:30:00     -102.933     -107.450       13.375      109.494       55.469       55.049    11989.033     3076.818     3030.404        2.020        0.905      148.798       52.226        0.123      338.148       10.601      862.222
12/06/2014  01:31:00      -83.174      -94.845        7.119       79.585       92.819       36.114     6333.738     8615.290     1304.216        1.611        0.813      126.149       46.781        0.138      338.087       10.499      862.231
12/06/2014  01:32:00      -81.723     -108.830      -10.264       47.024       57.637       28.095     2211.277     3322.023      789.329        1.247        0.316      136.097       26.356        0.038      338.089       10.502      862.202
12/06/2014  01:33:00     -107.593     -105.043       -3.217       48.826       41.863       24.071     2383.979     1752.551      579.418        1.367        0.236      150.367       20.049        0.018      338.051       10.441      862.207
12/06/2014  01:34:00     -152.443     -136.260      -13.541       47.603       50.768       37.042     2266.059     2577.354     1372.077        2.410        0.311      204.465       33.472        0.027      338.005       10.360      862.237
12/06/2014  01:35:00      -62.922      -47.533       12.818       65.094       60.735       42.887     4237.252     3688.726     1839.281        0.807        0.488       78.858       43.124        0.299      337.994       10.344      862.250
12/06/2014  01:36:00     -133.514     -130.056       -9.758       64.505       66.674       40.557     4160.936     4445.363     1644.876        2.254        0.513      186.389       32.108        0.030      338.113       10.542      862.254
12/06/2014  01:37:00      -63.760      -65.462        8.991       75.386       54.844       34.364     5682.991     3007.854     1180.884        0.915        0.494       91.382       39.993        0.192      338.120       10.557      862.245
12/06/2014  01:38:00      -61.268      -18.664       11.668       48.616       36.292       25.243     2363.515     1317.128      637.225        0.428        0.216       64.047       25.938        0.164      338.001       10.358      862.249
12/06/2014  01:39:00      -78.159      -89.723       -4.047       74.380       71.728       34.207     5532.413     5144.976     1170.152        1.301        0.592      118.991       45.563        0.147      338.031       10.406      862.307
12/06/2014  01:40:00     -108.625     -106.692        6.254       50.111       60.947       29.860     2511.152     3714.570      891.647        1.517        0.356      152.258       26.218        0.030      337.959       10.285      862.380
12/06/2014  01:41:00     -108.226      -52.763        7.503       62.773       54.215       34.943     3940.425     2939.279     1221.018        1.133        0.405      120.403       36.265        0.091      337.956       10.281      862.389
12/06/2014  01:42:00       30.723        9.091       22.531       36.432       40.478       22.984     1327.293     1638.452      528.248        0.251        0.175       32.040        7.736        0.058      337.893       10.176      862.344
12/06/2014  01:43:00       18.132       15.020       25.433       36.377       36.399       22.029     1323.276     1324.858      485.268        0.217        0.157       23.545       20.770        0.778      337.870       10.135      862.378
12/06/2014  01:44:00      -21.983      -44.276       -3.349       78.709       37.258       23.149     6195.051     1388.174      535.865        0.529        0.406       49.433       18.597        0.142      337.962       10.291      862.425
12/06/2014  01:45:00      -89.406      -60.118       -0.862       72.507       37.384       21.037     5257.275     1397.586      442.537        0.935        0.355      107.739       28.106        0.068      337.992       10.340      862.433
12/06/2014  01:46:00      -50.082      -32.257       28.362      105.450       64.655       47.338    11119.790     4180.270     2240.914        1.094        0.877       59.571       58.136        0.952      337.971       10.306      862.431
12/06/2014  01:47:00      -53.898     -143.102       -0.228       47.905       80.612       33.658     2294.857     6498.294     1132.857        1.665        0.496      152.916       29.116        0.036      338.408       11.037      862.477
12/06/2014  01:48:00      -23.818      -60.847       -0.317       23.114       45.621       23.049      534.280     2081.299      531.266        0.371        0.157       65.342       23.313        0.127      338.253       10.779      862.525
12/06/2014  01:49:00      -53.549      -42.023        4.995       47.580       24.801       17.205     2263.843      615.108      296.025        0.392        0.159       68.069       12.757        0.035      338.186       10.665      862.561
12/06/2014  01:50:00      -57.928      -63.689        4.191       50.891       32.081       25.581     2589.847     1029.181      654.404        0.585        0.214       86.093       15.940        0.034      338.208       10.704      862.611
12/06/2014  01:51:00      -81.056       -3.418       -3.010       37.506       33.388       20.002     1406.664     1114.765      400.076        0.476        0.146       81.128       16.556        0.042      338.161       10.625      862.661
12/06/2014  01:52:00      -56.613       36.062       -0.583       30.577       24.622       21.234      934.926      606.256      450.878        0.325        0.100       67.123       19.067        0.081      338.100       10.521      862.666
12/06/2014  01:53:00      -77.265       28.201       -8.149       39.169       30.306       15.362     1534.228      918.461      235.999        0.476        0.134       82.251       14.736        0.032      338.094       10.510      862.660
12/06/2014  01:54:00       21.841       50.273      -14.409       42.666       26.298       17.427     1820.389      691.599      303.693        0.301        0.141       54.813       14.912        0.074      338.045       10.431      862.682
12/06/2014  01:55:00       36.702       98.556       -4.603       37.318       38.336       31.634     1392.661     1469.617     1000.739        0.747        0.193      105.168       27.244        0.067      337.692        9.837      862.727
12/06/2014  01:56:00       28.962       73.221       -4.281       25.035       50.034       24.001      626.762     2503.413      576.053        0.496        0.185       78.741       30.501        0.150      337.621        9.720      862.739
12/06/2014  01:57:00       34.646      115.797      -13.152       32.870       46.392       22.471     1080.413     2152.215      504.926        0.926        0.187      120.869       25.357        0.044      337.641        9.753      862.722
12/06/2014  01:58:00        7.773      149.228      -23.181       24.859       24.198       15.813      617.971      585.519      250.063        1.216        0.073      149.430       12.352        0.007      337.684        9.824      862.721
12/06/2014  01:59:00        8.618      174.346      -30.381       28.529       28.798       14.577      813.877      829.338      212.481        1.662        0.093      174.559       14.362        0.007      337.658        9.781      862.738
12/06/2014  02:00:00       25.083      140.589      -22.239       24.872       23.179       12.641      618.605      537.288      159.804        1.110        0.066      142.809       12.166        0.007      337.609        9.700      862.741
12/06/2014  02:01:00      -15.352       96.889      -15.635       28.789       21.239        9.992      828.792      451.113       99.843        0.562        0.069       98.098        7.804        0.006      337.693        9.839      862.725
12/06/2014  02:02:00      -23.240      109.663      -18.974       18.583       14.973       11.800      345.340      224.184      139.248        0.682        0.035      112.098        8.354        0.006      337.746        9.929      862.707
12/06/2014  02:03:00      -50.053       86.861      -17.108       29.154       27.014       16.047      849.949      729.752      257.498        0.609        0.092      100.251       15.870        0.025      337.836       10.079      862.668
12/06/2014  02:04:00      -53.196      115.964      -14.482       26.143       41.673       18.792      683.452     1736.614      353.156        0.963        0.139      127.583       16.571        0.017      337.937       10.249      862.638
12/06/2014  02:05:00      -39.176       68.022        6.110       49.519       49.920       42.204     2452.140     2491.974     1781.193        0.646        0.336       78.497       44.903        0.327      337.885       10.163      862.615
12/06/2014  02:06:00      -26.253       30.614       10.118       30.635       35.618       22.757      938.505     1268.610      517.860        0.223        0.136       40.329       20.102        0.248      337.824       10.059      862.617
12/06/2014  02:07:00      -29.665       -1.101      -13.711       48.862       34.921       18.038     2387.521     1219.495      325.356        0.250        0.197       29.686       11.838        0.159      337.890       10.168      862.592
12/06/2014  02:08:00      -83.927      -37.723       -8.832       25.946       20.078       13.990      673.207      403.118      195.713        0.491        0.064       92.015        9.456        0.011      337.672        9.803      862.562
12/06/2014  02:09:00      -76.238        0.561      -11.397       28.934       35.831       10.539      837.152     1283.834      111.077        0.409        0.112       76.240       11.223        0.022      337.806       10.030      862.544
12/06/2014  02:10:00      -68.670      -27.473        8.906       44.207       35.009       15.915     1954.276     1225.622      253.291        0.449        0.172       73.961       22.351        0.091      337.715        9.876      862.558
12/06/2014  02:11:00      -82.611      -39.123       -3.805       52.581       40.300       22.257     2764.747     1624.061      495.389        0.663        0.244       91.406       26.553        0.084      337.860       10.119      862.564
12/06/2014  02:12:00      -97.124      -17.493       -1.322       53.230       25.466       20.632     2833.440      648.512      425.675        0.682        0.195       98.687       29.742        0.091      337.793       10.008      862.572
12/06/2014  02:13:00       11.022      -71.106        6.140       31.305       48.965       33.608      979.978     2397.558     1129.500        0.486        0.225       71.955       15.738        0.048      338.109       10.537      862.598
12/06/2014  02:14:00      -49.969      -20.045       19.782       57.522       51.670       36.672     3308.778     2669.785     1344.840        0.531        0.366       53.840       26.927        0.250      338.101       10.524      862.572
12/06/2014  02:15:00      -86.543      -51.307        4.177       56.878       31.639       24.027     3235.100     1001.040      577.282        0.748        0.241      100.608       22.273        0.049      338.010       10.371      862.575
12/06/2014  02:16:00      -74.912      -66.068        6.623       64.331       45.811       31.053     4138.457     2098.663      964.270        0.861        0.360       99.884       34.958        0.122      338.142       10.593      862.578
12/06/2014  02:17:00     -142.515      -96.818       -1.768       69.557       46.110       38.261     4838.192     2126.108     1463.914        1.906        0.421      172.291       25.789        0.022      338.064       10.460      862.565
12/06/2014  02:18:00      -87.295      -96.075        5.817       50.899       51.310       29.679     2590.734     2632.689      880.865        1.149        0.305      129.811       19.287        0.022      338.072       10.476      862.599
12/06/2014  02:19:00      -82.408      -25.979       10.748       82.341       46.681       31.248     6780.076     2179.096      976.449        0.876        0.497       86.406       42.705        0.244      338.016       10.380      862.541
12/06/2014  02:20:00      -62.069      -12.547       -2.761       49.271       27.230       19.931     2427.587      741.466      397.247        0.379        0.178       63.325       25.509        0.162      337.930       10.236      862.510
12/06/2014  02:21:00      -86.796       -5.006       -9.816       41.130       12.842       13.625     1691.698      164.911      185.649        0.485        0.102       86.940       18.852        0.047      337.979       10.320      862.484
12/06/2014  02:22:00      -39.813      -78.738       -4.105       52.016       34.757       19.924     2705.662     1208.036      396.974        0.606        0.216       88.231       18.575        0.044      338.078       10.485      862.477
12/06/2014  02:23:00      -73.311      -58.565       -3.153       72.248       34.049       17.114     5219.792     1159.352      292.872        0.774        0.334       93.832       12.317        0.017      338.077       10.484      862.489
12/06/2014  02:24:00        0.416      -26.610       -0.930       46.128       54.434       29.558     2127.822     2963.014      873.658        0.334        0.298       26.613       20.772        0.609      338.323       10.897      862.482
12/06/2014  02:25:00       13.128      -49.600        2.641       22.119       27.372       23.597      489.260      749.221      556.837        0.222        0.090       51.308       16.635        0.105      338.240       10.757      862.505
12/06/2014  02:26:00       28.237      -31.848        6.562       64.687       45.493       30.018     4184.381     2069.621      901.056        0.450        0.358       42.563       33.980        0.637      338.215       10.717      862.545
12/06/2014  02:27:00      -62.953      -30.346       -8.543       59.277       36.704       18.537     3513.786     1347.198      343.625        0.508        0.260       69.885       10.962        0.025      338.241       10.759      862.577
12/06/2014  02:28:00      -95.729      -54.061       -2.951       54.390       70.954       31.078     2958.278     5034.469      965.857        1.053        0.448      109.940       28.017        0.065      338.162       10.625      862.569
12/06/2014  02:29:00     -121.067      -47.556       -4.419       46.651       45.802       31.312     2176.334     2097.842      980.416        1.110        0.263      130.072       20.522        0.025      338.061       10.457      862.566
12/06/2014  02:30:00     -169.475      -46.738       -0.102       65.003       50.863       35.109     4225.331     2587.084     1232.641        1.947        0.402      175.801       33.747        0.037      337.896       10.178      862.585
12/06/2014  02:31:00     -106.363      -23.715        7.640       77.333       58.835       34.326     5980.422     3461.608     1178.302        1.127        0.531      108.975       30.916        0.080      337.868       10.132      862.620
12/06/2014  02:32:00      -88.506      -33.264        1.351       64.409       44.114       28.527     4148.559     1946.080      813.782        0.792        0.345       94.551       32.704        0.120      337.962       10.290      862.624
12/06/2014  02:33:00       -4.625       -0.805       17.183       38.520       32.051       29.788     1483.793     1027.284      887.300        0.186        0.170        4.694       27.472       34.248      337.927       10.232      862.585
12/06/2014  02:34:00      -15.621       26.364       40.892       15.410       23.723       16.522      237.476      562.798      272.972        0.184        0.054       30.644        8.838        0.083      337.849       10.102      862.564
12/06/2014  02:35:00        9.308        0.386       17.125       23.192       26.760       20.088      537.871      716.117      403.511        0.102        0.083        9.316       21.348        5.251      337.839       10.085      862.566
12/06/2014  02:36:00      -15.308       19.681       -1.780       32.936       12.567       15.983     1084.751      157.933      255.470        0.106        0.075       24.934       16.860        0.457      337.927       10.231      862.598
12/06/2014  02:37:00     -117.825      -13.567       -7.266       45.105       43.254       20.386     2034.494     1870.952      415.578        0.922        0.216      118.603       20.207        0.029      338.133       10.578      862.594
12/06/2014  02:38:00     -140.147      -50.164       -1.894       59.117       37.927       25.613     3494.826     1438.431      656.029        1.387        0.279      148.855       22.861        0.024      338.043       10.426      862.616
12/06/2014  02:39:00     -139.160      -68.113        0.588       55.204       45.738       32.284     3047.477     2092.004     1042.253        1.509        0.309      154.935       22.124        0.020      337.906       10.196      862.675
12/06/2014  02:40:00     -149.226      -81.924        2.220       55.356       56.411       33.387     3064.287     3182.146     1114.686        1.817        0.368      170.235       28.027        0.027      337.982       10.322      862.733
12/06/2014  02:41:00     -108.765      -80.596        0.190       63.093       58.840       36.630     3980.783     3462.145     1341.768        1.355        0.439      135.372       35.597        0.069      337.951       10.272      862.750
12/06/2014  02:42:00     -182.939      -39.469       -8.154       65.725       89.687       36.266     4319.770     8043.698     1315.238        2.438        0.684      187.149       33.728        0.032      338.028       10.400      862.719
12/06/2014  02:43:00     -108.180      -22.566        2.533       85.582       42.321       29.816     7324.282     1791.032      888.993        1.111        0.500      110.509       41.195        0.139      338.031       10.404      862.681
12/06/2014  02:44:00      -75.028      -58.764       -3.413       51.837       47.373       19.945     2687.033     2244.175      397.805        0.721        0.266       95.301       25.519        0.072      338.190       10.673      862.655
12/06/2014  02:45:00      -84.031     -124.746       -9.478       29.787       30.810       20.172      887.264      949.243      406.907        1.248        0.112      150.408       18.731        0.016      338.221       10.725      862.647
12/06/2014  02:46:00     -109.508      -81.872       -4.131       49.880       43.347       28.667     2487.995     1878.942      821.782        1.195        0.259      136.730       23.708        0.030      338.077       10.485      862.646
12/06/2014  02:47:00     -102.101      -90.796        1.708       46.171       36.841       28.203     2131.776     1357.230      795.434        1.148        0.214      136.633       25.281        0.034      337.947       10.264      862.657
12/06/2014  02:48:00     -168.926      -31.510        5.032       86.039       58.307       40.515     7402.730     3399.670     1641.460        2.100        0.622      171.840       36.572        0.045      338.036       10.412      862.638
12/06/2014  02:49:00     -193.904      -57.919       -8.699       74.903       62.654       30.990     5610.395     3925.486      960.384        2.576        0.525      202.369       30.671        0.023      338.059       10.451      862.611
12/06/2014  02:50:00      -90.860      -29.832       13.764       77.754       55.687       32.879     6045.615     3101.037     1081.032        0.978        0.511       95.632       36.631        0.147      337.940       10.254      862.617
12/06/2014  02:51:00      -80.414       38.831       10.706       77.404       72.298       34.210     5991.437     5227.036     1170.346        1.024        0.619       89.299       41.190        0.213      337.920       10.220      862.592
12/06/2014  02:52:00      -62.905        0.153       -2.197       66.240       44.107       20.855     4387.748     1945.393      434.936        0.536        0.338       62.905       14.539        0.053      338.225       10.732      862.589
12/06/2014  02:53:00      -13.857     -125.846       -5.277       28.480       22.633       14.780      811.113      512.234      218.460        0.880        0.077      126.607        8.025        0.004      338.165       10.631      862.650
12/06/2014  02:54:00      -27.049      -48.520        7.254       38.723       39.461       22.056     1499.497     1557.201      486.476        0.334        0.177       55.551       23.712        0.182      338.025       10.396      862.684
12/06/2014  02:55:00      -64.706      -50.516        2.230       59.390       30.767       21.543     3527.215      946.627      464.113        0.584        0.247       82.089       28.392        0.120      338.048       10.434      862.699
12/06/2014  02:56:00     -132.992      -37.310      -16.552       36.792       43.432       16.256     1353.684     1886.345      264.266        1.143        0.175      138.127       12.230        0.008      338.048       10.435      862.693
12/06/2014  02:57:00      -48.975      -30.030       10.417       44.059       23.807       18.300     1941.175      566.763      334.901        0.313        0.142       57.449       18.071        0.099      337.975       10.312      862.699
12/06/2014  02:58:00      -69.294       23.433        0.880       40.727       34.097       24.037     1658.724     1162.594      577.797        0.437        0.170       73.149       20.060        0.075      337.910       10.204      862.661
12/06/2014  02:59:00     -103.587        5.199       -9.417       73.648       38.561       32.179     5424.035     1486.916     1035.499        0.939        0.397      103.717       38.988        0.141      337.876       10.145      862.618
12/06/2014  03:00:00     -141.771      -64.472        2.054       73.279       42.497       24.335     5369.824     1805.956      592.182        1.601        0.388      155.742       29.348        0.036      338.068       10.466      862.655
12/06/2014  03:01:00      -96.668      -71.041        5.413       66.060       39.057       25.339     4363.975     1525.433      642.054        1.047        0.327      119.965       28.543        0.057      338.037       10.419      862.730
12/06/2014  03:02:00     -136.110      -35.493        2.596       58.409       52.283       35.439     3411.621     2733.473     1255.955        1.360        0.370      140.662       34.381        0.060      338.033       10.410      862.770
12/06/2014  03:03:00     -120.790      -28.358        0.516       54.601       38.260       29.564     2981.258     1463.846      874.057        1.036        0.266      124.075       29.622        0.057      338.003       10.361      862.765
12/06/2014  03:04:00     -183.716      -77.186       -1.193       50.588       44.685       29.848     2559.184     1996.719      890.888        2.258        0.272      199.272       25.335        0.016      337.993       10.341      862.746
12/06/2014  03:05:00     -124.422      -59.032        4.953       58.160       44.503       28.440     3382.547     1980.474      808.854        1.258        0.309      137.715       30.970        0.051      337.871       10.137      862.755
12/06/2014  03:06:00     -145.568      -68.647      -11.462       39.364       32.385       24.896     1549.536     1048.772      619.831        1.463        0.161      160.942       15.686        0.009      337.900       10.186      862.785
12/06/2014  03:07:00     -124.161      -14.280       -5.247       72.339       60.492       31.858     5232.871     3659.320     1014.938        1.278        0.495      124.980       30.826        0.061      337.796       10.011      862.805
12/06/2014  03:08:00     -104.813       -9.269        5.366       60.589       43.440       31.977     3671.067     1886.999     1022.509        0.884        0.329      105.222       34.152        0.105      337.818       10.049      862.793
12/06/2014  03:09:00     -108.571      -11.162       -8.654       45.074       32.405       25.456     2031.653     1050.062      648.028        0.786        0.186      109.143       27.493        0.063      337.852       10.105      862.776
12/06/2014  03:10:00     -122.934      -33.519       -9.872       46.985       25.943       23.047     2207.553      673.052      531.147        0.987        0.171      127.422       21.851        0.029      337.714        9.874      862.762
12/06/2014  03:11:00      -14.419      -41.506       -3.066       19.809       20.950       12.916      392.409      438.915      166.829        0.147        0.050       43.939        6.728        0.023      337.730        9.901      862.771
12/06/2014  03:12:00      -87.396       26.292       -9.675       34.665       13.402       15.025     1201.678      179.626      225.759        0.501        0.080       91.265       17.174        0.035      337.676        9.811      862.760
12/06/2014  03:13:00     -125.917       27.180       -5.884       19.088       17.150        8.035      364.357      294.113       64.555        0.868        0.036      128.817        7.154        0.003      337.776        9.979      862.766
12/06/2014  03:14:00      -95.461       -7.664       -8.191       37.978       19.376       11.870     1442.302      375.447      140.903        0.560        0.098       95.768       15.445        0.026      337.647        9.762      862.791
12/06/2014  03:15:00     -180.416       19.990      -18.469       25.396       24.451       15.683      644.957      597.858      245.962        1.739        0.074      181.520       10.372        0.003      337.589        9.665      862.805
12/06/2014  03:16:00     -116.085       -4.859      -10.315       41.694       19.931       18.784     1738.382      397.229      352.837        0.805        0.124      116.187       18.197        0.025      337.467        9.459      862.836
12/06/2014  03:17:00     -107.966       10.575       -3.074       53.397       36.109       24.782     2851.284     1303.887      614.166        0.827        0.238      108.483       24.451        0.051      337.746        9.928      862.815
12/06/2014  03:18:00      -72.708       -7.911       -4.211       34.160       35.042       16.225     1166.918     1227.922      263.246        0.401        0.133       73.137       17.599        0.058      337.826       10.063      862.745
12/06/2014  03:19:00      -84.970       38.363      -14.812       29.409       40.536       19.725      864.911     1643.197      389.095        0.590        0.145       93.229       15.187        0.027      338.028       10.402      862.665
12/06/2014  03:20:00      -80.602       75.790      -19.448       19.195       30.802       13.601      368.431      948.744      184.995        0.706        0.075      110.638        9.750        0.008      338.155       10.616      862.602
12/06/2014  03:21:00      -71.892       26.437      -11.867       21.417       21.110       13.322      458.697      445.620      177.478        0.354        0.054       76.599        8.081        0.011      338.114       10.547      862.604
12/06/2014  03:22:00      -59.934       -1.740       -1.386       20.041       12.527       12.338      401.657      156.920      152.223        0.215        0.036       59.959       12.435        0.043      338.005       10.362      862.650
12/06/2014  03:23:00      -16.569      -16.001        1.067       16.289        6.524        4.936      265.335       42.565       24.365        0.043        0.017       23.034        3.827        0.028      338.176       10.648      862.677
12/06/2014  03:24:00       14.264       24.080       25.735       27.020       27.463       29.820      730.061      754.201      889.221        0.191        0.119       27.988       25.495        0.830      337.756        9.944      862.666
12/06/2014  03:25:00       72.693       32.022       13.071       31.452       25.643       22.527      989.259      657.568      507.471        0.432        0.108       79.433       16.196        0.042      337.531        9.566      862.651
12/06/2014  03:26:00       42.260       37.914       -4.019       25.169       18.003       12.516      633.476      324.108      156.655        0.218        0.056       56.775        5.768        0.010      337.543        9.589      862.668
12/06/2014  03:27:00       17.793       25.015       -8.895        6.016        9.326        4.844       36.188       86.972       23.461        0.058        0.007       30.698        5.351        0.030      337.705        9.860      862.727
12/06/2014  03:28:00       -6.323      -15.002        4.370        8.848       13.008        7.994       78.279      169.215       63.904        0.030        0.016       16.280        2.573        0.025      337.683        9.823      862.756
12/06/2014  03:29:00       24.868       23.660       14.511       13.209       18.804       10.981      174.473      353.578      120.574        0.102        0.032       34.325        4.949        0.021      337.643        9.756      862.722
12/06/2014  03:30:00       29.553       38.877       -1.782       15.521       18.991       14.289      240.911      360.640      204.180        0.160        0.040       48.834       10.658        0.048      337.545        9.591      862.655
12/06/2014  03:31:00       26.793       56.304       -6.288       22.986       25.558       14.231      528.340      653.194      202.515        0.266        0.069       62.354       10.618        0.029      337.464        9.456      862.598
12/06/2014  03:32:00       14.641       58.819      -12.482       13.834       14.354        8.155      191.369      206.025       66.508        0.215        0.023       60.614        5.208        0.007      337.503        9.520      862.573
12/06/2014  03:33:00      -26.108       32.022       -8.091       19.859       23.056       14.251      394.376      531.574      203.093        0.145        0.056       41.316        8.959        0.047      337.578        9.646      862.570
12/06/2014  03:34:00      -68.111       22.720       -9.254       10.557       10.726        8.769      111.447      115.050       76.898        0.277        0.015       71.801        5.044        0.005      337.419        9.381      862.577
12/06/2014  03:35:00      -51.636       32.802       -7.942       19.245       17.761       14.589      370.357      315.459      212.851        0.235        0.045       61.174       13.918        0.052      337.782        9.989      862.595
12/06/2014  03:36:00      -75.780       47.326      -22.501       13.222       17.281        6.062      174.826      298.635       36.751        0.450        0.026       89.344        4.995        0.003      337.717        9.879      862.608
12/06/2014  03:37:00      -80.746       29.465      -14.882       22.215       18.210       11.575      493.508      331.618      133.976        0.428        0.048       85.954       12.883        0.022      337.664        9.791      862.636
12/06/2014  03:38:00      -66.329       19.837       -8.672       27.454       13.697       14.150      753.718      187.598      200.210        0.300        0.057       69.232       10.828        0.024      337.430        9.398      862.665
12/06/2014  03:39:00      -52.863        1.280        1.792       24.368       16.545       10.453      593.780      273.740      109.262        0.189        0.049       52.879        9.676        0.033      337.443        9.418      862.679
12/06/2014  03:40:00        3.888       -8.027        4.431        7.971        6.907        8.557       63.536       47.712       73.223        0.014        0.009        8.919        5.202        0.340      337.558        9.613      862.700
12/06/2014  03:41:00       15.044        1.686        0.506       11.220        7.671        5.019      125.894       58.843       25.186        0.022        0.010       15.138        3.675        0.059      337.666        9.795      862.722
12/06/2014  03:42:00       39.481       16.800        3.771       16.019       14.330        8.908      256.606      205.357       79.351        0.120        0.027       42.907        4.831        0.013      337.551        9.602      862.707
12/06/2014  03:43:00       32.789       41.412       -5.814       14.873       19.540       12.437      221.200      381.821      154.685        0.179        0.038       52.821        9.941        0.035      337.546        9.592      862.715
12/06/2014  03:44:00       23.165       54.923      -11.550       15.527       22.633       14.183      241.081      512.242      201.151        0.232        0.048       59.609       10.182        0.029      337.683        9.821      862.766
12/06/2014  03:45:00       25.542       75.592      -10.462       11.912       15.487        8.998      141.885      239.861       80.957        0.347        0.023       79.791        5.851        0.005      337.730        9.902      862.754
12/06/2014  03:46:00       23.335       84.673      -14.164       15.832       20.633       12.489      250.656      425.716      155.977        0.437        0.042       87.830       10.224        0.014      337.638        9.748      862.735
12/06/2014  03:47:00        0.868       99.488      -15.987       17.674       22.584        8.884      312.382      510.054       78.921        0.553        0.045       99.492        8.017        0.006      337.803       10.023      862.766
12/06/2014  03:48:00      -47.606        0.748       -6.019       29.085       45.495       13.799      845.963     2069.782      190.414        0.270        0.155       47.612       12.095        0.065      337.340        9.248      862.817
12/06/2014  03:49:00      -83.733      -11.903       -8.867       13.858       17.438       12.586      192.050      304.077      158.402        0.394        0.033       84.574        7.969        0.009      337.110        8.862      862.857
12/06/2014  03:50:00      -68.755       17.284      -12.812       14.446       15.249       10.098      208.674      232.544      101.976        0.287        0.027       70.895        6.254        0.008      337.103        8.849      862.845
12/06/2014  03:51:00       -2.022      108.037      -15.090       21.231       67.310       16.141      450.740     4530.658      260.542        0.857        0.262      108.056       26.132        0.058      337.506        9.525      862.793
12/06/2014  03:52:00       38.674      211.398      -32.675       32.451       37.275       25.288     1053.077     1389.415      639.497        2.517        0.154      214.907       25.877        0.014      337.418        9.377      862.720
12/06/2014  03:53:00       24.471      140.852      -18.202       33.205       48.742       27.126     1102.553     2375.739      735.814        1.249        0.211      142.962       24.488        0.029      337.280        9.149      862.710
12/06/2014  03:54:00      -18.177      111.188      -13.481       34.615       34.245       23.469     1198.182     1172.726      550.811        0.790        0.146      112.664       20.070        0.032      337.363        9.285      862.790
12/06/2014  03:55:00      -62.145        8.397       -9.848       30.565       47.343       20.497      934.245     2241.330      420.123        0.381        0.180       62.709       17.591        0.079      337.344        9.254      862.870
12/06/2014  03:56:00      -80.197      -14.772       -9.376       16.297       17.683       16.702      265.600      312.672      278.963        0.380        0.043       81.546       10.950        0.018      337.097        8.840      862.932
12/06/2014  03:57:00     -112.170        8.583      -12.717       17.751       21.619       11.541      315.085      467.386      133.202        0.687        0.046      112.498        9.323        0.007      337.112        8.865      862.960
12/06/2014  03:58:00     -112.414       40.489      -25.658       38.446       34.679       23.828     1478.096     1202.599      567.794        0.909        0.162      119.483       23.077        0.037      337.386        9.325      862.961
12/06/2014  03:59:00     -112.903       58.480      -13.654       39.256       37.798       22.785     1541.037     1428.708      519.158        0.992        0.174      127.150       21.372        0.028      337.602        9.686      862.927
12/06/2014  04:00:00      -84.161       64.857      -20.121       25.046       38.547       20.309      627.299     1485.867      412.472        0.711        0.126      106.252       20.804        0.038      337.605        9.692      862.898
12/06/2014  04:01:00      -61.479      106.809      -19.691       24.919       30.640       25.644      620.956      938.803      657.593        0.890        0.111      123.239       20.144        0.027      337.701        9.852      862.841
12/06/2014  04:02:00      -33.516      155.767      -17.766       27.053       39.507       17.485      731.844     1560.796      305.715        1.415        0.130      159.332       12.879        0.007      337.830       10.069      862.755
12/06/2014  04:03:00       12.506      179.537      -20.956       29.365       45.492       24.931      862.332     2069.554      621.538        1.819        0.178      179.972       23.724        0.017      337.718        9.881      862.670
12/06/2014  04:04:00       32.386      138.163      -12.516       45.054       74.280       42.137     2029.869     5517.541     1775.569        1.481        0.466      141.908       46.196        0.106      337.527        9.560      862.616
12/06/2014  04:05:00       -8.964      169.292      -21.757       39.518       41.391       23.656     1561.644     1713.195      559.615        1.652        0.192      169.529       19.481        0.013      337.460        9.447      862.656
12/06/2014  04:06:00      -82.673       99.686      -21.183       31.089       49.096       22.676      966.543     2410.424      514.206        1.056        0.195      129.507       22.296        0.030      337.633        9.738      862.731
12/06/2014  04:07:00     -116.766      132.901      -30.332       45.104       53.169       28.066     2034.382     2826.977      787.698        1.893        0.282      176.910       22.602        0.016      337.748        9.930      862.776
12/06/2014  04:08:00     -112.896      122.329      -28.571       49.949       62.992       34.835     2494.917     3967.981     1213.475        1.810        0.384      166.463       37.330        0.050      337.806       10.029      862.834
12/06/2014  04:09:00     -116.631       47.510      -20.126       45.617       46.301       29.599     2080.938     2143.790      876.089        1.068        0.255      125.936       19.182        0.023      337.820       10.053      862.905
12/06/2014  04:10:00      -60.521       38.911      -22.551       43.892       33.166       15.858     1926.534     1099.997      251.491        0.448        0.164       71.950        7.095        0.010      337.511        9.534      862.907
12/06/2014  04:11:00      -29.597       54.845       -4.538       31.862       38.582       27.941     1015.216     1488.547      780.701        0.359        0.164       62.321       21.314        0.117      337.606        9.692      862.853
12/06/2014  04:12:00       -7.468       87.173        5.984       19.860       47.250       24.754      394.426     2232.519      612.740        0.546        0.162       87.492       26.682        0.093      337.574        9.640      862.830
12/06/2014  04:13:00      -26.246       19.247        4.219       25.220       41.267       19.377      636.032     1702.954      375.484        0.190        0.136       32.547       22.840        0.492      337.676        9.811      862.850
12/06/2014  04:14:00       36.097       21.839       11.832       17.584       13.769       20.456      309.196      189.599      418.455        0.142        0.046       42.189       15.305        0.132      337.545        9.590      862.902
12/06/2014  04:15:00       41.064       -2.317       -1.118        6.921       16.272        6.084       47.899      264.777       37.010        0.102        0.017       41.129        3.768        0.008      337.695        9.842      862.952
12/06/2014  04:16:00       29.132      -33.521       -4.504        9.972       11.174        8.348       99.443      124.853       69.682        0.114        0.015       44.411        5.551        0.016      337.794       10.009      862.964
12/06/2014  04:17:00        1.102        8.099        9.585       10.076       14.603        9.348      101.533      213.258       87.384        0.028        0.020        8.174        7.845        0.921      337.637        9.744      862.952
12/06/2014  04:18:00       26.275       39.773       -7.760       14.045       18.779       12.348      197.266      352.669      152.464        0.152        0.035       47.668        9.165        0.037      337.922       10.223      862.928
12/06/2014  04:19:00      -10.554       96.405      -13.735       17.316       19.372       13.276      299.850      375.276      176.256        0.522        0.043       96.981        9.152        0.009      337.937       10.250      862.890
12/06/2014  04:20:00      -16.667      157.163      -24.623       13.056       27.232        8.386      170.460      741.605       70.326        1.328        0.049      158.045        7.425        0.002      337.974       10.311      862.848
12/06/2014  04:21:00      -30.883      160.785      -23.965       15.560       46.909       16.965      242.124     2200.412      287.817        1.505        0.137      163.724       21.035        0.017      338.127       10.569      862.819
12/06/2014  04:22:00      -47.969      164.019      -24.326       33.236       63.707       21.024     1104.613     4058.622      441.988        1.770        0.280      170.890       19.630        0.013      338.065       10.463      862.801
12/06/2014  04:23:00      -80.808       98.355      -23.882       33.870       38.731       18.003     1147.149     1500.113      324.118        0.987        0.149      127.294       19.475        0.023      338.071       10.473      862.764
12/06/2014  04:24:00      -83.065       12.990      -11.645       21.596       32.971       14.519      466.394     1087.063      210.790        0.448        0.088       84.074       12.392        0.022      337.613        9.706      862.725
12/06/2014  04:25:00     -177.436        8.627      -19.254       47.127       43.682       24.668     2220.937     1908.080      608.515        1.833        0.237      177.646       22.122        0.016      337.231        9.064      862.711
12/06/2014  04:26:00     -156.340      -38.822      -18.811       37.684       28.895       20.643     1420.075      834.945      426.122        1.449        0.134      161.088       19.292        0.014      337.271        9.133      862.708
12/06/2014  04:27:00     -153.658      -50.676       -6.537       37.608       35.892       22.762     1414.368     1288.221      518.121        1.472        0.161      161.799       17.298        0.011      337.207        9.027      862.712
12/06/2014  04:28:00     -216.270       54.954      -18.974       34.571       29.989       17.672     1195.173      899.316      312.300        2.628        0.120      223.142        4.969        0.000      337.313        9.201      862.712
12/06/2014  04:29:00     -205.586       17.998      -24.273       48.443       31.507       20.696     2346.731      992.662      428.337        2.347        0.188      206.372       22.691        0.012      337.347        9.257      862.684
12/06/2014  04:30:00     -158.002       78.443       -9.855       71.091       36.640       32.093     5053.960     1342.473     1029.933        1.932        0.371      176.402       29.855        0.029      337.640        9.749      862.651
12/06/2014  04:31:00     -167.133       83.034      -18.993       48.730       38.673       32.789     2374.660     1495.616     1075.141        2.007        0.247      186.623       32.031        0.029      337.792       10.003      862.659
12/06/2014  04:32:00     -140.259       48.190      -14.805       72.248       39.411       45.706     5219.814     1553.255     2088.995        1.554        0.443      148.306       46.095        0.097      337.857       10.113      862.691
12/06/2014  04:33:00     -145.160       34.443       -5.885       39.493       27.363       24.839     1559.672      748.746      616.958        1.261        0.146      149.191       19.793        0.018      337.745        9.927      862.737
12/06/2014  04:34:00      -76.388      -25.676       -9.039       47.856       20.313       13.779     2290.164      412.625      189.850        0.473        0.145       80.588       18.140        0.051      337.578        9.647      862.762
12/06/2014  04:35:00     -126.068        0.837      -10.368       30.019       27.519       15.675      901.123      757.292      245.697        0.895        0.095      126.071        6.046        0.002      337.762        9.956      862.756
12/06/2014  04:36:00      -33.143       -4.346       -0.619       33.406       19.505       18.536     1115.960      380.427      343.592        0.148        0.092       33.426       19.950        0.356      337.679        9.816      862.745
12/06/2014  04:37:00        7.212        7.645       43.150       25.299       32.867       20.664      640.046     1080.213      426.990        0.206        0.107       10.510       23.421        4.966      337.695        9.842      862.719
12/06/2014  04:38:00      -11.302       32.357        6.813       13.636       16.356       29.444      185.943      267.516      866.938        0.127        0.066       34.274       14.776        0.186      337.609        9.699      862.729
12/06/2014  04:39:00       11.228       20.453        2.698       21.063       19.241       20.616      443.642      370.203      425.012        0.090        0.062       23.332       15.750        0.456      337.683        9.823      862.731
12/06/2014  04:40:00       29.001       42.030       -5.998       40.497       21.931       20.903     1640.013      480.963      436.916        0.260        0.128       51.064       18.104        0.126      337.690        9.833      862.730
12/06/2014  04:41:00      -82.756       47.475       -9.349       68.549       74.882       31.665     4699.012     5607.387     1002.680        1.025        0.565       95.407       34.098        0.128      337.737        9.913      862.741
12/06/2014  04:42:00      -81.958       13.673       -8.027       46.418       33.683       23.160     2154.634     1134.560      536.389        0.540        0.191       83.091       23.605        0.081      337.565        9.625      862.787
12/06/2014  04:43:00      -90.089      -25.021      -18.930       39.731       30.901       19.025     1578.547      954.864      361.934        0.600        0.145       93.499       16.069        0.030      337.426        9.392      862.844
12/06/2014  04:44:00      -82.579      -31.555      -10.614       42.681       30.050       24.058     1821.706      903.009      578.796        0.561        0.165       88.403       21.779        0.061      337.357        9.278      862.891
12/06/2014  04:45:00      -97.657        0.759      -20.928       35.206       19.306       17.580     1239.448      372.710      309.067        0.595        0.096       97.660       17.100        0.031      337.309        9.196      862.918
12/06/2014  04:46:00     -111.528        6.286      -15.279       34.591       23.389       19.605     1196.568      547.063      384.357        0.742        0.106      111.705       21.323        0.036      337.297        9.175      862.929
12/06/2014  04:47:00      -57.668       13.741       -8.741       34.378       18.320       13.440     1181.861      335.626      180.623        0.264        0.085       59.283        7.325        0.015      337.282        9.153      862.914
12/06/2014  04:48:00      -16.094       68.339       -8.647       36.400       18.263       16.933     1324.989      333.538      286.732        0.347        0.097       70.208       14.391        0.042      337.513        9.537      862.879
12/06/2014  04:49:00      -38.329       84.959       -0.730       29.793       33.134       23.037      887.649     1097.836      530.689        0.560        0.126       93.205       22.130        0.056      337.405        9.356      862.857
12/06/2014  04:50:00      -76.940      127.650      -18.802       29.134       31.012       20.614      848.802      961.714      424.930        1.240        0.112      149.044       18.470        0.015      337.649        9.764      862.866
12/06/2014  04:51:00      -33.913       88.439       -1.147       30.607       23.147       16.983      936.809      535.797      288.425        0.537        0.088       94.718       14.806        0.024      337.795       10.011      862.922
12/06/2014  04:52:00       14.661       15.873       14.031       36.002       25.983       17.546     1296.145      675.128      307.861        0.147        0.114       21.608       13.658        0.400      337.610        9.700      862.993
12/06/2014  04:53:00       52.285       36.845       13.077       37.424       36.062       25.739     1400.583     1300.479      662.487        0.381        0.168       63.964       21.551        0.114      337.393        9.337      862.989
12/06/2014  04:54:00       53.307       74.661      -10.682       31.425       30.469       20.954      987.520      928.344      439.067        0.544        0.118       91.738       17.234        0.035      337.435        9.405      862.968
12/06/2014  04:55:00       49.333       58.172      -12.732       22.480       30.672       21.740      505.348      940.744      472.635        0.395        0.096       76.274       19.963        0.069      337.476        9.475      862.983
12/06/2014  04:56:00        0.767       11.901       -4.911       28.540       22.906       13.440      814.557      524.673      180.645        0.084        0.076       11.926       11.246        0.889      337.568        9.630      863.065
12/06/2014  04:57:00      -31.898      -12.506       -1.583       23.349       15.191        9.406      545.180      230.771       88.475        0.102        0.043       34.262        7.951        0.054      337.402        9.352      863.126
12/06/2014  04:58:00      -25.254       -4.232       -6.006       19.336        8.527        9.872      373.888       72.709       97.452        0.062        0.027       25.606        4.570        0.032      337.368        9.295      863.130
12/06/2014  04:59:00       -4.319      -14.575        1.025        9.492       11.503        5.459       90.091      132.315       29.802        0.024        0.013       15.202        2.723        0.032      337.582        9.650      863.123
12/06/2014  05:00:00      -10.408       28.146       -4.665       21.622       21.932        5.817      467.498      481.030       33.842        0.095        0.049       30.009        7.205        0.058      337.611        9.701      863.116
12/06/2014  05:01:00       39.772       58.623       -7.670       12.703       14.695       14.448      161.361      215.951      208.756        0.283        0.029       70.841        9.683        0.019      337.653        9.772      863.111
12/06/2014  05:02:00       41.344       55.262      -10.342       15.679       21.623       15.626      245.818      467.559      244.158        0.291        0.048       69.016       14.158        0.042      337.610        9.700      863.110
12/06/2014  05:03:00       45.276       51.716       -7.038       17.799       21.074       15.619      316.792      444.105      243.953        0.289        0.050       68.734       12.240        0.032      337.608        9.697      863.090
12/06/2014  05:04:00       46.854       98.226      -16.216       17.086       20.968       13.305      291.936      439.670      177.031        0.651        0.045      108.829       10.061        0.009      337.582        9.655      863.047
12/06/2014  05:05:00       46.201       98.565      -23.721       17.249       30.283       15.396      297.513      917.050      237.025        0.693        0.073      108.856       13.867        0.016      337.589        9.665      863.031
12/06/2014  05:06:00       19.812       24.903       -5.043       25.889       33.472       20.578      670.254     1120.394      423.460        0.163        0.111       31.822       18.893        0.352      337.557        9.611      863.072
12/06/2014  05:07:00       39.196       56.594       -4.326       15.709       22.090       15.648      246.779      487.989      244.859        0.287        0.049       68.841       14.205        0.043      337.600        9.684      863.080
12/06/2014  05:08:00       44.780       42.691      -11.599       11.095       17.536       10.362      123.088      307.520      107.366        0.225        0.027       61.869        8.549        0.019      337.529        9.564      863.078
12/06/2014  05:09:00       27.296        5.940       -3.578       11.503       13.012        8.588      132.309      169.311       73.747        0.058        0.019       27.934        6.871        0.061      337.509        9.531      863.115
12/06/2014  05:10:00       -8.182        5.930       -2.058       24.049       17.188        3.987      578.358      295.413       15.894        0.050        0.044       10.105        3.337        0.109      337.600        9.685      863.155
12/06/2014  05:11:00      -58.187      -18.579       -9.499        8.858        9.981        8.249       78.470       99.619       68.042        0.203        0.012       61.081        7.686        0.016      337.552        9.604      863.199
12/06/2014  05:12:00      -59.206      -12.684       -5.034       14.123        9.623        7.661      199.465       92.603       58.697        0.202        0.018       60.550        4.505        0.006      337.502        9.518      863.229
12/06/2014  05:13:00      -27.911       -4.357       -5.093        7.571        6.651        7.355       57.319       44.237       54.102        0.049        0.008       28.249        4.351        0.024      337.336        9.243      863.234
12/06/2014  05:14:00      -26.994       25.856       -1.538       18.962       17.052        8.375      359.542      290.759       70.134        0.106        0.036       37.379        6.074        0.026      337.510        9.532      863.201
12/06/2014  05:15:00      -11.579       89.984      -16.793       25.380       43.956       10.696      644.142     1932.147      114.404        0.560        0.135       90.726        8.928        0.010      337.855       10.111      863.206
12/06/2014  05:16:00       14.473       97.329      -16.035       13.629       29.626       12.284      185.742      877.711      150.898        0.558        0.061       98.399       10.664        0.012      337.797       10.013      863.214
12/06/2014  05:17:00       37.062       39.026       -7.743       15.701       23.389       16.560      246.524      547.054      274.226        0.201        0.053       53.821       15.528        0.083      337.577        9.646      863.225
12/06/2014  05:18:00        2.330        7.959       18.785       13.303       21.702       21.786      176.977      470.958      474.647        0.077        0.056        8.293       19.595        5.584      337.314        9.205      863.277
12/06/2014  05:19:00       38.019       24.191        0.251       12.047       10.511       10.651      145.121      110.473      113.435        0.120        0.018       45.063        7.048        0.024      337.124        8.888      863.329
12/06/2014  05:20:00       38.096       51.412       -5.657        8.324       11.735       11.309       69.292      137.720      127.897        0.223        0.017       63.988        5.460        0.007      337.272        9.136      863.327
12/06/2014  05:21:00       36.880       60.124      -11.020        7.284       13.156        6.281       53.052      173.090       39.448        0.268        0.013       70.534        1.742        0.001      337.406        9.357      863.308
12/06/2014  05:22:00       39.029       51.642       -2.631       12.789       15.605       14.967      163.554      243.509      224.010        0.241        0.032       64.731       11.825        0.033      337.462        9.453      863.311
12/06/2014  05:23:00       33.845       57.870       -6.807       16.739       21.043       16.713      280.187      442.808      279.319        0.277        0.050       67.040       15.818        0.056      337.491        9.501      863.329
12/06/2014  05:24:00       43.902       91.122      -19.152       18.625       28.916       18.234      346.886      836.143      332.463        0.606        0.076      101.147       18.244        0.033      337.611        9.702      863.334
12/06/2014  05:25:00       50.405       84.731       -8.000       27.757       42.190       25.846      770.477     1779.998      668.030        0.650        0.161       98.590       25.613        0.067      337.677        9.813      863.319
12/06/2014  05:26:00       33.199       66.231       -5.303       27.592       39.898       23.793      761.306     1591.837      566.114        0.422        0.146       74.086       19.680        0.071      337.609        9.699      863.314
12/06/2014  05:27:00       45.450       31.787        1.529       35.626       19.556       18.915     1269.180      382.418      357.787        0.254        0.100       55.462       14.602        0.069      337.644        9.758      863.339
12/06/2014  05:28:00       26.273        5.877       10.316       38.924       19.744       21.727     1515.069      389.839      472.054        0.160        0.119       26.922       22.045        0.671      337.485        9.492      863.387
12/06/2014  05:29:00       28.007      -41.794       12.529       47.346       44.207       44.983     2241.647     1954.303     2023.455        0.445        0.311       50.310       19.833        0.155      337.219        9.048      863.425
12/06/2014  05:30:00      102.033      -80.210        0.750       69.950       77.686       42.886     4892.943     6035.084     1839.242        1.480        0.638      129.786       52.076        0.161      337.174        8.968      863.470
12/06/2014  05:31:00      113.446      -49.507       19.645       82.096       76.785       45.434     6739.684     5895.915     2064.222        1.520        0.735      123.778       58.179        0.221      337.167        8.957      863.498
12/06/2014  05:32:00       98.130      -50.221       18.546       56.441       47.662       43.514     3185.611     2271.671     1893.447        0.992        0.368      110.234       42.831        0.151      337.237        9.076      863.497
12/06/2014  05:33:00       49.082       46.156       40.231       33.754       25.970       24.478     1139.344      674.461      599.188        0.428        0.121       67.375       21.368        0.101      337.172        8.967      863.457
12/06/2014  05:34:00       87.392       57.135       22.997       31.438       24.684       21.671      988.350      609.313      469.644        0.675        0.103      104.412       14.951        0.021      337.192        8.998      863.431
12/06/2014  05:35:00       93.407       62.768        7.120       60.452       35.929       25.905     3654.402     1290.926      671.094        0.916        0.281      112.538       19.017        0.029      337.283        9.155      863.439
12/06/2014  05:36:00        8.022       52.683       -2.737       39.515       36.520       20.611     1561.443     1333.731      424.802        0.308        0.166       53.290       23.046        0.187      337.327        9.226      863.495
12/06/2014  05:37:00      -43.660       29.726      -12.497       26.298       46.369       16.572      691.571     2150.060      274.644        0.303        0.156       52.819       11.768        0.050      337.292        9.168      863.557
12/06/2014  05:38:00      -43.333       66.037      -10.772       26.682       33.316       16.671      711.909     1109.927      277.915        0.423        0.105       78.985       16.630        0.044      337.359        9.279      863.576
12/06/2014  05:39:00      -10.217      159.157      -16.809       20.870       44.110       15.787      435.574     1945.654      249.226        1.417        0.132      159.484       20.552        0.017      337.524        9.556      863.503
12/06/2014  05:40:00       34.145      141.439      -15.582       28.720       52.690       31.725      824.823     2776.236     1006.449        1.301        0.230      145.502       34.483        0.056      337.400        9.349      863.445
12/06/2014  05:41:00       51.007       73.294       -3.789       36.592       43.875       25.061     1338.971     1924.983      628.036        0.594        0.195       89.296       24.058        0.073      337.375        9.306      863.430
12/06/2014  05:42:00       71.756       38.922        0.091       30.941       29.639       24.712      957.329      878.490      610.662        0.455        0.122       81.633       12.990        0.025      337.336        9.242      863.444
12/06/2014  05:43:00       -0.814      -19.893        2.871        9.926       15.228       11.256       98.521      231.898      126.694        0.043        0.023       19.909        5.352        0.072      337.284        9.153      863.479
12/06/2014  05:44:00      -16.300       11.857       -1.865       20.072       33.826        9.416      402.887     1144.167       88.661        0.102        0.082       20.157       13.062        0.420      337.309        9.196      863.497
12/06/2014  05:45:00       24.659       63.357       -3.804       20.948       27.853       13.573      438.825      775.769      184.229        0.302        0.070       67.987       15.189        0.050      337.303        9.186      863.465
12/06/2014  05:46:00       67.094       40.041        5.483       14.499       14.296       10.486      210.222      204.376      109.960        0.333        0.026       78.134        6.284        0.006      337.166        8.957      863.414
12/06/2014  05:47:00       31.819       36.635       -6.583       19.725       28.377       12.353      389.070      805.254      152.594        0.187        0.067       48.524       13.734        0.080      337.061        8.780      863.367
12/06/2014  05:48:00       26.976      124.384      -29.648       15.696       27.008       12.101      246.359      729.417      146.440        0.910        0.056      127.276       13.630        0.011      337.221        9.048      863.363
12/06/2014  05:49:00      -37.702      114.419      -18.968       22.476       58.331       14.387      505.178     3402.503      206.992        0.949        0.206      120.470       18.490        0.024      337.365        9.290      863.356
12/06/2014  05:50:00      -77.958      -21.334      -15.220       20.435       27.637       14.727      417.597      763.808      216.886        0.408        0.070       80.825        9.272        0.013      337.046        8.755      863.397
12/06/2014  05:51:00      -82.872      -34.463      -13.798       15.716       14.319       12.568      246.991      205.026      157.967        0.443        0.030       89.752        7.134        0.006      336.880        8.479      863.470
12/06/2014  05:52:00      -69.928      -28.688       -6.102       16.157       13.401        8.307      261.050      179.587       69.003        0.313        0.025       75.584        5.390        0.005      337.001        8.680      863.501
12/06/2014  05:53:00      -32.430      -22.736       -5.058       10.373       10.206        6.080      107.603      104.167       36.967        0.092        0.012       39.606        4.005        0.010      337.136        8.905      863.501
12/06/2014  05:54:00      -51.045      -22.841       -4.753       16.239        7.936        4.453      263.704       62.976       19.828        0.175        0.017       55.923        2.900        0.003      337.243        9.086      863.506
12/06/2014  05:55:00      -65.869      -50.984       -1.222       14.301       16.101       10.473      204.518      259.234      109.675        0.376        0.029       83.295        7.384        0.008      337.218        9.043      863.552
12/06/2014  05:56:00      -85.856      -65.683       -4.903       23.328       16.225       14.187      544.203      263.240      201.275        0.636        0.050      108.099       11.964        0.012      337.018        8.708      863.594
12/06/2014  05:57:00      -44.342      -50.374        6.795       43.580       21.784       22.815     1899.207      474.558      520.541        0.372        0.145       67.110       23.177        0.119      336.971        8.630      863.612
12/06/2014  05:58:00      -60.637      -62.257        4.847       60.534       40.593       31.797     3664.359     1647.762     1011.034        0.695        0.316       86.907       36.002        0.172      337.020        8.711      863.602
12/06/2014  05:59:00      -16.962       -6.750       11.868       34.008       41.509       30.489     1156.515     1722.988      929.568        0.214        0.190       18.255       29.717        2.650      336.975        8.636      863.534
12/06/2014  06:00:00       -0.138      104.433      126.888       36.788       62.317       33.981     1353.361     3883.415     1154.730        1.670        0.320      104.434       39.215        0.141      336.903        8.517      863.468
12/06/2014  06:01:00       24.501      109.730      121.669       44.553       47.802       26.626     1984.993     2285.069      708.963        1.621        0.249      112.432       31.447        0.078      337.014        8.700      863.441
12/06/2014  06:02:00       22.115       25.931       50.190       30.516       27.099       28.991      931.226      734.354      840.471        0.309        0.125       34.081       25.353        0.553      337.268        9.127      863.457
12/06/2014  06:03:00       28.419        5.252       14.066       50.229       42.602       31.776     2522.969     1814.923     1009.738        0.319        0.267       28.900       29.280        1.026      337.372        9.302      863.464
12/06/2014  06:04:00       33.139      129.825      -11.094       27.083       59.332       36.008      733.502     3520.340     1296.560        1.181        0.278      133.988       31.842        0.056      337.092        8.832      863.470
12/06/2014  06:05:00       19.648        5.269       13.161       40.317       25.058       20.822     1625.465      627.906      433.550        0.164        0.134       20.342       11.406        0.314      337.207        9.025      863.548
12/06/2014  06:06:00      -78.152       -4.979       -9.096       37.214       21.127       17.209     1384.917      446.356      296.138        0.417        0.106       78.310       16.211        0.043      336.979        8.644      863.646
12/06/2014  06:07:00     -252.274       21.841      -30.747       83.240       39.686       28.098     6928.880     1575.003      789.502        3.718        0.465      253.217       37.479        0.022      336.749        8.257      863.702
12/06/2014  06:08:00     -247.832       58.177      -26.208       58.818       36.152       28.921     3459.559     1306.938      836.405        3.555        0.280      254.569       30.675        0.015      336.697        8.171      863.741
12/06/2014  06:09:00     -106.848       45.274      -11.058       42.015       34.056       23.439     1765.237     1159.814      549.366        0.853        0.174      116.044       14.549        0.016      336.841        8.413      863.765
12/06/2014  06:10:00      -76.647       60.022      -13.578       26.803       31.982       19.939      718.426     1022.834      397.570        0.590        0.107       97.352       11.333        0.014      337.051        8.765      863.787
12/06/2014  06:11:00      -27.908       99.113       -8.941       30.489       25.326       20.392      929.568      641.421      415.854        0.633        0.099      102.967       15.697        0.023      337.810       10.036      863.800
12/06/2014  06:12:00       -2.286      150.323      -17.000       24.020       25.446       11.947      576.968      647.517      142.722        1.213        0.068      150.340       10.167        0.005      337.885       10.162      863.824
12/06/2014  06:13:00      -16.225      119.370      -14.146       20.687       19.016       11.829      427.947      361.598      139.932        0.782        0.046      120.468        7.578        0.004      337.852       10.105      863.837
12/06/2014  06:14:00      -20.294      118.114      -15.544       32.120       47.446       18.767     1031.725     2251.141      352.183        0.912        0.182      119.845       21.607        0.033      337.823       10.056      863.846
12/06/2014  06:15:00      -55.441       26.165       -8.885       26.049       38.162       14.903      678.533     1456.371      222.086        0.310        0.118       61.306       13.705        0.050      337.363        9.287      863.843
12/06/2014  06:16:00     -129.079      -22.926      -10.603       37.272       23.446       20.436     1389.234      549.732      417.613        0.983        0.118      131.099       19.358        0.022      336.838        8.409      863.847
12/06/2014  06:17:00     -101.759      -14.873       -9.422       40.309       27.556       20.905     1624.793      759.316      437.038        0.674        0.141      102.840       20.338        0.039      336.816        8.373      863.878
12/06/2014  06:18:00      -69.996      -42.659        3.579       40.990       20.345       14.959     1680.205      413.930      223.785        0.452        0.116       81.971       13.858        0.029      336.847        8.422      863.905
12/06/2014  06:19:00     -136.023      -11.648      -11.449       32.838       19.304       15.551     1078.330      372.641      241.835        1.023        0.085      136.521       18.145        0.018      336.823        8.384      863.918
12/06/2014  06:20:00     -131.067       27.219      -11.620       24.625       22.148       19.421      606.399      490.543      377.193        0.976        0.074      133.863       16.291        0.015      336.801        8.347      863.876
12/06/2014  06:21:00     -138.475       59.766      -17.718       50.142       23.040       24.538     2514.181      530.822      602.100        1.335        0.182      150.822       17.641        0.014      337.097        8.840      863.806
12/06/2014  06:22:00     -120.871       43.083      -26.232       40.156       35.298       20.514     1612.511     1245.923      420.830        1.022        0.164      128.320       12.915        0.010      337.133        8.902      863.748
12/06/2014  06:23:00      -82.631        7.019      -18.513       31.598       35.708       17.834      998.421     1275.030      318.050        0.491        0.130       82.929       14.389        0.030      336.949        8.593      863.741
12/06/2014  06:24:00     -175.781       -7.966      -25.318       33.645       41.555       26.298     1131.964     1726.826      691.579        1.758        0.178      175.961       20.558        0.014      336.898        8.507      863.800
12/06/2014  06:25:00     -193.615      -38.137      -18.017       36.089       35.409       18.555     1302.395     1253.764      344.289        2.108        0.145      197.336       19.705        0.010      336.827        8.389      863.880
12/06/2014  06:26:00     -105.317      -16.996       -4.827       47.132       33.786       22.679     2221.403     1141.488      514.329        0.764        0.194      106.679       20.705        0.038      336.801        8.348      863.950
12/06/2014  06:27:00     -175.046       19.789      -16.768       40.567       42.680       23.352     1645.683     1821.590      545.325        1.766        0.201      176.161       17.017        0.009      336.921        8.545      863.989
12/06/2014  06:28:00     -144.484       46.502      -16.340       45.997       47.230       29.254     2115.732     2230.631      855.809        1.425        0.260      151.783       27.323        0.032      337.009        8.693      863.998
12/06/2014  06:29:00     -153.562       47.303      -15.973       47.737       37.244       20.690     2278.833     1387.084      428.073        1.508        0.205      160.682       16.461        0.010      336.955        8.602      864.015
12/06/2014  06:30:00     -105.336       45.009       -9.663       44.520       45.778       25.120     1982.063     2095.604      631.034        0.896        0.235      114.549       19.405        0.029      336.935        8.570      864.041
12/06/2014  06:31:00      -55.068      -25.647        2.091       55.219       39.568       29.100     3049.130     1565.636      846.837        0.458        0.273       60.747       27.523        0.205      336.889        8.492      864.082
12/06/2014  06:32:00      -52.660      -30.333        0.442       50.152       39.100       23.686     2515.247     1528.780      561.032        0.415        0.230       60.771       24.410        0.161      336.856        8.437      864.117
12/06/2014  06:33:00     -114.158       -7.107      -13.029       35.048       32.328       23.449     1228.397     1045.098      549.873        0.804        0.141      114.379        7.728        0.005      336.763        8.284      864.132
12/06/2014  06:34:00     -137.804        6.245      -16.605       22.512       27.580       15.575      506.774      760.645      242.584        1.041        0.076      137.945        8.235        0.004      336.790        8.328      864.129
12/06/2014  06:35:00      -81.315      -45.653      -12.748       28.490       38.621       19.821      811.652     1491.604      392.885        0.578        0.135       93.254        8.948        0.009      336.840        8.411      864.142
12/06/2014  06:36:00      -90.377      -41.726      -11.208       27.014       15.927       15.773      729.771      253.673      248.793        0.563        0.062       99.544        8.203        0.007      336.878        8.473      864.148
12/06/2014  06:37:00      -46.872        3.575       -9.479       39.552       53.960       26.846     1564.374     2911.634      720.695        0.375        0.260       47.008       18.684        0.158      336.993        8.667      864.139
12/06/2014  06:38:00      -39.275       33.754       -5.466       24.171       28.762       16.017      584.237      827.261      256.552        0.219        0.083       51.787       13.600        0.069      337.071        8.796      864.119
12/06/2014  06:39:00       -6.295       64.644      -10.387       25.325       16.579       15.535      641.343      274.875      241.342        0.274        0.058       64.950       11.112        0.029      336.977        8.640      864.077
12/06/2014  06:40:00       -7.991       57.629      -10.190       25.053       20.590       11.843      627.655      423.929      140.246        0.234        0.060       58.180       10.502        0.033      337.061        8.780      864.091
12/06/2014  06:41:00      -10.136       44.217       -9.138       14.096       15.672       11.262      198.686      245.606      126.836        0.136        0.029       45.364       10.376        0.052      337.080        8.813      864.152
12/06/2014  06:42:00      -49.696       -7.595       -4.478       15.467       19.265       10.113      239.225      371.142      102.264        0.163        0.036       50.273        6.923        0.019      336.912        8.530      864.178
12/06/2014  06:43:00      -83.154      -16.737      -13.491        7.904       10.835        7.067       62.466      117.390       49.937        0.380        0.011       84.822        3.777        0.002      336.786        8.320      864.192
12/06/2014  06:44:00      -89.849      -51.330       -5.502       16.141       16.997       11.836      260.534      288.903      140.093        0.571        0.034      103.477        4.586        0.002      336.735        8.236      864.213
12/06/2014  06:45:00      -89.934      -52.249       -4.646       27.596       14.977        9.326      761.524      224.301       86.979        0.596        0.054      104.010        3.996        0.001      336.736        8.239      864.259
12/06/2014  06:46:00     -115.428      -57.248      -13.217       20.157       22.196       11.724      406.301      492.653      137.447        0.891        0.052      128.845        7.820        0.004      336.719        8.212      864.309
12/06/2014  06:47:00     -118.084      -36.692       -9.518       24.376       19.989       12.728      594.210      399.542      162.011        0.827        0.058      123.653        9.004        0.005      336.743        8.251      864.311
12/06/2014  06:48:00     -101.147      -57.118       -4.401       27.968       26.182       14.449      782.201      685.488      208.771        0.759        0.084      116.160       12.524        0.012      336.741        8.247      864.297
12/06/2014  06:49:00     -120.560      -75.298       -1.681       38.255       33.039       25.318     1463.420     1091.551      640.988        1.170        0.160      142.143       22.775        0.026      336.755        8.270      864.296
12/06/2014  06:50:00      -85.692      -31.836       -4.229       55.740       46.072       21.933     3106.995     2122.633      481.053        0.704        0.286       91.415       18.977        0.043      336.665        8.121      864.297
12/06/2014  06:51:00      -55.194      -34.554        0.408       36.594       34.160       22.404     1339.089     1166.881      501.951        0.362        0.150       65.118       21.016        0.104      336.588        7.992      864.287
12/06/2014  06:52:00      -47.638       -9.747       -2.107       23.044       25.381       17.075      531.018      644.186      291.561        0.192        0.073       48.625       15.521        0.102      336.597        8.006      864.270
12/06/2014  06:53:00      -20.485      -22.229        5.447       24.139       15.166       11.382      582.703      230.003      129.546        0.094        0.047       30.228       15.058        0.248      336.722        8.216      864.235
12/06/2014  06:54:00       19.717       18.120        5.296       20.735        8.362        7.946      429.929       69.928       63.133        0.065        0.028       26.778        2.500        0.009      336.965        8.620      864.201
12/06/2014  06:55:00       14.170       19.707       -3.469       11.935        9.361        5.197      142.448       87.623       27.010        0.043        0.013       24.273        5.468        0.051      337.194        9.005      864.204
12/06/2014  06:56:00      -17.087       20.230       -2.066       16.204       10.306        5.832      262.556      106.218       34.014        0.055        0.020       26.481        2.447        0.009      337.299        9.179      864.211
12/06/2014  06:57:00      -20.646        4.837       -2.309       15.559        5.264        7.821      242.084       27.711       61.167        0.039        0.017       21.205        9.917        0.219      336.936        8.571      864.193
12/06/2014  06:58:00       61.262       35.859       17.281       23.059       13.868       14.106      531.716      192.327      198.976        0.313        0.046       70.985        7.472        0.011      336.938        8.576      864.158
12/06/2014  06:59:00       42.466       39.016       23.870       34.417       18.318       17.916     1184.520      335.548      320.978        0.287        0.092       57.668       12.679        0.048      337.018        8.708      864.148
12/06/2014  07:00:00       11.162       22.160       32.406       21.322       22.590       18.193      454.625      510.301      330.976        0.148        0.065       24.813       14.854        0.358      336.823        8.383      864.167
12/06/2014  07:01:00       -9.749      -23.338       -0.925       21.098       17.228       12.814      445.135      296.807      164.202        0.077        0.045       25.292       13.273        0.275      336.792        8.330      864.186
12/06/2014  07:02:00      -47.848      -35.922      -11.677       13.048       13.570       10.925      170.257      184.132      119.366        0.209        0.024       59.832        8.831        0.022      336.554        7.935      864.210
12/06/2014  07:03:00      -78.392      -18.552      -13.242        7.721       11.580        6.715       59.620      134.106       45.094        0.345        0.012       80.557        6.597        0.007      336.474        7.800      864.231
12/06/2014  07:04:00     -125.000       -6.525      -19.016       27.863        9.242       10.310      776.372       85.417      106.286        0.850        0.048      125.171       11.273        0.008      336.294        7.500      864.236
12/06/2014  07:05:00     -162.836        5.969      -21.118       27.995       21.410       20.680      783.710      458.383      427.681        1.433        0.083      162.946       15.889        0.010      336.367        7.621      864.219
12/06/2014  07:06:00     -164.863       34.087      -21.261       40.489       35.466       27.373     1639.369     1257.826      749.281        1.622        0.182      168.350       15.565        0.009      336.526        7.887      864.221
12/06/2014  07:07:00     -191.259       41.297      -16.255       38.718       25.527       22.242     1499.091      651.638      494.695        2.060        0.132      195.666       13.562        0.005      336.608        8.024      864.250
12/06/2014  07:08:00     -206.340       31.769      -21.828       40.077       30.635       20.144     1606.186      938.476      405.769        2.351        0.148      208.771       21.865        0.011      336.591        7.995      864.283
12/06/2014  07:09:00     -176.811      -12.361      -16.669       51.136       31.069       27.134     2614.892      965.308      736.264        1.800        0.216      177.242       22.056        0.015      336.554        7.933      864.299
12/06/2014  07:10:00     -213.330        7.215      -21.645       44.939       30.387       21.019     2019.490      923.379      441.819        2.471        0.169      213.452       15.415        0.005      336.650        8.092      864.313
12/06/2014  07:11:00     -146.382       32.124      -17.357       42.326       41.353       25.451     1791.457     1710.056      647.751        1.345        0.207      149.865       21.203        0.020      336.709        8.194      864.304
12/06/2014  07:12:00     -135.404       52.979       -6.999       53.827       35.296       41.039     2897.366     1245.818     1684.167        1.351        0.291      145.400       31.104        0.046      336.947        8.590      864.303
12/06/2014  07:13:00     -207.576       67.558      -15.456       66.203       35.749       33.858     4382.804     1277.965     1146.393        2.735        0.340      218.293       30.569        0.020      336.876        8.467      864.311
12/06/2014  07:14:00     -134.143       -1.092      -12.032       66.858       46.937       28.425     4470.009     2203.050      808.003        1.281        0.374      134.147       27.308        0.041      336.566        7.955      864.334
12/06/2014  07:15:00     -134.226      -29.941       -8.237       37.585       53.401       27.524     1412.610     2851.689      757.552        1.200        0.251      137.525       16.850        0.015      336.489        7.823      864.359
12/06/2014  07:16:00     -143.520      -37.763      -11.408       54.391       55.725       30.261     2958.374     3105.331      915.707        1.457        0.349      148.405       27.510        0.034      336.463        7.780      864.384
12/06/2014  07:17:00     -239.631      -34.533      -28.012       39.976       38.751       27.809     1598.083     1501.677      773.349        3.164        0.194      242.106       23.787        0.010      336.417        7.699      864.396
12/06/2014  07:18:00     -176.751      -27.600      -16.660       50.374       54.722       31.055     2537.520     2994.529      964.407        1.939        0.325      178.893       26.206        0.021      336.324        7.547      864.400
12/06/2014  07:19:00     -242.408      -21.091      -28.990       37.703       41.461       26.197     1421.543     1719.040      686.274        3.194        0.191      243.324       23.254        0.009      336.383        7.643      864.427
12/06/2014  07:20:00     -183.173       -8.282      -21.386       44.124       47.156       22.671     1946.959     2223.662      513.996        1.938        0.234      183.360       19.813        0.012      336.432        7.729      864.452
12/06/2014  07:21:00     -199.394       25.528      -30.532       65.283       43.882       30.235     4261.844     1925.630      914.154        2.422        0.355      201.022       35.042        0.030      336.520        7.874      864.465
12/06/2014  07:22:00      -77.547       92.253      -10.948       44.217       52.353       22.458     1955.186     2740.796      504.378        0.992        0.260      120.516       14.535        0.015      336.908        8.526      864.411
12/06/2014  07:23:00        4.382      127.208       -2.320       30.313       77.781       25.978      918.867     6049.853      674.831        1.192        0.382      127.283       38.068        0.089      337.096        8.840      864.362
12/06/2014  07:24:00       38.719       73.895       -1.039       23.840       71.910       29.219      568.369     5171.083      853.775        0.678        0.330       83.425       36.022        0.186      336.953        8.601      864.385
12/06/2014  07:25:00       43.706       26.842       -0.991       30.690       22.645       28.878      941.871      512.810      833.914        0.246        0.114       51.291       24.222        0.223      336.916        8.538      864.398
12/06/2014  07:26:00       32.873       32.231       43.450       37.289       27.814       23.459     1390.505      773.592      550.338        0.336        0.136       46.038       23.585        0.262      336.775        8.304      864.428
12/06/2014  07:27:00       37.910       -4.138       28.880       27.625       27.597       19.497      763.138      761.570      380.138        0.210        0.095       38.135       17.545        0.212      336.853        8.433      864.485
12/06/2014  07:28:00       12.678       -6.009       22.846       22.144       39.672       25.760      490.353     1573.888      663.584        0.172        0.136       14.030       25.010        3.178      336.994        8.669      864.524
12/06/2014  07:29:00       15.080      105.705      101.227       41.110       38.326       32.732     1690.049     1468.871     1071.404        1.294        0.212      106.776       26.376        0.061      336.844        8.417      864.521
12/06/2014  07:30:00       72.962      145.138       97.413       53.798       40.132       42.649     2894.251     1610.595     1818.965        2.110        0.316      162.446       36.372        0.050      336.810        8.360      864.514
12/06/2014  07:31:00       79.625       61.259       49.263       55.659       65.601       61.864     3097.922     4303.536     3827.206        1.187        0.561      100.462       58.203        0.336      336.756        8.271      864.524
12/06/2014  07:32:00       62.659       15.814        5.398       28.497       28.579       22.250      812.081      816.753      495.059        0.316        0.106       64.624       16.690        0.067      336.754        8.270      864.521
12/06/2014  07:33:00       41.571       36.234        6.652       28.071       23.165       18.718      788.000      536.633      350.371        0.238        0.084       55.146       10.250        0.035      336.754        8.269      864.523
12/06/2014  07:34:00       29.739       18.982       15.115       31.687       17.721       19.931     1004.084      314.036      397.252        0.159        0.086       35.281       13.230        0.141      336.822        8.383      864.530
12/06/2014  07:35:00      -33.084       26.103      -16.987       35.669       26.668       13.086     1272.247      711.165      171.247        0.211        0.108       42.141       12.419        0.087      336.874        8.469      864.573
12/06/2014  07:36:00      -63.464      -14.755      -10.224       12.700        8.700        8.180      161.284       75.698       66.910        0.233        0.015       65.156        4.561        0.005      336.794        8.338      864.624
12/06/2014  07:37:00      -49.716      -23.991      -12.613       13.862        9.581        8.218      192.154       91.802       67.531        0.178        0.018       55.202        7.063        0.016      336.862        8.450      864.649
12/06/2014  07:38:00      -77.818      -19.530       -6.946       24.971       18.601       15.108      623.550      345.980      228.257        0.384        0.060       80.231       16.526        0.042      336.820        8.379      864.649
12/06/2014  07:39:00      -65.315      -32.571       -5.751       23.333       17.703       11.348      544.429      313.396      128.766        0.317        0.049       72.985       10.548        0.021      336.897        8.505      864.661
12/06/2014  07:40:00      -79.311      -39.072        0.866       33.542       28.226       15.830     1125.051      796.684      250.597        0.499        0.109       88.413       15.163        0.029      336.937        8.573      864.666
12/06/2014  07:41:00      -89.477      -40.928       -3.531       28.781       23.368       12.895      828.332      546.060      166.269        0.562        0.077       98.393        9.134        0.009      337.060        8.777      864.667
12/06/2014  07:42:00      -60.259      -27.077       -7.055       16.894       17.766        8.007      285.414      315.641       64.109        0.254        0.033       66.063        6.781        0.011      337.119        8.877      864.641
12/06/2014  07:43:00       -9.090        4.374        5.200       13.895       10.185        7.953      193.073      103.729       63.246        0.024        0.018       10.088        8.895        0.778      337.184        8.986      864.624
12/06/2014  07:44:00       42.572       10.102        5.730       20.951       25.982       16.967      438.962      675.066      287.868        0.167        0.070       43.755       11.635        0.071      337.343        9.253      864.621
12/06/2014  07:45:00       33.529       15.150       -5.024       19.295       15.046       13.051      372.307      226.372      170.332        0.107        0.038       36.793        9.931        0.073      337.339        9.246      864.656
12/06/2014  07:46:00       -0.857       27.922       -4.195       17.946       15.395        8.216      322.044      237.008       67.501        0.071        0.031       27.935        5.209        0.035      337.364        9.286      864.685
12/06/2014  07:47:00      -10.033      134.692      -15.332       19.776       47.345       17.062      391.071     2241.518      291.097        1.070        0.146      135.065       24.945        0.034      337.414        9.373      864.689
12/06/2014  07:48:00      -35.485      185.751      -21.629       31.723       40.612       22.699     1006.360     1649.352      515.243        1.970        0.159      189.110       23.767        0.016      337.628        9.731      864.664
12/06/2014  07:49:00        2.378      216.100      -31.993       25.972       31.520       15.593      674.534      993.524      243.140        2.482        0.096      216.113       11.712        0.003      337.599        9.679      864.657
12/06/2014  07:50:00      -12.526      185.141      -25.325       18.806       28.976       11.876      353.668      839.614      141.034        1.820        0.067      185.564        5.967        0.001      337.602        9.687      864.672
12/06/2014  07:51:00      -14.449      144.349      -18.990       47.293       48.805       28.351     2236.608     2381.886      803.758        1.341        0.271      145.071       31.013        0.046      337.770        9.969      864.696
12/06/2014  07:52:00       67.803      105.745        8.943       62.242       55.202       38.736     3874.017     3047.237     1500.488        1.214        0.421      125.616       31.353        0.062      337.677        9.812      864.690
12/06/2014  07:53:00       98.486      126.005       -7.743       81.596       62.342       47.143     6657.907     3886.483     2222.456        1.920        0.638      159.927       37.020        0.054      337.827       10.062      864.637
12/06/2014  07:54:00      173.478      122.301       17.546       57.668       50.323       47.318     3325.656     2532.402     2238.956        2.673        0.405      212.255       29.753        0.020      337.757        9.943      864.591
12/06/2014  07:55:00      122.606      101.529       16.605       87.406       56.218       49.923     7639.867     3160.431     2492.284        1.945        0.665      159.186       35.902        0.051      337.852       10.104      864.586
12/06/2014  07:56:00      165.658      111.025       20.846       44.246       33.517       37.274     1957.669     1123.401     1389.330        2.234        0.224      199.421       22.447        0.013      337.855       10.109      864.620
12/06/2014  07:57:00       87.328       68.574       12.737       38.694       33.015       30.341     1497.260     1090.014      920.604        0.800        0.175      111.034       20.133        0.033      337.837       10.079      864.659
12/06/2014  07:58:00      103.951       71.195        8.333       55.884       42.540       31.918     3123.033     1809.645     1018.732        1.095        0.298      125.994       23.531        0.035      337.873       10.141      864.652
12/06/2014  07:59:00      116.057       84.453       -0.025       37.831       39.142       31.106     1431.181     1532.099      967.576        1.227        0.197      143.532       23.591        0.027      337.879       10.150      864.652
12/06/2014  08:00:00       40.682       51.280        4.989       37.426       36.757       26.734     1400.732     1351.081      714.728        0.389        0.173       65.458       24.380        0.139      337.900       10.186      864.679
12/06/2014  08:01:00        5.934       70.088       -2.777       28.827       36.417       22.651      831.022     1326.179      513.076        0.381        0.134       70.338       19.114        0.074      337.913       10.208      864.733
12/06/2014  08:02:00      -13.543       52.556      -11.650       20.810       47.881       17.482      433.056     2292.627      305.626        0.306        0.152       54.273       19.265        0.126      338.018       10.384      864.796
12/06/2014  08:03:00      -27.270       79.368       -3.113       24.383       33.188       20.489      594.542     1101.445      419.806        0.458        0.106       83.923       20.730        0.061      338.048       10.434      864.848
12/06/2014  08:04:00      -30.481       98.017      -12.395       36.422       29.033       15.083     1326.539      842.929      227.482        0.654        0.120      102.647       12.382        0.015      338.077       10.483      864.874
12/06/2014  08:05:00      -21.966      120.777      -10.989       15.593       47.574       25.416      243.152     2263.246      645.977        0.917        0.158      122.758       26.449        0.046      338.107       10.534      864.890
12/06/2014  08:06:00      -13.278       98.590      -11.915       19.336       24.351       15.846      373.876      592.949      251.105        0.563        0.061       99.480       11.781        0.014      338.143       10.595      864.923
12/06/2014  08:07:00      -25.470       56.766       -9.900       24.190       25.524       10.850      585.167      651.478      117.715        0.266        0.068       62.218        8.649        0.019      338.156       10.616      864.945
12/06/2014  08:08:00      -20.936       35.023       -0.519       27.360       37.872       15.766      748.549     1434.286      248.560        0.205        0.122       40.803       17.138        0.176      338.178       10.653      864.956
12/06/2014  08:09:00      -54.601      -15.130       -1.989       25.776       13.007       13.576      664.396      169.175      184.309        0.212        0.051       56.659        9.860        0.030      337.977       10.315      864.947
12/06/2014  08:10:00      -56.012      -14.968        1.825       28.654       22.319       15.809      821.044      498.139      249.910        0.247        0.078       57.978       14.789        0.065      337.951       10.270      864.933
12/06/2014  08:11:00      -18.593      -16.884        6.471       18.674       15.913       11.123      348.731      253.237      123.726        0.070        0.036       25.115        9.014        0.129      338.005       10.362      864.947
12/06/2014  08:12:00      -62.144      -15.393       -7.652       15.802       13.451        6.923      249.709      180.918       47.930        0.232        0.024       64.022        5.494        0.007      337.975       10.313      864.979
12/06/2014  08:13:00      -43.326      -22.608        1.038       27.126       20.196       15.458      735.806      407.874      238.937        0.189        0.069       48.870       10.104        0.043      338.061       10.458      865.025
12/06/2014  08:14:00      -53.998      -33.821       -6.381       19.966       13.428       10.982      398.625      180.299      120.610        0.240        0.035       63.715        6.399        0.010      338.034       10.413      865.055
12/06/2014  08:15:00      -61.584      -35.405       -5.589       14.708       16.332        8.786      216.317      266.727       77.190        0.282        0.028       71.036        7.559        0.011      338.034       10.412      865.097
12/06/2014  08:16:00      -49.055      -34.444        2.981       22.694       18.803       14.537      515.019      353.534      211.331        0.234        0.054       59.940       12.083        0.041      338.124       10.563      865.149
12/06/2014  08:17:00      -47.357      -51.492       -6.485       31.269       18.917       12.208      977.720      357.845      149.040        0.321        0.074       69.958        8.194        0.014      338.248       10.769      865.192
12/06/2014  08:18:00        1.709      -16.853      -11.269       16.014       39.763        7.932      256.448     1581.082       62.910        0.116        0.095       16.939        6.157        0.132      338.396       11.018      865.207
12/06/2014  08:19:00       16.855       22.567       -3.232       16.192       20.569       14.829      262.167      423.065      219.900        0.085        0.045       28.166        8.455        0.090      338.480       11.161      865.216
12/06/2014  08:20:00       69.727       39.576       25.915       40.158       18.124       29.777     1612.651      328.489      886.657        0.496        0.141       80.175       24.881        0.096      338.480       11.161      865.230
12/06/2014  08:21:00       50.307       19.616        5.333       25.619       22.230       20.732      656.347      494.176      429.819        0.226        0.079       53.996       17.007        0.099      338.491       11.179      865.223
12/06/2014  08:22:00       87.634       50.057        9.223       20.651       15.818       19.636      426.465      250.210      385.554        0.567        0.053      100.922       12.585        0.016      338.421       11.062      865.233
12/06/2014  08:23:00       64.402       51.411        8.962       29.924       14.591       19.743      895.466      212.898      389.772        0.418        0.075       82.406       18.846        0.052      338.444       11.098      865.240
12/06/2014  08:24:00       16.968       56.586       53.962       22.806       24.306       20.609      520.098      590.775      424.750        0.397        0.077       59.075       13.878        0.055      338.541       11.262      865.266
12/06/2014  08:25:00       57.699       55.715       39.166       33.043       17.093       28.382     1091.814      292.182      805.523        0.508        0.109       80.208       23.040        0.083      338.514       11.218      865.284
12/06/2014  08:26:00       76.451       34.955       44.293       29.336       28.978       25.311      860.612      839.720      640.638        0.568        0.117       84.063       16.718        0.040      338.554       11.284      865.304
12/06/2014  08:27:00       50.451       44.561       28.364       33.731       23.137       30.671     1137.781      535.335      940.741        0.397        0.131       67.312       24.597        0.134      338.578       11.323      865.330
12/06/2014  08:28:00       55.440       59.763       17.218       33.995       21.761       31.563     1155.635      473.536      996.240        0.478        0.131       81.518       22.039        0.073      338.553       11.282      865.354
12/06/2014  08:29:00       97.618       63.912        9.293       31.543       30.165       20.571      994.972      909.906      423.161        0.801        0.116      116.679       10.146        0.008      338.527       11.240      865.382
12/06/2014  08:30:00       91.160       67.818        6.501       29.107       24.143       26.741      847.237      582.887      715.100        0.755        0.107      113.620       13.097        0.013      338.495       11.184      865.400
12/06/2014  08:31:00       89.197       61.378       13.360       31.140       22.375       23.942      969.706      500.636      573.234        0.697        0.102      108.274        8.498        0.006      338.487       11.171      865.426
12/06/2014  08:32:00      113.362       83.299        5.981       38.653       40.338       33.973     1494.056     1627.130     1154.194        1.205        0.214      140.676       24.159        0.029      338.428       11.073      865.418
12/06/2014  08:33:00       82.334       67.146       52.734       68.714       52.908       44.631     4721.563     2799.269     1991.903        1.179        0.476      106.242       37.888        0.127      338.418       11.055      865.375
12/06/2014  08:34:00      159.961       88.098        7.938       39.844       37.195       29.828     1587.548     1383.448      889.708        1.864        0.193      182.617        7.920        0.002      338.303       10.861      865.373
12/06/2014  08:35:00      148.393       53.762       12.023       69.862       46.196       44.805     4880.740     2134.113     2007.510        1.704        0.451      157.832       30.606        0.038      338.248       10.769      865.373
12/06/2014  08:36:00       91.770       37.143       26.334       59.618       55.417       43.800     3554.312     3071.067     1918.416        0.952        0.427       99.002       34.938        0.125      338.271       10.809      865.395
12/06/2014  08:37:00       93.935       71.440       31.735       50.463       48.416       38.603     2546.547     2344.099     1490.192        1.066        0.319      118.015       35.134        0.089      338.307       10.870      865.432
12/06/2014  08:38:00       70.630       94.670       72.335       51.899       49.559       38.696     2693.504     2456.108     1497.382        1.291        0.332      118.114       28.806        0.059      338.313       10.880      865.457
12/06/2014  08:39:00      129.438      112.924       78.601       62.786       38.076       39.022     3942.031     1449.781     1522.683        2.130        0.346      171.773       28.835        0.028      338.221       10.724      865.471
12/06/2014  08:40:00      155.021       75.529       22.533       53.747       47.063       40.384     2888.691     2214.906     1630.898        1.849        0.337      172.442       24.660        0.020      338.234       10.745      865.482
12/06/2014  08:41:00      186.596      116.350       20.661       52.937       44.425       44.269     2802.370     1973.578     1959.730        2.776        0.337      219.899       31.227        0.020      338.011       10.370      865.498
12/06/2014  08:42:00      136.922      103.355       22.260       40.767       35.964       26.601     1661.985     1293.375      707.622        1.679        0.183      171.552       21.649        0.016      338.096       10.515      865.516
12/06/2014  08:43:00      106.814       87.100        3.587       55.146       37.421       35.898     3041.060     1400.343     1288.662        1.237        0.287      137.825       21.942        0.025      338.190       10.673      865.536
12/06/2014  08:44:00      115.997       75.798       25.273       46.450       41.090       35.937     2157.605     1688.420     1291.433        1.249        0.257      138.567       26.113        0.036      338.305       10.866      865.546
12/06/2014  08:45:00       69.851       48.202        9.634       61.850       46.589       32.977     3825.447     2170.574     1087.471        0.719        0.354       84.868       22.926        0.073      338.380       10.992      865.567
12/06/2014  08:46:00       89.554       46.880        9.826       44.320       36.063       27.190     1964.279     1300.520      739.317        0.716        0.200      101.082       18.552        0.034      338.426       11.069      865.583
12/06/2014  08:47:00       55.363       91.758        6.815       62.630       63.315       34.142     3922.520     4008.824     1165.675        1.031        0.455      107.166       26.613        0.062      338.514       11.218      865.586
12/06/2014  08:48:00       91.389       74.398       13.656       40.833       47.592       30.867     1667.302     2265.008      952.802        0.948        0.244      117.843       25.925        0.048      338.552       11.281      865.589
12/06/2014  08:49:00       67.580       42.067        2.731       37.616       25.587       25.824     1414.967      654.715      666.861        0.454        0.137       79.604       17.835        0.050      338.666       11.473      865.624
12/06/2014  08:50:00      125.558       68.000       11.409       50.231       28.544       23.322     2523.121      814.746      543.901        1.220        0.194      142.789        8.139        0.003      338.518       11.224      865.643
12/06/2014  08:51:00       72.409       28.285       15.666       49.957       37.374       22.728     2495.740     1396.844      516.580        0.535        0.220       77.737       16.241        0.044      338.666       11.472      865.681
12/06/2014  08:52:00       55.681       39.563       13.810       33.759       28.241       20.357     1139.695      797.571      414.423        0.360        0.118       68.305       12.309        0.032      338.644       11.435      865.709
12/06/2014  08:53:00       46.920       87.024      -10.045       30.192       45.035       27.235      911.563     2028.131      741.732        0.678        0.184       98.867       26.253        0.071      338.733       11.585      865.744
12/06/2014  08:54:00       28.758       65.660        1.886       34.229       44.429       26.823     1171.633     1973.952      719.465        0.450        0.193       71.682       25.139        0.123      338.841       11.766      865.752
12/06/2014  08:55:00       75.341       60.382       10.295       41.447       30.445       28.328     1717.820      926.890      802.482        0.644        0.172       96.551       20.711        0.046      338.837       11.761      865.758
12/06/2014  08:56:00       56.485       75.820       -9.893       29.232       32.091       23.400      854.484     1029.822      547.563        0.573        0.122       94.547       17.964        0.036      338.915       11.890      865.757
12/06/2014  08:57:00      113.032       69.168       17.262       50.800       33.284       32.232     2580.674     1107.807     1038.911        1.129        0.236      132.516       18.118        0.019      338.900       11.866      865.777
12/06/2014  08:58:00      150.797       83.761       17.401       62.938       51.023       41.592     3961.238     2603.357     1729.927        1.917        0.415      172.498       27.807        0.026      338.911       11.884      865.771
12/06/2014  08:59:00       98.082       59.491       23.887       62.901       51.754       42.462     3956.597     2678.436     1803.012        1.108        0.422      114.714       33.332        0.084      338.907       11.877      865.775
12/06/2014  09:00:00      114.877       76.161        9.284       58.988       47.838       45.823     3479.580     2288.518     2099.745        1.347        0.393      137.830       29.074        0.044      338.951       11.951      865.778
12/06/2014  09:01:00      101.893       81.795       12.167       62.089       34.874       23.070     3855.095     1216.215      532.228        1.141        0.280      130.662       25.558        0.038      338.970       11.983      865.786
12/06/2014  09:02:00       96.879       69.095       25.114       67.124       29.783       39.994     4505.588      887.050     1599.527        1.089        0.350      118.995       37.487        0.099      339.057       12.130      865.807
12/06/2014  09:03:00      118.693       81.501        5.208       62.568       57.209       31.431     3914.728     3272.827      987.923        1.446        0.409      143.980       17.722        0.015      339.018       12.063      865.822
12/06/2014  09:04:00      168.117      114.108       24.667       40.121       47.465       34.341     1609.734     2252.938     1179.270        2.347        0.252      203.184       22.300        0.012      338.993       12.020      865.841
12/06/2014  09:05:00       88.382       96.946       72.287       68.710       42.544       45.909     4721.004     1810.020     2107.674        1.554        0.432      131.187       44.876        0.117      339.248       12.450      865.829
12/06/2014  09:06:00      110.107      116.174      105.364      107.341       65.894       44.751    11522.005     4341.965     2002.668        2.729        0.893      160.062       35.815        0.050      339.204       12.375      865.820
12/06/2014  09:07:00      122.263      123.824      110.213       76.283       67.592       57.517     5819.079     4568.701     3308.226        2.806        0.685      174.013       43.999        0.064      338.791       11.680      865.824
12/06/2014  09:08:00      118.671      120.577       98.172       99.394       73.896       61.483     9879.116     5460.676     3780.166        2.869        0.956      169.179       53.076        0.098      338.873       11.818      865.844
12/06/2014  09:09:00      121.331      101.633      116.239      110.077       74.890       66.888    12116.986     5608.533     4473.943        3.038        1.110      158.273       62.187        0.154      338.876       11.821      865.842
12/06/2014  09:10:00      118.975      137.794       89.841       74.851       63.938       64.170     5602.658     4088.030     4117.794        2.751        0.690      182.050       50.772        0.078      338.916       11.891      865.860
12/06/2014  09:11:00      114.558       94.491       63.605       78.451       65.677       64.251     6154.569     4313.494     4128.246        2.034        0.730      148.500       56.877        0.147      339.036       12.094      865.848
12/06/2014  09:12:00      165.110      110.321       50.358      103.670       76.234       66.245    10747.463     5811.568     4388.453        3.145        1.047      198.575       31.901        0.026      338.987       12.011      865.840
12/06/2014  09:13:00      232.936      162.343       29.477       85.041       69.954       63.481     7231.945     4893.517     4029.800        4.882        0.808      283.927       35.299        0.015      338.777       11.656      865.794
12/06/2014  09:14:00      142.699       64.767       31.410       92.591       68.496       67.717     8573.168     4691.696     4585.525        2.169        0.893      156.709       36.999        0.056      338.854       11.785      865.763
12/06/2014  09:15:00      152.079      133.636       14.260       99.571       78.802       67.683     9914.294     6209.731     4580.935        3.094        1.035      202.451       59.707        0.087      338.833       11.750      865.772
12/06/2014  09:16:00      139.092      116.279        6.013       97.516       87.434       66.814     9509.336     7644.700     4464.159        2.726        1.081      181.294       53.009        0.085      338.866       11.808      865.786
12/06/2014  09:17:00      166.574      128.003       33.381      107.691       85.788       49.912    11597.350     7359.629     2491.210        3.334        1.072      210.075       26.759        0.016      338.841       11.765      865.802
12/06/2014  09:18:00      154.843       98.109        4.656      103.660       57.417       41.229    10745.298     3296.689     1699.821        2.468        0.787      183.307       24.061        0.017      338.914       11.887      865.837
12/06/2014  09:19:00      224.920      162.901       24.083       91.263       78.796       70.008     8328.865     6208.768     4901.158        4.857        0.972      277.716       43.942        0.025      338.699       11.524      865.860
12/06/2014  09:20:00      210.278      153.961       19.992       82.589       71.495       61.505     6820.966     5111.484     3782.905        4.201        0.786      260.616       40.989        0.025      338.675       11.485      865.884
12/06/2014  09:21:00      183.989      123.472       32.072      101.573       60.112       60.911    10317.066     3613.463     3710.170        3.388        0.882      221.579       27.838        0.016      338.704       11.533      865.910
12/06/2014  09:22:00      244.770      171.080       17.815       92.063       70.027       74.293     8475.644     4903.735     5519.461        5.419        0.945      298.631       50.963        0.029      338.670       11.475      865.939
12/06/2014  09:23:00      225.276      134.137       27.945       92.992       61.022       55.713     8647.515     3723.707     3103.944        4.250        0.774      262.187       29.487        0.013      338.657       11.456      865.977
12/06/2014  09:24:00      228.194      154.666       29.188       89.602       86.537       52.383     8028.589     7488.595     2744.012        4.755        0.913      275.670       39.325        0.020      338.700       11.528      866.020
12/06/2014  09:25:00      189.328      142.139       15.889      107.083       93.808       60.780    11466.739     8799.906     3694.225        4.013        1.198      236.745       44.426        0.035      338.733       11.581      866.058
12/06/2014  09:26:00      159.316      115.753        6.422       85.496       64.193       56.065     7309.553     4120.790     3143.306        2.669        0.729      196.928       38.030        0.037      338.766       11.639      866.093
12/06/2014  09:27:00      143.271       96.370       15.566       60.336       55.922       55.266     3640.437     3127.286     3054.375        1.994        0.491      172.667       28.414        0.027      338.890       11.847      866.105
12/06/2014  09:28:00      179.217      108.382       12.534       80.152       53.846       44.304     6424.419     2899.386     1962.880        2.765        0.564      209.440       32.484        0.024      338.870       11.813      866.118
12/06/2014  09:29:00      198.181      118.040       28.272       75.701       58.258       44.735     5730.646     3393.970     2001.185        3.256        0.556      230.671       33.213        0.021      338.883       11.834      866.126
12/06/2014  09:30:00      133.355       71.019       28.047       80.441       56.793       48.518     6470.804     3225.486     2354.040        1.783        0.603      151.087       20.614        0.019      338.962       11.969      866.121
12/06/2014  09:31:00      105.173      111.012        1.319       88.754       65.023       53.220     7877.256     4227.968     2832.405        1.916        0.747      152.922       42.016        0.075      338.933       11.919      866.136
12/06/2014  09:32:00      120.000       67.253        9.622       65.395       49.955       48.628     4276.564     2495.480     2364.642        1.407        0.457      137.560       32.600        0.056      338.941       11.935      866.153
12/06/2014  09:33:00      172.491      112.272       15.634       87.272       55.069       54.419     7616.348     3032.622     2961.375        2.810        0.681      205.811       35.159        0.029      338.911       11.882      866.156
12/06/2014  09:34:00      165.316      103.622       38.700       84.565       52.919       54.912     7151.261     2800.471     3015.346        2.626        0.648      195.107       44.759        0.053      338.944       11.938      866.162
12/06/2014  09:35:00      170.625       76.025       20.411       82.290       71.087       53.223     6771.722     5053.342     2832.723        2.498        0.733      186.796       34.451        0.034      338.984       12.005      866.171
12/06/2014  09:36:00      213.930      146.791       28.317       87.145       76.818       58.335     7594.335     5900.970     3403.027        4.250        0.845      259.449       37.114        0.020      338.911       11.883      866.169
12/06/2014  09:37:00      182.801      125.736       14.214       93.820       65.896       59.906     8802.184     4342.243     3588.735        3.308        0.837      221.868       34.284        0.024      338.961       11.966      866.157
12/06/2014  09:38:00      155.042       91.791       23.407       83.913       63.518       52.546     7041.440     4034.492     2761.063        2.342        0.692      180.176       29.879        0.028      339.106       12.208      866.147
12/06/2014  09:39:00      246.752      166.600       15.425       91.544       89.051       72.007     8380.242     7930.146     5185.045        5.518        1.075      297.728       47.045        0.025      338.949       11.946      866.148
12/06/2014  09:40:00      205.057      108.306       13.502       89.301       64.344       57.896     7974.588     4140.190     3351.917        3.471        0.773      231.902       34.444        0.022      339.045       12.108      866.172
12/06/2014  09:41:00      235.117      139.801       57.755       89.789       67.409       56.604     8062.148     4543.993     3203.969        4.698        0.791      273.540       42.889        0.025      338.996       12.024      866.191
12/06/2014  09:42:00      211.097      118.315       36.548       79.376       54.620       49.244     6300.562     2983.399     2424.948        3.580        0.585      241.993       40.858        0.029      339.020       12.064      866.203
12/06/2014  09:43:00      116.136       47.043       49.669       92.856       53.001       47.502     8622.218     2809.082     2256.447        1.593        0.684      125.302       33.079        0.070      339.240       12.436      866.202
12/06/2014  09:44:00       91.528       65.219       61.131       58.802       61.724       44.603     3457.620     3809.897     1989.465        1.281        0.463      112.388       35.575        0.100      339.360       12.639      866.191
12/06/2014  09:45:00      179.554      104.142       52.694       77.421       65.602       63.761     5994.027     4303.661     4065.529        3.011        0.718      207.569       41.211        0.039      339.185       12.342      866.203
12/06/2014  09:46:00      131.727       90.181       45.225      125.405       76.084       64.890    15726.360     5788.786     4210.734        2.662        1.286      159.639       52.459        0.108      339.332       12.592      866.242
12/06/2014  09:47:00      242.577      132.680       44.815       71.997       56.625       50.554     5183.621     3206.338     2555.702        4.470        0.547      276.491       24.005        0.008      339.061       12.134      866.252
12/06/2014  09:48:00      151.538      105.448       37.858       72.257       49.036       46.332     5221.013     2404.569     2146.699        2.264        0.489      184.616       20.501        0.012      339.172       12.322      866.256
12/06/2014  09:49:00      235.472      133.487       22.606       72.301       59.651       44.650     5227.463     3558.258     1993.614        4.228        0.539      270.676       31.995        0.014      339.142       12.269      866.238
12/06/2014  09:50:00      175.544      113.605       73.213       88.114       66.522       60.679     7764.119     4425.148     3681.966        3.247        0.794      209.098       45.080        0.046      339.181       12.338      866.210
12/06/2014  09:51:00      123.930       96.588       97.784       90.834       81.727       62.746     8250.777     6679.252     3937.015        2.655        0.943      157.124       51.497        0.107      339.224       12.410      866.206
12/06/2014  09:52:00      151.900       92.954       56.299      115.565       72.224       62.019    13355.216     5216.323     3846.367        2.865        1.121      178.084       52.700        0.088      339.272       12.490      866.224
12/06/2014  09:53:00      118.735      101.342       66.976      122.621       64.534       70.738    15035.944     4164.618     5003.887        2.652        1.210      156.103       80.144        0.264      339.207       12.381      866.233
12/06/2014  09:54:00      121.036      127.521      120.771      110.822       75.397       65.745    12281.614     5684.735     4322.423        3.389        1.114      175.816       53.131        0.091      339.317       12.565      866.237
12/06/2014  09:55:00      165.721      124.987      104.964       87.778       77.919       68.313     7704.995     6071.339     4666.634        3.627        0.922      207.569       44.674        0.046      339.200       12.366      866.238
12/06/2014  09:56:00      227.773      135.342       48.363       83.782       65.178       54.356     7019.381     4248.213     2954.614        4.338        0.711      264.949       29.580        0.012      339.172       12.319      866.237
12/06/2014  09:57:00      243.755      122.161       50.871       85.034       75.077       69.303     7230.760     5636.607     4802.952        4.730        0.884      272.653       41.068        0.023      339.153       12.287      866.239
12/06/2014  09:58:00      126.128       83.835      100.734       89.830       74.766       59.326     8069.426     5589.934     3519.551        2.513        0.859      151.448       42.185        0.078      339.287       12.516      866.249
12/06/2014  09:59:00      165.978       93.225       42.365       63.751       69.071       57.046     4064.167     4770.776     3254.206        2.506        0.604      190.367       25.645        0.018      339.106       12.210      866.269
12/06/2014  10:00:00      102.627       84.423       50.065      106.791       53.609       72.219    11404.271     2873.970     5215.529        1.983        0.975      132.889       60.326        0.206      339.253       12.459      866.266
12/06/2014  10:01:00      106.802       57.490       43.731       84.061       60.979       35.597     7066.173     3718.445     1267.163        1.434        0.603      121.292       31.403        0.067      339.301       12.540      866.259
12/06/2014  10:02:00       74.128      102.508      104.883       93.030       63.588       61.815     8654.584     4043.495     3821.108        2.176        0.826      126.502       61.752        0.238      339.377       12.666      866.211
12/06/2014  10:03:00      212.871      129.507       30.537       53.142       49.633       58.715     2824.050     2463.392     3447.503        3.588        0.437      249.171       31.488        0.016      339.326       12.578      866.214
12/06/2014  10:04:00      176.602      117.452       23.524       52.776       42.828       46.214     2785.293     1834.232     2135.727        2.614        0.338      212.093       34.029        0.026      339.096       12.193      866.227
12/06/2014  10:05:00      123.554       87.716       47.664       73.249       58.714       42.288     5365.450     3447.302     1788.314        1.791        0.530      151.525       24.895        0.027      339.429       12.754      866.241
12/06/2014  10:06:00      141.435      107.910       99.146       87.558       88.823       76.678     7666.482     7889.498     5879.452        3.145        1.072      177.900       62.864        0.125      339.312       12.555      866.267
12/06/2014  10:07:00      168.983      114.395       34.111       72.417       57.600       66.956     5244.217     3317.742     4483.104        2.792        0.652      204.062       39.519        0.038      339.216       12.394      866.319
12/06/2014  10:08:00      215.258       84.186       14.446      100.041       56.307       55.463    10008.218     3170.455     3076.159        3.494        0.813      231.135       42.376        0.034      339.264       12.475      866.348
12/06/2014  10:09:00      158.754       68.780      107.853      120.805       98.134       66.517    14593.900     9630.272     4424.546        3.510        1.432      173.013       73.413        0.180      339.441       12.774      866.359
12/06/2014  10:10:00      130.730       85.182      110.113      108.958       85.464       62.086    11871.860     7304.117     3854.655        2.975        1.152      156.033       55.895        0.128      339.373       12.661      866.383
12/06/2014  10:11:00       72.307       70.796       88.614       88.735       64.687       58.728     7873.871     4184.402     3448.981        1.680        0.775      101.195       58.704        0.337      339.531       12.928      866.404
12/06/2014  10:12:00      108.129      120.717       54.275       76.423       57.862       70.482     5840.431     3347.984     4967.720        2.168        0.708      162.063       58.673        0.131      339.351       12.623      866.408
12/06/2014  10:13:00      168.120      112.173       71.203       76.210       65.791       68.753     5807.910     4328.496     4726.943        3.039        0.743      202.107       48.030        0.056      339.395       12.696      866.398
12/06/2014  10:14:00      165.004      115.019       29.439       91.346       76.594       80.034     8344.020     5866.655     6405.484        3.097        1.031      201.136       56.781        0.080      339.291       12.521      866.377
12/06/2014  10:15:00      166.256       91.534       49.181       75.604       57.817       58.050     5715.913     3342.834     3369.782        2.543        0.621      189.788       27.684        0.021      339.415       12.730      866.350
12/06/2014  10:16:00      111.978       41.893       45.359       69.867       58.251       48.713     4881.349     3393.203     2372.957        1.350        0.532      119.558       23.740        0.039      339.535       12.934      866.333
12/06/2014  10:17:00       54.707       80.529       66.478       66.768       57.182       56.463     4458.003     3269.732     3188.037        1.240        0.546       97.354       36.849        0.143      339.776       13.342      866.315
12/06/2014  10:18:00       55.605      138.716      134.968       91.873       65.842       61.084     8440.655     4335.109     3731.228        2.853        0.825      149.446       57.960        0.150      339.717       13.241      866.279
12/06/2014  10:19:00      246.455      100.125        8.895       94.966       84.769       68.904     9018.489     7185.720     4747.713        4.589        1.048      266.017       50.409        0.036      339.344       12.611      866.259
12/06/2014  10:20:00       65.693       79.804       82.156      103.323       61.980       54.674    10675.639     3841.484     2989.226        1.747        0.875      103.364       58.862        0.324      339.502       12.879      866.263
12/06/2014  10:21:00       86.049       50.795       16.581       50.869       54.804       54.358     2587.686     3003.518     2954.808        0.940        0.427       99.923       38.563        0.149      339.667       13.158      866.271
12/06/2014  10:22:00       90.809        7.831       28.639       59.606       78.388       42.974     3552.846     6144.692     1846.776        1.033        0.577       91.146       49.128        0.291      339.562       12.979      866.274
12/06/2014  10:23:00       85.256     -127.389       -1.004      103.488      126.668       59.140    10709.807    16044.868     3497.598        2.687        1.513      153.286       69.445        0.205      339.599       13.041      866.274
12/06/2014  10:24:00       70.005      -74.547       25.769       68.736      111.963       55.427     4724.589    12535.772     3072.186        1.572        1.017      102.264       51.288        0.252      339.737       13.274      866.286
12/06/2014  10:25:00      113.987       66.488       87.120       78.582       83.201       67.628     6175.113     6922.386     4573.479        2.133        0.884      131.961       69.850        0.280      339.708       13.225      866.294
12/06/2014  10:26:00      117.303       94.280       49.511       64.287       46.577       58.001     4132.845     2169.438     3364.160        1.738        0.483      150.495       28.845        0.037      339.377       12.669      866.319
12/06/2014  10:27:00       45.392        9.895       23.072       41.759       41.389       32.006     1743.804     1713.061     1024.405        0.359        0.224       46.458       26.178        0.318      339.681       13.181      866.324
12/06/2014  10:28:00       48.479       51.855       64.904       64.392       55.329       46.121     4146.316     3061.304     2127.146        0.929        0.467       70.987       42.430        0.357      339.825       13.424      866.319
12/06/2014  10:29:00       54.387       78.287       80.394       61.943       58.490       60.197     3836.909     3421.083     3623.628        1.321        0.544       95.325       53.264        0.312      339.700       13.214      866.338
12/06/2014  10:30:00       56.168       59.976       37.215       81.834       44.778       49.029     6696.762     2005.069     2403.868        0.962        0.555       82.170       49.876        0.368      339.828       13.429      866.367
12/06/2014  10:31:00      -10.241        9.397       48.728       31.692       47.685       39.584     1004.407     2273.818     1566.914        0.371        0.242       13.899       34.368        6.114      340.109       13.904      866.365
12/06/2014  10:32:00       50.276       79.207       88.066       80.419       64.417       52.904     6467.265     4149.531     2798.792        1.498        0.671       93.816       46.109        0.242      339.853       13.471      866.364
12/06/2014  10:33:00       33.461      -22.047       36.973       34.786       66.132       29.063     1210.080     4373.479      844.646        0.470        0.321       40.071       33.736        0.709      339.953       13.640      866.380
12/06/2014  10:34:00       51.771       54.823       57.923       35.906       46.337       35.922     1289.276     2147.106     1290.382        0.688        0.236       75.405       27.729        0.135      339.776       13.342      866.376
12/06/2014  10:35:00       94.300       61.565       25.203       42.213       40.867       34.221     1781.973     1670.140     1171.086        0.897        0.231      112.618       19.758        0.031      339.702       13.216      866.365
12/06/2014  10:36:00       86.924       42.884       47.213       49.196       53.121       29.596     2420.258     2821.880      875.910        0.887        0.306       96.927       20.513        0.045      339.654       13.137      866.368
12/06/2014  10:37:00       38.857       71.174       86.516       55.249       56.352       47.152     3052.405     3175.541     2223.274        1.125        0.423       81.090       40.090        0.244      339.974       13.675      866.345
12/06/2014  10:38:00       39.027       40.583       64.396       62.971       55.177       35.731     3965.359     3044.513     1276.677        0.780        0.414       56.304       36.093        0.411      339.738       13.278      866.322
12/06/2014  10:39:00       39.322       -3.744       21.772       41.529       37.759       31.520     1724.622     1425.712      993.488        0.309        0.207       39.500       31.039        0.617      339.883       13.522      866.317
12/06/2014  10:40:00       86.268       42.355       26.086       58.525       45.903       38.697     3425.131     2107.124     1497.480        0.847        0.351       96.104       33.417        0.121      339.746       13.290      866.263
12/06/2014  10:41:00      105.556      103.279       64.212       73.031       67.189       61.878     5333.582     4514.417     3828.908        1.980        0.684      147.678       53.499        0.131      339.606       13.054      866.233
12/06/2014  10:42:00      128.197       84.061       38.994       57.040       40.926       38.712     3253.544     1674.898     1498.589        1.572        0.321      153.299       17.128        0.012      339.612       13.066      866.206
12/06/2014  10:43:00       18.974       47.428       79.818       53.907       84.220       52.897     2905.939     7092.993     2798.097        1.089        0.640       51.083       54.684        1.146      340.027       13.765      866.172
12/06/2014  10:44:00       29.486       62.247       89.459       55.954       56.678       40.997     3130.854     3212.387     1680.723        1.038        0.401       68.878       44.309        0.414      339.937       13.613      866.176
12/06/2014  10:45:00       48.721       39.203       72.032       49.984       57.743       32.961     2498.408     3334.279     1086.399        0.801        0.346       62.534       26.532        0.180      339.934       13.608      866.189
12/06/2014  10:46:00       13.892       21.504       -2.372       35.715       30.967       36.107     1275.526      958.982     1303.685        0.210        0.177       25.601       17.505        0.468      339.604       13.052      866.213
12/06/2014  10:47:00        9.935       -2.796        1.812       20.479       12.795       11.211      419.373      163.716      125.697        0.041        0.035       10.321       10.769        1.089      339.924       13.591      866.237
12/06/2014  10:48:00       33.752       20.191       10.965       14.074       11.003       16.647      198.080      121.075      277.110        0.113        0.030       39.330        8.514        0.047      339.901       13.553      866.247
12/06/2014  10:49:00       14.404       36.096       52.434       27.424       35.171       29.865      752.069     1236.983      891.947        0.357        0.144       38.864       28.136        0.524      340.152       13.975      866.265
12/06/2014  10:50:00       27.332       14.952       16.277       42.293       24.832       22.410     1788.736      616.632      502.187        0.207        0.145       31.154       16.666        0.286      339.909       13.566      866.261
12/06/2014  10:51:00       28.374      -31.198       14.943       32.152       49.226       36.423     1033.743     2423.216     1326.606        0.339        0.239       42.171       24.859        0.347      340.292       14.212      866.267
12/06/2014  10:52:00       50.511      -77.671       20.173       40.103       72.697       34.449     1608.281     5284.796     1186.752        0.853        0.404       92.650       41.658        0.202      339.921       13.585      866.263
12/06/2014  10:53:00       34.755       61.544       48.437       43.067       37.923       38.370     1854.752     1438.165     1472.240        0.605        0.238       70.680       23.688        0.112      339.837       13.444      866.233
12/06/2014  10:54:00       21.345       29.903       50.111       35.153       35.165       18.151     1235.702     1236.587      329.451        0.333        0.140       36.740       17.639        0.231      340.258       14.155      866.207
12/06/2014  10:55:00       37.133      -15.077       16.109       62.678       83.196       35.895     3928.515     6921.560     1288.460        0.700        0.607       40.078       43.550        1.181      340.200       14.056      866.178
12/06/2014  10:56:00      110.755      -96.555       -8.662       65.033       75.887       57.537     4229.303     5758.770     3310.494        1.748        0.665      146.933       57.305        0.152      339.807       13.392      866.158
12/06/2014  10:57:00      112.020     -164.113      -37.866       38.930       65.938       29.425     1515.511     4347.766      865.846        2.382        0.336      198.699       20.438        0.011      339.762       13.314      866.154
12/06/2014  10:58:00        6.055       50.229       72.192       29.784       36.321       22.630      887.072     1319.228      512.138        0.524        0.136       50.593       22.942        0.206      340.040       13.788      866.162
12/06/2014  10:59:00      -19.122       16.999        9.063       24.423       22.662       22.135      596.468      513.565      489.963        0.117        0.080       25.585       18.404        0.517      339.991       13.702      866.160
12/06/2014  11:00:00      -10.561       13.781       38.870       29.263       41.976       35.168      856.318     1762.004     1236.780        0.283        0.193       17.363       16.281        0.879      340.297       14.221      866.145
12/06/2014  11:01:00       24.988      -26.535       58.603       58.362      106.399       56.110     3406.166    11320.769     3148.369        1.132        0.894       36.448       70.112        3.700      340.073       13.842      866.137
12/06/2014  11:02:00      -44.072      -66.707      -20.892       60.619       58.867       28.702     3674.665     3465.301      823.789        0.739        0.398       79.951       18.291        0.052      339.810       13.397      866.140
12/06/2014  11:03:00      -45.007     -116.332      -11.198      102.497       59.902       32.190    10505.672     3588.242     1036.189        1.540        0.757      124.735       23.111        0.034      339.918       13.579      866.147
12/06/2014  11:04:00       19.244      -70.900        6.361       67.962       54.890       35.050     4618.802     3012.910     1228.517        0.715        0.443       73.465       23.145        0.099      339.986       13.696      866.163
12/06/2014  11:05:00      -77.612      -62.734        6.888       74.562       55.425       41.819     5559.455     3071.983     1748.845        1.019        0.519       99.796       48.262        0.234      340.054       13.809      866.174
12/06/2014  11:06:00      -32.272      -67.842       -8.474       40.356       54.979       28.965     1628.644     3022.684      838.964        0.560        0.275       75.127       25.104        0.112      339.897       13.545      866.205
12/06/2014  11:07:00      -46.048     -124.912      -17.725       80.913       56.928       43.550     6546.897     3240.795     1896.622        1.486        0.584      133.130       35.665        0.072      340.052       13.806      866.219
12/06/2014  11:08:00      -50.224      -60.162        0.900       64.585       63.922       40.227     4171.220     4086.067     1618.239        0.801        0.494       78.370       37.812        0.233      340.165       13.998      866.233
12/06/2014  11:09:00      -10.336       12.089        0.648       35.900       37.022       23.989     1288.806     1370.596      575.479        0.174        0.162       15.905       16.360        1.058      340.004       13.726      866.240
12/06/2014  11:10:00      -92.780      -60.839       -7.784       41.857       57.875       26.442     1752.020     3349.570      699.180        0.908        0.290      110.949       16.450        0.022      339.902       13.553      866.219
12/06/2014  11:11:00       -1.462       -5.198       28.721       32.157       50.176       31.669     1034.100     2517.591     1002.906        0.270        0.228        5.400       37.436       48.064      340.293       14.214      866.204
12/06/2014  11:12:00      -61.053      -19.309       -0.365       45.085       40.540       29.354     2032.621     1643.467      861.643        0.432        0.227       64.033       30.479        0.227      340.071       13.837      866.160
12/06/2014  11:13:00      -87.767      -67.408       -0.426       55.223       34.048       28.583     3049.616     1159.287      817.010        0.864        0.251      110.665       23.886        0.047      339.888       13.531      866.131
12/06/2014  11:14:00     -110.827      -73.520       -4.989       78.296       42.368       29.016     6130.230     1795.031      841.936        1.324        0.438      132.996       30.684        0.053      339.730       13.263      866.104
12/06/2014  11:15:00     -118.750      -90.697      -12.626       34.242       33.024       19.554     1172.493     1090.564      382.368        1.257        0.132      149.424       10.732        0.005      339.620       13.077      866.077
12/06/2014  11:16:00      -74.915       -3.259      -15.350       19.536       22.678       10.322      381.645      514.284      106.541        0.343        0.050       74.986        8.259        0.012      339.591       13.029      866.061
12/06/2014  11:17:00     -113.044      -13.438      -24.735       45.204       60.533       19.115     2043.356     3664.235      365.366        0.982        0.304      113.840       17.877        0.025      339.678       13.176      866.016
12/06/2014  11:18:00      -46.834       -0.121       -4.345       36.649       34.001       16.634     1343.184     1156.100      276.694        0.249        0.139       46.834       16.590        0.125      339.953       13.641      865.983
12/06/2014  11:19:00      -35.818       14.166        9.843       53.783       28.856       25.240     2892.596      832.695      637.055        0.297        0.218       38.517       25.052        0.423      340.238       14.122      865.955
12/06/2014  11:20:00        7.605       -0.279       -1.833       13.784       18.809       21.511      189.999      353.767      462.735        0.053        0.050        7.610        9.321        1.500      340.582       14.704      865.932
12/06/2014  11:21:00        0.842        7.988       32.101       33.228       50.691       43.518     1104.068     2569.564     1893.794        0.333        0.278        8.032       27.080       11.366      340.540       14.631      865.931
12/06/2014  11:22:00      120.163     -179.196      -25.420       84.273      107.901       54.457     7101.879    11642.590     2965.530        3.445        1.085      215.755       63.842        0.088      339.996       13.711      865.933
12/06/2014  11:23:00       48.022     -118.659      -16.435       75.295       69.242       51.294     5669.294     4794.402     2631.037        1.487        0.655      128.008       47.277        0.136      340.101       13.889      865.957
12/06/2014  11:24:00       14.974      -56.661       -2.538       37.117       45.808       29.845     1377.688     2098.341      890.719        0.390        0.218       58.606       12.872        0.048      340.234       14.115      865.987
12/06/2014  11:25:00       18.422      -53.945        3.744       47.195       32.521       31.332     2227.397     1057.608      981.704        0.376        0.213       57.004       16.158        0.080      340.189       14.038      866.012
12/06/2014  11:26:00      -83.421      -12.912      -13.074       38.995       25.143       26.920     1520.606      632.173      724.705        0.509        0.144       84.415       23.160        0.075      339.976       13.677      866.020
12/06/2014  11:27:00      -70.125      -33.054      -14.385       28.223       51.774       18.962      796.525     2680.510      359.550        0.503        0.192       77.524       14.606        0.035      339.908       13.564      866.027
12/06/2014  11:28:00     -106.614        5.107       -0.720       44.546       35.898       26.833     1984.352     1288.660      719.995        0.769        0.200      106.736       26.091        0.060      340.030       13.770      866.023
12/06/2014  11:29:00     -125.465      -69.054      -12.437       33.050       30.678       18.782     1092.323      941.148      352.768        1.153        0.119      143.213       11.152        0.006      339.982       13.689      866.016
12/06/2014  11:30:00     -148.674     -114.587        0.053       72.101       50.929       36.385     5198.511     2593.781     1323.899        2.217        0.456      187.708       33.693        0.032      339.915       13.573      866.001
12/06/2014  11:31:00     -181.621      -62.820        3.252      110.603       64.441       35.806    12232.916     4152.649     1282.073        2.730        0.883      192.178       45.465        0.056      339.911       13.567      865.973
12/06/2014  11:32:00      -66.782     -135.883       -5.273       30.747       45.625       25.331      945.388     2081.681      641.654        1.331        0.183      151.407       17.534        0.013      339.709       13.228      865.970
12/06/2014  11:33:00      -75.537      -69.919        4.901       83.629       57.326       36.805     6993.751     3286.298     1354.624        1.112        0.582      102.930       49.999        0.236      340.142       13.958      865.942
12/06/2014  11:34:00      -79.575      -55.640       -5.436       38.195       26.530       19.469     1458.868      703.860      379.050        0.600        0.127       97.098       16.295        0.028      339.968       13.666      865.948
12/06/2014  11:35:00      -80.533      -98.239       -5.978       47.003       64.582       27.633     2209.261     4170.796      763.594        1.166        0.357      127.030       17.139        0.018      340.050       13.801      865.934
12/06/2014  11:36:00     -106.487     -107.422      -13.660       43.869       40.714       34.044     1924.508     1657.613     1158.977        1.390        0.237      151.258       26.096        0.030      339.778       13.344      865.936
12/06/2014  11:37:00     -108.515      -39.774       -6.486       34.142       38.325       17.202     1165.688     1468.813      295.909        0.816        0.147      115.575       16.589        0.021      339.755       13.306      865.933
12/06/2014  11:38:00      -23.495       17.220        2.916       51.874       30.367       17.342     2690.891      922.179      300.761        0.238        0.196       29.129       11.040        0.144      340.099       13.887      865.925
12/06/2014  11:39:00       20.050        1.270       39.344       36.609       41.405       36.120     1340.218     1714.398     1304.657        0.315        0.218       20.090       24.895        1.536      340.507       14.576      865.908
12/06/2014  11:40:00       48.226       47.455        1.848       30.734       45.181       27.013      944.550     2041.329      729.681        0.415        0.186       67.659       16.317        0.058      339.926       13.594      865.898
12/06/2014  11:41:00        3.830       31.880       23.742       34.747       36.270       32.226     1207.386     1315.534     1038.505        0.258        0.178       32.109       11.473        0.128      340.348       14.306      865.875
12/06/2014  11:42:00      -14.780       -0.766        7.262       11.567       17.607       17.550      133.795      310.023      308.004        0.051        0.038       14.800       12.566        0.721      340.444       14.470      865.853
12/06/2014  11:43:00      -56.119      -16.608        1.639       30.820       28.503       15.372      949.850      812.424      236.285        0.271        0.100       58.525       11.744        0.040      340.190       14.039      865.843
12/06/2014  11:44:00      -43.848      -51.838        6.547       77.628       63.079       32.738     6026.066     3978.990     1071.777        0.786        0.554       67.896       36.562        0.290      340.352       14.313      865.825
12/06/2014  11:45:00      -14.514       11.617       -6.093       69.066       31.579       21.936     4770.112      997.214      481.193        0.331        0.312       18.591       20.011        1.159      340.050       13.803      865.804
12/06/2014  11:46:00       30.324       52.909        5.225       37.668       36.090       25.981     1418.882     1302.514      675.019        0.357        0.170       60.983       14.857        0.059      340.499       14.563      865.781
12/06/2014  11:47:00       35.305       43.162       51.802       38.793       27.157       26.414     1504.925      737.527      697.688        0.437        0.147       55.762       15.481        0.077      340.412       14.415      865.746
12/06/2014  11:48:00       43.880      -89.627       10.610       61.712       85.553       48.071     3808.330     7319.372     2310.839        1.175        0.672       99.792       52.084        0.272      340.458       14.491      865.721
12/06/2014  11:49:00       37.153      -37.170       42.578       52.254       76.199       53.688     2730.463     5806.328     2882.391        0.799        0.571       52.554       28.765        0.300      340.569       14.680      865.699
12/06/2014  11:50:00       85.652      -26.825       75.411      105.745      143.916       91.347    11181.910    20711.902     8344.358        2.698        2.012       89.755      105.066        1.370      340.302       14.227      865.674
12/06/2014  11:51:00       74.164      -48.109       42.008       59.475       94.736       66.246     3537.244     8974.818     4388.532        1.324        0.845       88.401       58.433        0.437      340.353       14.315      865.689
12/06/2014  11:52:00      128.656      100.412       67.435       64.633       57.666       57.691     4177.446     3325.380     3328.307        2.100        0.542      163.202       42.877        0.069      340.068       13.834      865.670
12/06/2014  11:53:00      153.461       35.624       49.240       79.860       52.658       55.279     6377.617     2772.898     3055.760        1.972        0.610      157.542       52.796        0.112      340.065       13.826      865.649
12/06/2014  11:54:00      100.147       44.286       56.669       97.011       58.501       50.850     9411.162     3422.309     2585.762        1.531        0.771      109.502       57.172        0.273      340.441       14.463      865.644
12/06/2014  11:55:00       94.162       82.307       80.131      117.901       83.532       56.552    13900.586     6977.563     3198.182        2.306        1.204      125.064       50.968        0.166      340.391       14.377      865.645
12/06/2014  11:56:00       91.083       34.913       83.567       96.547      119.419       72.233     9321.262    14260.829     5217.586        2.264        1.440       97.545       88.133        0.816      340.382       14.361      865.636
12/06/2014  11:57:00       91.434      -34.691       35.229       86.059      128.291       71.941     7406.102    16458.608     5175.549        1.992        1.452       97.794       88.789        0.824      340.281       14.191      865.635
12/06/2014  11:58:00       49.698        0.295       66.059       62.191       95.587       54.286     3867.706     9136.867     2947.023        1.139        0.798       49.698       68.143        1.880      340.420       14.430      865.647
12/06/2014  11:59:00       38.873        3.215       42.803       65.249       78.428       47.711     4257.382     6150.984     2276.365        0.802        0.634       39.005       45.203        1.343      340.302       14.229      865.649
12/06/2014  12:00:00      110.056        3.920       36.735      105.153       73.038       50.833    11057.219     5334.560     2583.993        1.622        0.949      110.126       41.801        0.144      340.417       14.421      865.642
12/06/2014  12:01:00       48.856      -69.300       30.818       73.007       95.455       50.692     5329.989     9111.589     2569.646        1.257        0.851       84.790       64.025        0.570      340.540       14.630      865.645
12/06/2014  12:02:00      156.708     -214.893      -29.867       66.468       56.131       35.184     4417.946     3150.642     1237.909        4.022        0.440      265.963       26.878        0.010      340.131       13.935      865.635
12/06/2014  12:03:00      124.202     -150.223       11.676       77.974      107.539       76.658     6079.962    11564.738     5876.509        3.082        1.176      194.919       74.541        0.146      340.155       13.978      865.612
12/06/2014  12:04:00       30.008      -10.260       53.405       41.255       63.188       39.604     1702.011     3992.667     1568.488        0.556        0.363       31.714       31.916        1.013      340.420       14.429      865.598
12/06/2014  12:05:00       84.755       88.132       68.224       63.138       41.240       46.641     3986.425     1700.698     2175.384        1.373        0.393      122.273       38.552        0.099      340.236       14.116      865.566
12/06/2014  12:06:00       38.434       58.241       91.778       62.436       75.645       43.246     3898.218     5722.115     1870.197        1.239        0.575       69.780       48.927        0.492      340.446       14.471      865.548
12/06/2014  12:07:00       23.091       60.821       84.147       58.602       64.360       56.550     3434.241     4142.192     3197.954        1.104        0.539       65.057       45.559        0.490      340.369       14.341      865.552
12/06/2014  12:08:00       82.166      108.621      107.066       87.110       65.617       47.455     7588.178     4305.603     2251.990        2.208        0.707      136.198       38.814        0.081      340.286       14.200      865.547
12/06/2014  12:09:00       58.633       88.246       91.818       69.371       61.075       41.491     4812.401     3730.159     1721.488        1.496        0.513      105.949       28.692        0.073      340.408       14.407      865.559
12/06/2014  12:10:00      101.458     -116.897        1.011       92.214      117.497       55.721     8503.465    13805.505     3104.884        2.468        1.271      154.785       78.259        0.256      340.353       14.313      865.559
12/06/2014  12:11:00      172.928     -215.683      -52.000       82.299      124.693       52.062     6773.174    15548.455     2710.421        5.207        1.252      276.448       63.007        0.052      340.031       13.768      865.557
12/06/2014  12:12:00      119.063     -105.941       -8.809       85.834      102.574       74.886     7367.472    10521.388     5607.929        2.448        1.175      159.372       72.769        0.208      340.200       14.054      865.569
12/06/2014  12:13:00       82.015       13.999       63.859       60.155       92.047       57.550     3618.574     8472.616     3311.999        1.320        0.770       83.201       64.500        0.601      340.200       14.056      865.578
12/06/2014  12:14:00       50.762       27.796       51.354       61.268       57.586       40.261     3753.817     3316.180     1620.910        0.734        0.435       57.874       34.787        0.361      340.374       14.350      865.572
12/06/2014  12:15:00       92.389     -101.730       -4.238       45.770       81.288       43.204     2094.867     6607.773     1866.553        1.473        0.528      137.422       44.873        0.107      340.306       14.234      865.568
12/06/2014  12:16:00       63.605      -96.531       31.239       60.719      114.961       65.957     3686.784    13216.084     4350.299        1.779        1.063      115.603       75.952        0.432      340.317       14.252      865.557
12/06/2014  12:17:00       94.679      -97.934       14.229       76.594       84.744       57.209     5866.586     7181.514     3272.872        1.754        0.816      136.217       60.408        0.197      340.236       14.116      865.562
12/06/2014  12:18:00       23.012      -77.958       23.019       47.990       50.174       31.828     2303.018     2517.467     1013.024        0.648        0.292       81.283       23.522        0.084      340.245       14.132      865.561
12/06/2014  12:19:00       63.909      -28.050       12.239       50.954       58.543       34.734     2596.297     3427.339     1206.457        0.612        0.362       69.794       35.881        0.264      340.192       14.042      865.555
12/06/2014  12:20:00       64.275        3.632       13.000       60.609       27.597       30.476     3673.475      761.577      928.797        0.484        0.268       64.377       35.405        0.302      340.266       14.168      865.550
12/06/2014  12:21:00       28.473      -28.277       15.310       38.301       48.202       35.633     1466.981     2323.459     1269.737        0.345        0.253       40.129       35.091        0.765      340.296       14.218      865.546
12/06/2014  12:22:00       18.037       57.135       88.410       57.699       69.606       45.995     3329.223     4845.054     2115.552        1.085        0.514       59.915       44.937        0.563      340.352       14.313      865.545
12/06/2014  12:23:00      125.685     -156.080        0.717       60.436      124.872       47.177     3652.552    15593.037     2225.697        3.081        1.074      200.393       68.243        0.116      340.158       13.982      865.545
12/06/2014  12:24:00       52.012     -105.421       -1.474       66.343       59.087       46.182     4401.361     3491.220     2132.786        1.192        0.501      117.554       44.900        0.146      340.153       13.977      865.556
12/06/2014  12:25:00       73.377      -61.431        5.750       66.165       70.423       50.561     4377.792     4959.344     2556.423        1.054        0.595       95.697       54.566        0.325      340.175       14.012      865.558
12/06/2014  12:26:00       52.828      -21.755       55.536       84.205      101.216       72.181     7090.497    10244.607     5210.084        1.444        1.127       57.133       84.151        2.169      340.211       14.075      865.545
12/06/2014  12:27:00       80.843      105.888      101.298       89.420       73.747       56.353     7995.862     5438.594     3175.709        2.231        0.831      133.221       49.263        0.137      340.210       14.072      865.555
12/06/2014  12:28:00       88.267      105.610       77.642       74.086       57.398       74.800     5488.747     3294.498     5595.062        1.967        0.719      137.639       62.144        0.204      340.174       14.012      865.560
12/06/2014  12:29:00       94.632       51.183        4.838       37.705       40.480       29.317     1421.679     1638.649      859.497        0.776        0.196      107.586       20.828        0.037      340.072       13.841      865.576
12/06/2014  12:30:00       46.148       33.797       31.934       46.276       33.756       29.024     2141.500     1139.472      842.394        0.421        0.206       57.200       19.262        0.113      340.208       14.069      865.583
12/06/2014  12:31:00       29.008       22.404       56.084       50.080       82.951       47.128     2507.988     6880.931     2221.009        0.805        0.580       36.653       50.964        1.933      340.308       14.239      865.586
12/06/2014  12:32:00      108.920      -96.021      -10.614       75.017       98.541       55.216     5627.476     9710.307     3048.809        1.979        0.919      145.202       62.556        0.186      340.164       13.995      865.576
12/06/2014  12:33:00       32.975       33.744       95.098       56.808       51.841       35.258     3227.166     2687.460     1243.097        0.921        0.358       47.180       31.639        0.450      340.328       14.273      865.569
12/06/2014  12:34:00       51.329      -43.935       33.522       53.551       94.083       53.885     2867.723     8851.531     2903.624        1.015        0.731       67.565       62.596        0.858      340.228       14.103      865.569
12/06/2014  12:35:00       64.972     -111.671        0.404       63.142       72.051       47.664     3986.946     5191.281     2271.889        1.407        0.573      129.196       47.062        0.133      340.262       14.160      865.557
12/06/2014  12:36:00        7.484       -6.559       59.425       48.698       89.222       61.946     2371.531     7960.477     3837.261        0.890        0.708        9.951       58.052       34.029      340.304       14.232      865.567
12/06/2014  12:37:00       29.925       35.704       60.692       38.779       31.492       31.056     1503.777      991.772      964.485        0.466        0.173       46.586       22.302        0.229      340.138       13.951      865.583
12/06/2014  12:38:00       50.186      -91.127       -3.878       56.619       52.937       41.864     3205.707     2802.367     1752.602        0.930        0.388      104.032       39.781        0.146      340.202       14.059      865.593
12/06/2014  12:39:00       88.402      -73.929       -5.550       38.192       56.556       27.227     1458.595     3198.546      741.320        0.935        0.270      115.241       30.119        0.068      340.043       13.793      865.609
12/06/2014  12:40:00       90.689     -104.823      -12.406       65.572       75.782       44.306     4299.704     5742.921     1963.055        1.568        0.600      138.609       54.353        0.154      340.202       14.058      865.619
12/06/2014  12:41:00       81.835      -65.961       29.278       52.926       90.319       51.442     2801.143     8157.546     2646.267        1.275        0.680      105.109       53.007        0.254      340.257       14.152      865.628
12/06/2014  12:42:00      144.937      -81.296       19.201       92.239      114.298       83.534     8508.071    13064.116     6977.932        2.826        1.428      166.179       88.553        0.284      340.114       13.909      865.634
12/06/2014  12:43:00       54.056       63.234       93.553       72.895       91.278       66.405     5313.651     8331.680     4409.598        1.686        0.903       83.190       75.861        0.832      340.157       13.982      865.646
12/06/2014  12:44:00       92.577       81.091       52.432       53.238       38.053       39.848     2834.266     1448.008     1587.897        1.188        0.294      123.070       29.668        0.058      340.042       13.790      865.655
12/06/2014  12:45:00       81.319       22.961       15.529       36.763       33.549       31.492     1351.488     1125.518      991.768        0.542        0.173       84.499       19.913        0.056      340.113       13.910      865.661
12/06/2014  12:46:00       68.016       35.573       15.827       32.185       33.372       29.054     1035.883     1113.718      844.151        0.457        0.150       76.757       18.696        0.059      340.147       13.965      865.661
12/06/2014  12:47:00       76.766       37.357       10.689       36.182       45.458       26.924     1309.172     2066.435      724.910        0.575        0.205       85.373       12.773        0.022      340.173       14.012      865.667
12/06/2014  12:48:00       22.788       32.952       57.553       32.444       33.286       30.275     1052.593     1107.954      916.603        0.400        0.154       40.064       21.179        0.279      340.384       14.368      865.666
12/06/2014  12:49:00       33.384       37.308       72.888       47.814       69.904       48.074     2286.183     4886.590     2311.156        0.865        0.474       50.063       49.647        0.983      340.439       14.460      865.661
12/06/2014  12:50:00      113.958      -63.355       49.472       83.778      116.899       70.318     7018.761    13665.411     4944.689        2.253        1.281      130.385       78.886        0.366      340.215       14.079      865.654
12/06/2014  12:51:00      101.547       23.050       88.988       93.416       91.187       77.019     8726.564     8315.027     5931.974        2.086        1.149      104.130       74.022        0.505      340.180       14.020      865.644
12/06/2014  12:52:00       32.237       72.614      117.850       69.317       82.802       57.803     4804.910     6856.098     3341.146        1.760        0.750       79.448       54.647        0.473      340.200       14.055      865.648
12/06/2014  12:53:00       52.149      -14.187       62.501       53.553       78.095       37.669     2867.971     6098.899     1418.916        0.860        0.519       54.045       37.232        0.475      340.250       14.140      865.646
12/06/2014  12:54:00      113.142      -89.246        8.226      107.558       72.218       54.583    11568.727     5215.378     2979.249        2.029        0.988      144.104       61.168        0.180      340.242       14.127      865.645
12/06/2014  12:55:00       88.378      -13.401       57.738       60.540       80.022       64.121     3665.058     6403.590     4111.453        1.275        0.709       89.388       63.268        0.501      340.216       14.083      865.648
12/06/2014  12:56:00       21.699       42.702       79.249       39.700       60.066       36.678     1576.063     3607.965     1345.309        0.755        0.326       47.899       37.523        0.614      340.327       14.271      865.651
12/06/2014  12:57:00       61.780      -37.376       42.356       69.988       80.823       51.680     4898.266     6532.391     2670.834        1.055        0.705       72.206       52.545        0.530      340.341       14.294      865.641
12/06/2014  12:58:00      137.947     -115.964      -14.478       42.793       47.246       26.829     1831.267     2232.179      719.814        1.873        0.239      180.213       15.206        0.007      340.143       13.959      865.643
12/06/2014  12:59:00      128.197      -81.384        3.434       80.580       70.628       44.138     6493.133     4988.257     1948.145        1.825        0.671      151.848       56.215        0.137      340.072       13.838      865.642
12/06/2014  13:00:00       30.688        3.864       41.408       35.886       43.624       23.982     1287.786     1903.019      575.150        0.322        0.188       30.930       26.377        0.727      340.151       13.973      865.640
12/06/2014  13:01:00       34.663      -81.052       -0.345       52.406       61.158       39.951     2746.426     3740.344     1596.047        0.793        0.404       88.153       39.878        0.205      340.166       13.999      865.633
12/06/2014  13:02:00        3.641      -41.814        4.096       42.415       48.715       34.152     1799.035     2373.116     1166.343        0.356        0.267       41.972       29.221        0.485      340.279       14.190      865.623
12/06/2014  13:03:00       74.507      -30.888       16.826       65.157       74.677       52.983     4245.455     5576.611     2807.221        0.971        0.631       80.656       48.288        0.358      340.235       14.116      865.606
12/06/2014  13:04:00      140.271     -148.225      -13.665       53.903       59.929       36.767     2905.521     3591.508     1351.848        2.484        0.392      204.075       36.583        0.032      340.098       13.881      865.610
12/06/2014  13:05:00       13.811       50.610       94.865       41.897       48.997       37.447     1755.387     2400.684     1402.293        0.865        0.278       52.461       32.725        0.389      340.274       14.181      865.613
12/06/2014  13:06:00       52.378      -37.967       38.984       59.032       65.186       54.961     3484.723     4249.256     3020.707        0.823        0.538       64.692       52.582        0.661      340.276       14.185      865.610
12/06/2014  13:07:00      120.842     -137.295      -11.969       60.863       85.420       46.258     3704.286     7296.635     2139.768        2.337        0.657      182.901       53.339        0.085      340.233       14.109      865.610
12/06/2014  13:08:00       71.219       23.063       47.882       39.668       69.427       35.294     1573.588     4820.130     1245.676        0.777        0.382       74.860       28.381        0.144      340.247       14.136      865.615
12/06/2014  13:09:00       19.653       45.350       51.794       30.400       30.871       29.239      924.185      953.041      854.936        0.393        0.137       49.425       20.298        0.169      340.260       14.157      865.617
12/06/2014  13:10:00       46.031       27.177       20.025       32.027       36.380       32.979     1025.715     1323.493     1087.622        0.335        0.172       53.455       24.474        0.210      340.188       14.036      865.611
12/06/2014  13:11:00       24.467       13.799       21.260       24.673       49.397       25.415      608.752     2440.101      645.944        0.247        0.185       28.090       22.109        0.619      340.319       14.257      865.597
12/06/2014  13:12:00        8.464       13.453       14.375       23.538       21.651       14.379      554.014      468.754      206.766        0.084        0.061       15.894       10.236        0.415      340.295       14.216      865.579
12/06/2014  13:13:00        0.689       12.163       -1.262       24.221       16.210       12.884      586.656      262.774      166.004        0.058        0.051       12.183        6.783        0.310      340.201       14.056      865.563
12/06/2014  13:14:00      -14.570       -7.749       33.990       27.040       48.501       35.737      731.140     2352.367     1277.146        0.289        0.218       16.503       38.018        5.307      340.327       14.271      865.553
12/06/2014  13:15:00       10.083      -51.100       -8.668       55.125       46.880       29.458     3038.736     2197.744      867.796        0.444        0.305       52.085       29.654        0.324      340.211       14.075      865.537
12/06/2014  13:16:00       -5.492      -46.051        3.577       30.723       31.575       21.298      943.902      996.978      453.588        0.228        0.120       46.377       18.027        0.151      340.314       14.248      865.522
12/06/2014  13:17:00      -52.243      -15.545        3.240       33.793       24.894       18.480     1141.971      619.711      341.514        0.254        0.105       54.507       15.551        0.081      340.219       14.089      865.519
12/06/2014  13:18:00      -33.642      -19.441       12.509       37.431       25.422       18.488     1401.081      646.254      341.813        0.203        0.119       38.855       12.960        0.111      340.216       14.084      865.522
12/06/2014  13:19:00      -11.424      -16.675        3.447       28.780       22.579       21.489      828.294      509.811      461.768        0.111        0.090       20.212       12.863        0.405      340.255       14.150      865.530
12/06/2014  13:20:00      -40.975      -48.551       -3.798       20.398       51.059       14.849      416.077     2607.054      220.478        0.365        0.162       63.531       17.078        0.072      340.105       13.896      865.535
12/06/2014  13:21:00      -49.270      -53.082        5.130       32.612       32.359       16.565     1063.548     1047.113      274.400        0.383        0.119       72.424       10.527        0.021      340.089       13.871      865.543
12/06/2014  13:22:00     -108.246      -75.257       -1.015       52.261       46.916       20.719     2731.174     2201.101      429.281        1.137        0.268      131.836       17.503        0.018      340.098       13.884      865.535
12/06/2014  13:23:00      -19.453      -29.403        7.069       37.906       53.010       22.241     1436.845     2810.041      494.669        0.302        0.237       35.255       23.559        0.447      340.293       14.214      865.532
12/06/2014  13:24:00      -61.720      -43.255        5.156       40.147       32.662       23.416     1611.752     1066.819      548.294        0.447        0.161       75.368       19.974        0.070      340.119       13.919      865.541
12/06/2014  13:25:00      -79.379      -60.128       -4.140       31.321       27.414       24.662      980.980      751.501      608.198        0.614        0.117       99.581       17.519        0.031      340.072       13.840      865.548
12/06/2014  13:26:00      -84.168      -65.591      -10.444       45.080       27.215       20.725     2032.205      740.655      429.540        0.735        0.160      106.708       23.024        0.047      340.008       13.733      865.549
12/06/2014  13:27:00      -79.477      -37.724      -17.005       15.450       31.283       12.319      238.717      978.604      151.746        0.470        0.068       87.975       11.740        0.018      339.989       13.699      865.550
12/06/2014  13:28:00      -56.148      -22.361        4.670       24.722       21.199       18.509      611.202      449.391      342.592        0.254        0.070       60.437       15.467        0.065      340.064       13.827      865.546
12/06/2014  13:29:00      -73.270      -38.619       -4.065       19.112       13.790        9.916      365.273      190.158       98.334        0.376        0.033       82.824        9.371        0.013      340.001       13.720      865.542
12/06/2014  13:30:00      -67.115      -84.915       -6.599       20.734       31.131       15.605      429.885      969.144      243.501        0.670        0.082      108.236       10.529        0.009      340.046       13.795      865.536
12/06/2014  13:31:00      -34.799      -47.741        1.962       22.003       28.447       17.627      484.111      809.205      310.713        0.255        0.080       59.077        9.709        0.027      340.090       13.870      865.535
12/06/2014  13:32:00      -60.480      -60.726       -2.225       25.586       21.908       17.499      654.632      479.939      306.208        0.440        0.072       85.706       17.132        0.040      340.039       13.786      865.528
12/06/2014  13:33:00      -65.661      -51.930       -3.495       17.082       13.157        8.440      291.789      173.103       71.233        0.378        0.027       83.715        5.398        0.004      340.006       13.727      865.538
12/06/2014  13:34:00      -10.996      -27.144       -6.802       11.780       13.305        6.663      138.758      177.022       44.398        0.063        0.018       29.286        4.875        0.028      340.027       13.765      865.545
12/06/2014  13:35:00       -9.866      -46.624      -11.431       20.415       21.448       12.715      416.753      460.012      161.675        0.172        0.052       47.657       10.219        0.046      340.159       13.987      865.560
12/06/2014  13:36:00      -22.006      -27.119        6.749       29.686       26.273       17.817      881.272      690.251      317.430        0.158        0.094       34.925       22.393        0.411      340.215       14.081      865.581
12/06/2014  13:37:00      -16.168      -31.236        2.402       17.482       21.881        8.624      305.632      478.780       74.379        0.105        0.043       35.173        4.552        0.017      340.078       13.851      865.597
12/06/2014  13:38:00      -12.302      -16.791        3.546       22.229       12.835        9.345      494.117      164.746       87.334        0.060        0.037       20.815       10.139        0.237      340.175       14.015      865.600
12/06/2014  13:39:00      -45.204      -37.664       -0.285       24.499       19.481       13.636      600.218      379.513      185.950        0.231        0.058       58.839        5.937        0.010      340.058       13.816      865.603
12/06/2014  13:40:00      -27.651       -0.540        4.616       21.317       24.921       10.993      454.404      621.079      120.836        0.099        0.060       27.656       12.350        0.199      340.168       14.001      865.605
12/06/2014  13:41:00      -53.415       10.506        5.224       34.184       18.928       16.388     1168.539      358.256      268.554        0.239        0.090       54.438       18.629        0.117      340.116       13.914      865.611
12/06/2014  13:42:00      -32.397       26.370        1.335       25.540       50.152       16.284      652.267     2515.239      265.159        0.259        0.172       41.773       21.685        0.269      340.103       13.892      865.625
12/06/2014  13:43:00      -39.623       81.428       -1.636       38.094       43.269       20.025     1451.171     1872.167      400.995        0.596        0.186       90.557       14.987        0.027      340.112       13.908      865.649
12/06/2014  13:44:00      -47.474       97.422      -10.878       29.912       33.634       24.613      894.721     1131.275      605.802        0.725        0.132      108.374       12.278        0.013      339.996       13.714      865.673
12/06/2014  13:45:00      -10.185       59.618       -6.589       21.191       25.321       13.755      449.054      641.140      189.205        0.249        0.064       60.482        6.601        0.012      340.061       13.820      865.678
12/06/2014  13:46:00      -23.300       -3.555       -3.352       47.051       27.281       15.725     2213.793      744.275      247.268        0.189        0.160       23.570       18.953        0.647      340.072       13.839      865.686
12/06/2014  13:47:00      -68.670       11.926       -4.077       46.821       26.683       22.291     2192.168      711.966      496.869        0.414        0.170       69.698       26.443        0.144      340.047       13.798      865.682
12/06/2014  13:48:00     -121.307       53.308      -18.076       44.145       27.636       21.950     1948.747      763.775      481.803        1.054        0.160      132.503       22.213        0.028      340.039       13.784      865.665
12/06/2014  13:49:00     -119.521       50.229      -15.793       36.331       29.847       21.598     1319.949      890.834      466.469        0.987        0.134      129.647       13.037        0.010      339.994       13.706      865.661
12/06/2014  13:50:00      -40.738       -6.315       -3.067       73.381       25.701       21.256     5384.702      660.540      451.809        0.410        0.325       41.225       30.334        0.541      340.023       13.758      865.657
12/06/2014  13:51:00      -13.677       23.623        8.873       13.162       21.768       17.459      173.228      473.854      304.815        0.089        0.048       27.297       14.012        0.264      340.148       13.968      865.672
12/06/2014  13:52:00     -140.789       57.340      -22.198       74.577       50.834       25.407     5561.659     2584.133      645.504        1.620        0.440      152.018       31.553        0.043      339.999       13.716      865.694
12/06/2014  13:53:00      -46.139       11.977       -7.870       42.459       24.633       15.670     1802.748      606.802      245.562        0.249        0.133       47.668       15.945        0.112      340.011       13.737      865.709
12/06/2014  13:54:00     -146.315       45.995      -27.873       45.904       44.956       29.541     2107.160     2021.019      872.643        1.465        0.250      153.375       20.089        0.017      339.986       13.696      865.720
12/06/2014  13:55:00     -175.558      -46.181      -22.584       35.317       51.793       28.668     1247.290     2682.547      821.828        1.911        0.238      181.531       20.995        0.013      339.946       13.628      865.722
12/06/2014  13:56:00     -122.420      -46.135      -10.706       59.892       38.042       28.195     3587.005     1447.199      794.980        1.153        0.291      130.824       27.801        0.045      339.970       13.666      865.716
12/06/2014  13:57:00     -183.360      -15.064      -13.103       59.023       45.967       29.194     3483.713     2112.940      852.279        2.023        0.322      183.977       22.844        0.015      339.982       13.685      865.706
12/06/2014  13:58:00     -144.958        5.871      -21.799       59.691       29.777       26.605     3563.025      886.652      707.801        1.334        0.258      145.077       31.164        0.046      340.013       13.742      865.697
12/06/2014  13:59:00      -99.593      -15.029       -0.930       66.429       59.416       39.767     4412.747     3530.255     1581.420        0.983        0.476      100.720       40.486        0.162      340.056       13.812      865.693
12/06/2014  14:00:00     -126.594       -0.151       -9.761       73.694       39.681       36.303     5430.756     1574.595     1317.929        1.222        0.416      126.594       42.985        0.115      340.019       13.750      865.695
12/06/2014  14:01:00     -126.222      -24.047      -13.436       43.812       49.321       28.116     1919.463     2432.537      790.535        1.092        0.257      128.493       21.481        0.028      340.024       13.760      865.693
12/06/2014  14:02:00     -184.480      -38.168      -14.371       44.651       40.728       26.790     1993.667     1658.807      717.703        2.003        0.219      188.387       22.873        0.015      339.975       13.675      865.690
12/06/2014  14:03:00     -126.800      -23.916       -2.506       38.418       46.368       28.769     1475.968     2149.962      827.640        1.055        0.223      129.036       24.210        0.035      340.008       13.732      865.691
12/06/2014  14:04:00     -145.610       31.731      -19.198       49.181       45.149       32.732     2418.773     2038.456     1071.372        1.405        0.276      149.028       27.803        0.035      340.015       13.743      865.698
12/06/2014  14:05:00      -37.271        8.933       12.867       50.631       30.552       24.395     2563.501      933.433      595.135        0.286        0.205       38.326       30.726        0.643      340.114       13.909      865.708
12/06/2014  14:06:00     -111.824      -49.328        1.253      122.016       78.169       32.956    14887.833     6110.435     1086.067        1.851        1.104      122.221       39.583        0.105      340.035       13.777      865.718
12/06/2014  14:07:00     -311.274      -84.414      -17.236      108.170      109.332       60.062    11700.782    11953.497     3607.481        6.578        1.363      322.517       54.748        0.029      339.902       13.549      865.718
12/06/2014  14:08:00     -266.083      -92.623      -20.965       57.377       71.937       36.610     3292.143     5174.869     1340.290        4.481        0.490      281.744       24.916        0.008      339.906       13.555      865.749
12/06/2014  14:09:00     -205.155      -74.114      -10.816       77.749       61.135       49.028     6044.884     3737.492     2403.764        2.994        0.609      218.132       41.231        0.036      339.932       13.601      865.784
12/06/2014  14:10:00     -197.582        9.528      -20.180       88.070       56.685       32.884     7756.362     3213.165     1081.375        2.579        0.603      197.812       32.169        0.026      339.915       13.571      865.790
12/06/2014  14:11:00     -264.006      -61.872      -20.590      101.580       61.821       34.524    10318.449     3821.881     1191.895        4.464        0.767      271.159       48.035        0.031      339.893       13.534      865.788
12/06/2014  14:12:00     -198.792      -79.069      -14.297      104.133       46.222       38.229    10843.672     2136.497     1461.489        3.021        0.722      213.939       49.767        0.054      339.912       13.567      865.790
12/06/2014  14:13:00     -118.397      -56.036       -0.285       58.825       37.379       33.445     3460.367     1397.157     1118.549        1.157        0.299      130.988       30.068        0.053      339.949       13.633      865.780
12/06/2014  14:14:00     -242.443      -33.112      -21.673       69.894       58.445       34.196     4885.222     3415.832     1169.400        3.491        0.474      244.694       29.686        0.015      339.878       13.508      865.789
12/06/2014  14:15:00     -281.822       18.430      -26.570       80.586       72.397       48.143     6494.027     5241.327     2317.701        4.726        0.703      282.424       38.662        0.019      339.861       13.480      865.799
12/06/2014  14:16:00     -114.263      -29.997        7.613      119.281       76.403       48.246    14227.952     5837.476     2327.699        1.820        1.120      118.135       65.142        0.304      339.966       13.661      865.820
12/06/2014  14:17:00     -215.669      -60.036      -16.314      111.102       79.273       40.719    12343.545     6284.169     1658.060        3.533        1.014      223.869       48.002        0.046      339.866       13.489      865.841
12/06/2014  14:18:00     -240.505      -58.664       -7.739      154.432       92.920       54.916    23849.246     8634.075     3015.797        4.841        1.775      247.556       69.174        0.078      339.841       13.448      865.854
12/06/2014  14:19:00     -280.002      -26.100       -7.746      151.263      103.016       61.031    22880.424    10612.299     3724.728        5.817        1.861      281.216       64.336        0.052      339.805       13.388      865.864
12/06/2014  14:20:00     -260.718     -108.422      -13.610       91.390      109.404       59.305     8352.220    11969.179     3517.076        5.187        1.192      282.364       52.381        0.034      339.769       13.326      865.852
12/06/2014  14:21:00     -210.680      -46.835      -10.496       75.248       87.845       48.330     5662.244     7716.708     2335.792        3.120        0.786      215.823       35.185        0.027      339.808       13.392      865.844
12/06/2014  14:22:00     -259.294      -72.600      -10.998      112.409       98.427       56.800    12635.675     9687.812     3226.205        4.908        1.277      269.266       51.672        0.037      339.790       13.363      865.825
12/06/2014  14:23:00     -254.383      -47.673      -17.278       88.649       85.886       40.919     7858.717     7376.386     1674.355        4.209        0.845      258.811       44.126        0.029      339.789       13.360      865.818
12/06/2014  14:24:00     -248.940      -40.403      -18.690      150.650       96.355       58.107    22695.440     9284.367     3376.481        4.965        1.768      252.198       55.143        0.048      339.772       13.333      865.790
12/06/2014  14:25:00     -311.230      -86.052       -3.607      125.812       91.495       52.442    15828.682     8371.374     2750.203        6.561        1.348      322.907       54.775        0.029      339.723       13.249      865.773
12/06/2014  14:26:00     -230.692      -57.198      -15.371       98.170       90.930       36.649     9637.269     8268.194     1343.185        3.798        0.962      237.677       32.810        0.019      339.744       13.284      865.758
12/06/2014  14:27:00     -254.466      -56.287      -10.800      140.067      106.298       59.572    19618.652    11299.289     3548.766        5.125        1.723      260.616       54.939        0.044      339.735       13.269      865.737
12/06/2014  14:28:00     -330.274      -77.674      -16.436       88.278      106.360       48.505     7792.917    11312.381     2352.736        6.842        1.073      339.285       41.242        0.015      339.718       13.241      865.732
12/06/2014  14:29:00     -293.958      -60.214      -17.015      114.066       87.751       56.084    13011.076     7700.264     3145.408        5.709        1.193      300.062       56.140        0.035      339.729       13.260      865.728
12/06/2014  14:30:00     -288.537      -74.783      -11.326      125.776       98.371       46.524    15819.696     9676.796     2164.475        5.831        1.383      298.070       47.579        0.025      339.718       13.241      865.738
12/06/2014  14:31:00     -258.558     -112.221       -2.595      110.340       83.656       43.286    12174.819     6998.296     1873.708        5.025        1.052      281.862       41.264        0.021      339.713       13.233      865.760
12/06/2014  14:32:00     -212.604      -72.582        0.505       97.270       75.112       50.378     9461.418     5641.766     2537.893        3.405        0.882      224.652       51.210        0.052      339.706       13.222      865.776
12/06/2014  14:33:00     -167.280      -80.920       -0.527      126.715      101.160       46.334    16056.661    10233.362     2146.880        3.148        1.422      185.824       54.121        0.085      339.729       13.260      865.771
12/06/2014  14:34:00     -198.632     -105.016       -5.271       75.900       61.974       47.959     5760.883     3840.769     2300.085        3.120        0.595      224.684       42.866        0.036      339.705       13.218      865.762
12/06/2014  14:35:00     -101.857      -26.298        2.026       73.220       85.415       42.443     5361.097     7295.694     1801.445        1.276        0.723      105.198       41.057        0.152      339.753       13.303      865.769
12/06/2014  14:36:00      -86.275      -55.740       -1.545       46.131       44.460       22.069     2128.074     1976.655      487.034        0.757        0.230      102.715       16.010        0.024      339.759       13.313      865.774
12/06/2014  14:37:00     -176.028      -53.929       -8.651       94.438       67.982       35.800     8918.539     4621.487     1281.673        2.439        0.741      184.104       35.033        0.036      339.740       13.280      865.768
12/06/2014  14:38:00     -209.065      -94.966       -0.563       84.916       68.526       48.509     7210.792     4695.845     2353.155        3.349        0.713      229.623       44.023        0.037      339.721       13.246      865.765
12/06/2014  14:39:00     -343.577     -119.024      -13.237      129.737       86.175       51.854    16831.663     7426.109     2688.791        7.966        1.347      363.610       43.579        0.014      339.695       13.202      865.772
12/06/2014  14:40:00     -321.906      -36.916      -30.786       82.243       63.354       43.255     6763.911     4013.705     1871.003        5.929        0.632      324.016       39.036        0.015      339.667       13.153      865.770
12/06/2014  14:41:00     -244.749      -29.993      -23.284       86.236       72.058       44.687     7436.579     5192.360     1996.970        3.798        0.731      246.580       42.123        0.029      339.671       13.160      865.767
12/06/2014  14:42:00     -181.894      -50.840      -15.775      107.520       85.954       38.584    11560.444     7388.030     1488.731        2.817        1.022      188.865       40.837        0.047      339.682       13.180      865.767
12/06/2014  14:43:00      -84.332      -27.899        0.477       93.047       48.827       40.669     8657.660     2384.075     1653.968        1.029        0.635       88.827       45.758        0.265      339.729       13.261      865.789
12/06/2014  14:44:00     -139.119      -40.948       -8.640       56.354       61.312       28.051     3175.766     3759.139      786.882        1.441        0.386      145.020       21.320        0.022      339.648       13.126      865.807
12/06/2014  14:45:00     -197.639      -54.660        2.986       63.429       57.564       36.856     4023.284     3313.651     1358.392        2.537        0.435      205.058       31.236        0.023      339.660       13.142      865.823
12/06/2014  14:46:00     -226.338       20.280       -4.998      130.725       73.388       60.685    17088.910     5385.810     3682.674        3.891        1.308      227.244       62.455        0.076      339.654       13.132      865.836
12/06/2014  14:47:00     -299.180      -97.100       -4.385      114.432       79.048       42.761    13094.585     6248.516     1828.474        6.006        1.059      314.543       45.508        0.021      339.632       13.096      865.857
12/06/2014  14:48:00     -235.809      -78.371       -4.889      132.284       73.707       48.967    17499.006     5432.650     2397.727        4.355        1.266      248.491       56.827        0.052      339.664       13.149      865.887
12/06/2014  14:49:00     -251.871      -37.596      -25.666       71.675       59.988       36.106     5137.261     3598.588     1303.617        3.777        0.502      254.661       38.619        0.023      339.646       13.119      865.924
12/06/2014  14:50:00     -216.762      -49.270       -5.082       55.607       51.261       37.341     3092.151     2627.716     1394.341        2.828        0.356      222.291       31.315        0.020      339.640       13.110      865.943
12/06/2014  14:51:00     -134.093      -53.734        0.782       76.545       55.551       37.520     5859.106     3085.889     1407.780        1.561        0.518      144.459       30.464        0.044      339.656       13.138      865.952
12/06/2014  14:52:00     -114.839      -14.137       -5.472       59.114       58.006       30.432     3494.473     3364.739      926.134        1.060        0.389      115.705       19.082        0.027      339.643       13.117      865.950
12/06/2014  14:53:00     -140.851       20.314      -21.548       38.764       42.010       26.219     1502.630     1764.803      687.426        1.233        0.198      142.309       16.216        0.013      339.644       13.120      865.952
12/06/2014  14:54:00     -121.683      -13.289      -12.511       44.224       51.271       33.132     1955.797     2628.674     1097.757        1.041        0.284      122.407       24.523        0.040      339.629       13.095      865.959
12/06/2014  14:55:00     -234.682        9.288      -20.840      116.020       62.651       44.496    13460.625     3925.155     1979.880        3.748        0.968      234.865       53.743        0.052      339.606       13.052      865.948
12/06/2014  14:56:00     -217.532      -26.655       -7.572       75.795       61.116       42.345     5744.892     3735.222     1793.066        2.968        0.564      219.159       44.241        0.041      339.600       13.040      865.950
12/06/2014  14:57:00     -298.109      -51.935      -15.027      113.481       75.411       48.541    12877.982     5686.780     2356.214        5.635        1.046      302.599       48.413        0.026      339.595       13.033      865.962
12/06/2014  14:58:00      -68.328      -37.969        5.980       63.424       69.430       37.919     4022.621     4820.463     1437.882        0.821        0.514       78.169       37.379        0.229      339.639       13.111      865.966
12/06/2014  14:59:00     -154.552      -57.484      -12.576      104.208       70.644       35.068    10859.271     4990.511     1229.776        2.221        0.854      164.896       39.509        0.057      339.602       13.045      865.972
12/06/2014  15:00:00     -318.751      -96.495      -37.346       97.891       97.882       41.850     9582.678     9580.920     1751.414        6.661        1.046      333.036       37.984        0.013      339.592       13.026      865.973
12/06/2014  15:01:00     -267.213      -96.143       -8.376      116.138       82.092       50.850    13488.128     6739.118     2585.709        5.176        1.141      283.983       56.120        0.039      339.590       13.025      865.988
12/06/2014  15:02:00     -344.595      -48.211      -16.712      123.750       72.157       56.156    15314.096     5206.654     3153.473        7.251        1.184      347.952       52.912        0.023      339.588       13.021      865.986
12/06/2014  15:03:00     -280.563     -101.915      -11.157      121.442       78.614       44.529    14748.181     6180.123     1982.847        5.606        1.146      298.500       42.365        0.020      339.585       13.016      865.987
12/06/2014  15:04:00     -179.535      -22.210       -8.450       80.955       65.540       31.976     6553.751     4295.515     1022.444        2.233        0.594      180.903       31.316        0.030      339.607       13.054      866.004
12/06/2014  15:05:00     -146.842      -68.748       -1.524       65.640       62.057       35.513     4308.613     3851.020     1261.197        1.785        0.471      162.138       36.755        0.051      339.578       13.008      865.993
12/06/2014  15:06:00     -195.447      -88.638        3.714       99.304       85.533       50.284     9861.244     7315.904     2528.525        3.288        0.985      214.607       57.089        0.071      339.559       12.974      865.986
12/06/2014  15:07:00     -263.560      -85.790       -7.062       78.938       74.151       37.978     6231.147     5498.372     1442.292        4.502        0.659      277.171       38.890        0.020      339.549       12.956      865.995
12/06/2014  15:08:00     -267.808      -30.077      -15.837      116.153      107.149       59.251    13491.574    11480.857     3510.674        5.067        1.424      269.492       57.024        0.045      339.558       12.973      866.013
12/06/2014  15:09:00     -257.690       32.350      -15.425       97.418       76.252       49.667     9490.291     5814.357     2466.835        4.273        0.889      259.713       47.266        0.033      339.555       12.967      866.023
12/06/2014  15:10:00     -311.607       16.107      -31.088       93.994       47.669       40.626     8834.860     2272.333     1650.479        5.554        0.638      312.023       46.500        0.022      339.549       12.957      866.029
12/06/2014  15:11:00     -192.636      -29.099       -3.053       71.524       79.331       36.625     5115.702     6293.432     1341.374        2.536        0.638      194.821       33.738        0.030      339.555       12.967      866.038
12/06/2014  15:12:00     -186.887      -51.549      -12.139       68.408       52.664       32.257     4679.708     2773.476     1040.535        2.311        0.425      193.866       26.705        0.019      339.545       12.949      866.033
12/06/2014  15:13:00     -298.315      -56.196      -25.709       47.363       43.616       34.486     2243.279     1902.335     1189.257        4.907        0.267      303.562       21.149        0.005      339.550       12.958      866.047
12/06/2014  15:14:00     -248.141      -53.663      -15.134       87.451       87.128       49.113     7647.749     7591.348     2412.094        4.116        0.883      253.878       53.690        0.045      339.536       12.933      866.062
12/06/2014  15:15:00     -186.414      -29.494      -12.077      118.980       71.318       38.349    14156.141     5086.237     1470.630        2.824        1.036      188.733       48.429        0.066      339.538       12.935      866.075
12/06/2014  15:16:00     -191.381      -50.788        1.585      117.464       65.857       42.190    13797.774     4337.083     1779.989        2.956        0.996      198.005       48.364        0.060      339.528       12.919      866.099
12/06/2014  15:17:00     -177.698      -16.246       -4.297       79.405       75.143       41.685     6305.117     5646.418     1737.650        2.277        0.684      178.439       41.382        0.054      339.514       12.897      866.112
12/06/2014  15:18:00     -196.867      -50.178       -1.567       93.638       83.728       44.739     8768.033     7010.435     2001.620        2.952        0.889      203.161       51.239        0.064      339.518       12.901      866.103
12/06/2014  15:19:00     -127.404      -40.710        3.326      105.218       86.470       46.527    11070.798     7477.117     2164.781        1.930        1.036      133.750       51.696        0.149      339.516       12.901      866.116
12/06/2014  15:20:00     -265.687     -124.524       -1.567      103.997       83.044       52.962    10815.445     6896.342     2804.932        5.330        1.026      293.420       53.185        0.033      339.515       12.897      866.124
12/06/2014  15:21:00     -199.855     -103.460       -9.036       65.659       57.256       39.956     4311.140     3278.199     1596.455        2.995        0.459      225.047       24.098        0.011      339.518       12.901      866.113
12/06/2014  15:22:00     -111.619      -28.115        0.760       46.867       50.893       27.181     2196.474     2590.054      738.801        0.939        0.276      115.105       20.906        0.033      339.503       12.880      866.111
12/06/2014  15:23:00     -165.532      -55.374      -10.344       80.357       74.691       43.170     6457.185     5578.749     1863.666        2.223        0.695      174.548       44.087        0.064      339.511       12.893      866.124
12/06/2014  15:24:00     -172.590      -59.231       -1.857      100.898       79.882       40.280    10180.466     6381.136     1622.511        2.574        0.909      182.471       13.196        0.005      339.486       12.850      866.128
12/06/2014  15:25:00     -144.731      -41.413       -5.020       95.487       63.580       35.674     9117.776     4042.375     1272.602        1.856        0.722      150.540       35.306        0.055      339.487       12.851      866.149
12/06/2014  15:26:00     -190.504      -93.104       -8.344       75.660       67.202       37.686     5724.427     4516.078     1420.206        2.834        0.583      212.038       36.713        0.030      339.472       12.825      866.185
12/06/2014  15:27:00     -189.207       31.344      -21.409       93.686       67.413       58.357     8777.014     4544.504     3405.490        2.698        0.836      191.786       37.275        0.038      339.488       12.852      866.216
12/06/2014  15:28:00     -271.796       36.790      -24.796      126.627       70.643       57.014    16034.455     4990.481     3250.564        5.005        1.214      274.274       60.786        0.049      339.485       12.847      866.241
12/06/2014  15:29:00     -261.188      -67.779       -9.212      103.948       85.313       52.874    10805.213     7278.229     2795.704        4.688        1.044      269.839       53.437        0.039      339.455       12.796      866.288
12/06/2014  15:30:00     -213.029      -46.960        0.772       87.360       95.578       40.732     7631.817     9135.178     1659.079        3.300        0.921      218.143       34.490        0.025      339.459       12.804      866.327
12/06/2014  15:31:00     -351.127      -69.900      -21.273      121.697      101.871       61.430    14810.140    10377.776     3773.680        7.879        1.448      358.017       61.966        0.030      339.453       12.792      866.357
12/06/2014  15:32:00     -209.358      -55.287       -1.081       82.906       81.817       47.919     6873.326     6694.000     2296.210        3.137        0.793      216.536       51.547        0.057      339.452       12.790      866.391
12/06/2014  15:33:00     -165.499      -45.799      -13.713       74.013       77.631       40.474     5477.955     6026.594     1638.144        2.141        0.657      171.719       33.925        0.039      339.447       12.784      866.410
12/06/2014  15:34:00     -172.658     -104.213        2.763       92.775       83.515       44.474     8607.202     6974.774     1977.951        2.912        0.878      201.671       45.347        0.051      339.437       12.768      866.413
12/06/2014  15:35:00     -303.893       -7.707      -21.306      101.283       91.234       49.505    10258.166     8323.615     2450.739        5.694        1.052      303.991       50.384        0.027      339.435       12.761      866.412
12/06/2014  15:36:00     -298.582      -74.884       -4.492      108.439       99.140       52.623    11759.021     9828.686     2769.129        5.956        1.218      307.829       40.227        0.017      339.427       12.749      866.436
12/06/2014  15:37:00     -264.832      -56.542      -15.976      145.345      114.761       55.109    21125.243    13169.974     3036.968        5.545        1.867      270.801       63.703        0.055      339.428       12.751      866.460
12/06/2014  15:38:00     -220.373      -25.775       -2.821       99.438      123.620       58.459     9887.992    15281.984     3417.479        3.891        1.429      221.875       57.205        0.066      339.412       12.727      866.491
12/06/2014  15:39:00     -155.842      -43.757       -6.207       90.992       72.024       45.485     8279.569     5187.492     2068.864        2.088        0.777      161.869       52.111        0.104      339.413       12.727      866.510
12/06/2014  15:40:00     -261.146      -39.028      -20.488      141.368       89.068       52.706    19984.943     7933.062     2777.964        5.041        1.535      264.046       42.385        0.026      339.394       12.695      866.520
12/06/2014  15:41:00     -324.848      -76.247       -7.494      124.622      109.056       58.930    15530.560    11893.298     3472.717        7.114        1.545      333.677       59.693        0.032      339.393       12.693      866.511
12/06/2014  15:42:00     -305.714       -3.262       -7.628      132.160       96.198       54.975    17466.314     9254.005     3022.211        6.163        1.487      305.731       52.936        0.030      339.404       12.711      866.506
12/06/2014  15:43:00     -332.837      -84.422      -25.744      151.790      103.609       60.080    23040.244    10734.735     3609.568        7.797        1.869      343.377       67.460        0.039      339.422       12.741      866.493
12/06/2014  15:44:00     -424.247      -66.272      -32.726      169.461      121.542       64.800    28716.967    14772.568     4199.083       11.656        2.384      429.392       79.260        0.034      339.442       12.776      866.467
12/06/2014  15:45:00     -308.412      -66.256      -12.069      136.246      135.100       74.533    18562.980    18252.130     5555.100        7.100        2.119      315.449       79.562        0.064      339.461       12.807      866.466
12/06/2014  15:46:00     -297.555       26.325       -6.092      130.118      114.685       50.249    16930.726    13152.552     2524.974        6.093        1.630      298.717       55.058        0.034      339.474       12.828      866.466
12/06/2014  15:47:00     -253.877      -93.837      -12.495       97.929       89.686       54.714     9590.020     8043.565     2993.606        4.702        1.031      270.664       55.221        0.042      339.492       12.859      866.479
12/06/2014  15:48:00     -320.010     -197.896      -10.150      175.790      123.988       77.602    30902.262    15372.999     6022.004        9.697        2.615      376.257       76.142        0.041      339.482       12.841      866.489
12/06/2014  15:49:00     -176.536      -58.947       -6.222       82.594       86.223       42.825     6821.774     7434.335     1833.982        2.538        0.805      186.117       37.667        0.041      339.514       12.896      866.516
12/06/2014  15:50:00      -99.806      -45.108       -7.752      128.372       77.426       47.762    16479.398     5994.784     2281.209        1.840        1.238      109.526       60.814        0.308      339.548       12.957      866.514
12/06/2014  15:51:00     -240.407      -10.264      -15.985      103.314       90.014       45.660    10673.884     8102.502     2084.805        3.950        1.043      240.626       44.411        0.034      339.520       12.906      866.523
12/06/2014  15:52:00     -210.556        3.335      -14.464       90.160       75.397       46.393     8128.864     5684.696     2152.346        3.026        0.798      210.582       40.062        0.036      339.549       12.955      866.557
12/06/2014  15:53:00     -279.179       -0.807      -24.981      100.507       79.403       49.050    10101.700     6304.879     2405.873        4.869        0.941      279.180       54.278        0.038      339.515       12.897      866.584
12/06/2014  15:54:00     -146.540       28.252       -6.000       59.382       60.189       35.050     3526.216     3622.768     1228.475        1.534        0.419      149.238       29.918        0.040      339.545       12.949      866.582
12/06/2014  15:55:00     -129.449       -8.008        4.422      112.710       46.925       48.615    12703.630     2201.922     2363.454        1.705        0.863      129.697       64.046        0.244      339.576       13.000      866.586
12/06/2014  15:56:00     -169.377        1.864       -2.632      116.019       88.457       35.723    13460.513     7824.703     1276.158        2.563        1.128      169.388       38.922        0.053      339.555       12.967      866.573
12/06/2014  15:57:00     -137.765     -107.613        1.019      132.838       95.706       62.935    17646.015     9159.687     3960.804        3.066        1.538      174.813       78.217        0.200      339.578       13.004      866.545
12/06/2014  15:58:00     -126.160      -25.049        9.522      174.712       84.803       68.109    30524.201     7191.488     4638.864        2.949        2.118      128.622       80.790        0.395      339.590       13.025      866.534
12/06/2014  15:59:00     -165.880      -52.921       -3.425      152.090      122.058       68.127    23131.373    14898.071     4641.338        3.649        2.134      174.117       76.880        0.195      339.555       12.966      866.526
12/06/2014  16:00:00     -332.391     -118.994      -24.227      125.362      139.109       69.741    15715.709    19351.242     4863.862        8.257        1.997      353.049       67.319        0.036      339.515       12.897      866.539
12/06/2014  16:01:00     -320.716      -58.684      -24.593      150.074       97.414       62.314    22522.066     9489.452     3883.063        7.139        1.795      326.041       67.483        0.043      339.511       12.891      866.548
12/06/2014  16:02:00     -179.345      -61.787       -7.430      115.101      125.321       48.708    13248.266    15705.457     2372.434        3.368        1.566      189.690       53.565        0.080      339.533       12.929      866.576
12/06/2014  16:03:00     -265.551      -31.626      -28.908      107.765      102.951       55.687    11613.389    10598.820     3101.066        4.883        1.266      267.428       59.581        0.050      339.516       12.898      866.607
12/06/2014  16:04:00     -187.949        0.469      -14.675       85.327       73.076       37.908     7280.762     5340.098     1437.025        2.480        0.703      187.950       33.384        0.032      339.506       12.884      866.641
12/06/2014  16:05:00     -225.636       13.523      -15.483       89.710       85.961       48.634     8047.816     7389.273     2365.238        3.456        0.890      226.040       46.490        0.042      339.510       12.889      866.668
12/06/2014  16:06:00     -222.846       44.571       -8.801      122.286      101.684       47.316    14953.795    10339.591     2238.850        3.962        1.377      227.259       41.812        0.034      339.494       12.862      866.683
12/06/2014  16:07:00     -248.867        7.952       -3.898       71.081       72.893       42.005     5052.461     5313.342     1764.458        3.707        0.607      248.994       37.029        0.022      339.484       12.846      866.685
12/06/2014  16:08:00     -219.853       19.097       -8.088       88.126       72.903       47.409     7766.159     5314.794     2247.654        3.204        0.766      220.681       44.608        0.041      339.470       12.821      866.698
12/06/2014  16:09:00     -111.282      -15.461        3.003       75.883       63.801       33.164     5758.236     4070.563     1099.874        1.178        0.546      112.351       31.013        0.076      339.471       12.825      866.718
12/06/2014  16:10:00     -225.036      -58.430       -1.782      139.335      111.018       49.346    19414.333    12325.005     2435.054        4.411        1.709      232.498       64.574        0.077      339.442       12.776      866.720
12/06/2014  16:11:00     -173.049      -27.976      -14.294       86.425       66.119       32.044     7469.280     4371.669     1026.817        2.190        0.643      175.296       28.022        0.026      339.442       12.776      866.742
12/06/2014  16:12:00     -176.918      -61.330       -0.674       77.404       69.192       43.564     5991.441     4787.571     1897.828        2.387        0.634      187.247       40.998        0.048      339.433       12.761      866.754
12/06/2014  16:13:00     -303.484      -56.543      -11.339      118.576       83.758       54.284    14060.255     7015.466     2946.795        5.972        1.201      308.706       51.523        0.028      339.442       12.776      866.761
12/06/2014  16:14:00     -308.226       33.844      -22.704      112.700       79.161       55.034    12701.327     6266.479     3028.760        5.933        1.100      310.079       50.903        0.027      339.437       12.766      866.765
12/06/2014  16:15:00     -245.016      -62.855       -0.053      130.823       79.387       62.563    17114.590     6302.277     3914.131        4.565        1.367      252.949       68.247        0.073      339.406       12.715      866.774
12/06/2014  16:16:00     -264.194     -117.669      -17.586      153.824       86.809       56.532    23661.674     7535.800     3195.841        5.917        1.720      289.213       63.116        0.048      339.426       12.749      866.789
12/06/2014  16:17:00     -114.253      -75.638        7.307       95.155       93.171       48.109     9054.454     8680.860     2314.508        1.944        1.002      137.021       55.277        0.163      339.407       12.719      866.800
12/06/2014  16:18:00     -104.212      -23.768       -4.939      148.261       61.484       64.708    21981.416     3780.306     4187.064        2.069        1.497      106.888       62.503        0.342      339.415       12.732      866.800
12/06/2014  16:19:00     -136.383      -11.791        7.371      113.703       81.953       63.334    12928.408     6716.332     4011.158        2.122        1.183      136.891       49.809        0.132      339.392       12.693      866.809
12/06/2014  16:20:00     -331.457      -67.784      -17.237      146.007      108.159       58.608    21318.031    11698.373     3434.919        7.560        1.823      338.317       70.769        0.044      339.388       12.684      866.807
12/06/2014  16:21:00     -305.092      -92.557      -11.987      107.334       84.581       40.419    11520.688     7153.878     1633.708        6.105        1.015      318.823       36.743        0.013      339.363       12.642      866.800
12/06/2014  16:22:00     -275.881      -33.047      -11.455      129.426       98.938       57.493    16751.104     9788.788     3305.430        5.358        1.492      277.854       71.766        0.067      339.339       12.600      866.801
12/06/2014  16:23:00      -88.740      -36.070       -4.286       67.938       51.982       36.830     4615.545     2702.104     1356.442        0.893        0.434       95.790       27.019        0.080      339.353       12.628      866.805
12/06/2014  16:24:00     -247.718      -17.295      -19.321       88.676       85.539       43.872     7863.383     7316.912     1924.768        3.957        0.855      248.321       30.177        0.015      339.341       12.603      866.820
12/06/2014  16:25:00     -286.372      -46.827      -19.510       91.919       80.146       53.441     8449.173     6423.304     2855.894        5.115        0.886      290.175       44.717        0.024      339.333       12.590      866.825
12/06/2014  16:26:00     -139.376      -55.805        9.978      131.240       88.292       59.254    17223.976     7795.515     3511.004        2.558        1.427      150.132       64.965        0.187      339.309       12.551      866.826
12/06/2014  16:27:00     -307.929      -19.233       -9.199      120.666       89.372       63.837    14560.276     7987.417     4075.218        6.094        1.331      308.529       66.930        0.047      339.312       12.554      866.845
12/06/2014  16:28:00     -269.610      -22.915       -4.762      123.560       89.394       54.919    15267.007     7991.208     3016.069        4.975        1.314      270.582       57.440        0.045      339.304       12.543      866.881
12/06/2014  16:29:00     -262.919      -24.937       -9.612       93.986      100.909       47.669     8833.310    10182.644     2272.306        4.556        1.064      264.099       43.078        0.027      339.305       12.544      866.893
12/06/2014  16:30:00     -292.218      -45.358      -27.276      185.771       79.812       55.499    34510.796     6370.034     3080.190        6.607        2.198      295.717       80.462        0.074      339.324       12.577      866.923
12/06/2014  16:31:00     -259.780      -86.219      -12.734      106.940      106.746       54.465    11436.096    11394.701     2966.487        5.043        1.290      273.714       40.583        0.022      339.291       12.520      866.947
12/06/2014  16:32:00     -366.569     -147.813      -13.293      150.794      114.093       58.217    22738.812    13017.201     3389.165        9.776        1.957      395.249       63.208        0.026      339.289       12.515      866.964
12/06/2014  16:33:00     -282.909      -47.907       -3.378      135.613      113.548       59.078    18390.803    12893.086     3490.208        5.855        1.739      286.937       63.873        0.050      339.268       12.480      866.979
12/06/2014  16:34:00     -299.177      -19.594      -25.986      140.359       92.544       51.309    19700.716     8564.381     2632.664        6.073        1.545      299.818       59.972        0.040      339.279       12.500      867.000
12/06/2014  16:35:00     -251.730     -122.223      -13.139       83.480       76.063       40.969     6968.857     5785.523     1678.442        4.645        0.722      279.833       41.521        0.022      339.284       12.506      867.027
12/06/2014  16:36:00     -316.609     -118.783       -9.641      117.352      105.593       55.224    13771.527    11149.781     3049.679        7.120        1.399      338.158       59.781        0.031      339.274       12.491      867.026
12/06/2014  16:37:00     -212.034      -62.456      -13.777       69.853       79.414       48.280     4879.437     6306.653     2330.919        3.128        0.676      221.041       33.745        0.023      339.292       12.522      867.038
12/06/2014  16:38:00     -198.922      -78.032       -9.639       82.732       81.056       33.019     6844.524     6570.125     1090.260        3.013        0.725      213.679       33.507        0.025      339.275       12.494      867.033
12/06/2014  16:39:00     -195.686       -3.893       -5.680       76.914       86.689       43.602     5915.728     7514.955     1901.105        2.683        0.767      195.724       39.709        0.041      339.260       12.469      867.035
12/06/2014  16:40:00     -196.114      -49.839       -9.952      113.570       76.738       57.924    12898.210     5888.761     3355.142        3.159        1.107      202.348       56.889        0.079      339.244       12.440      867.033
12/06/2014  16:41:00     -159.093      -81.479       -5.488      107.125       71.404       40.667    11475.717     5098.501     1653.833        2.510        0.911      178.744       44.430        0.062      339.234       12.424      867.039
12/06/2014  16:42:00     -203.587      -64.415       -8.847      101.558      102.522       50.475    10313.938    10510.835     2547.727        3.452        1.169      213.535       35.394        0.027      339.232       12.422      867.062
12/06/2014  16:43:00     -325.803       -4.284      -22.500      139.576      112.991       61.073    19481.380    12767.050     3729.950        7.132        1.799      325.831       72.039        0.049      339.239       12.434      867.055
12/06/2014  16:44:00     -250.652       30.636       10.356      194.539      121.608       76.521    37845.520    14788.404     5855.461        6.117        2.924      252.517       87.690        0.121      339.252       12.455      867.065
12/06/2014  16:45:00     -276.075      -10.192      -23.845      106.484      112.779       60.532    11338.913    12719.194     3664.093        5.230        1.386      276.263       56.060        0.041      339.273       12.489      867.089
12/06/2014  16:46:00     -240.872      -63.684       -4.507      123.256      109.637       52.459    15191.958    12020.286     2751.948        4.602        1.498      249.149       59.776        0.058      339.269       12.484      867.098
12/06/2014  16:47:00     -260.416       10.501      -15.431      126.999       97.100       50.383    16128.694     9428.438     2538.456        4.812        1.405      260.628       49.373        0.036      339.288       12.516      867.080
12/06/2014  16:48:00     -248.485      -59.613      -11.067      111.618      101.183       55.614    12458.529    10237.935     3092.904        4.560        1.289      255.536       55.522        0.047      339.246       12.445      867.084
12/06/2014  16:49:00     -182.247      -75.948        1.399      104.913       92.421       56.145    11006.789     8541.716     3152.268        3.084        1.135      197.439       62.032        0.099      339.262       12.472      867.065
12/06/2014  16:50:00     -274.701      -81.493      -16.219      100.106       86.959       52.717    10021.195     7561.940     2779.046        5.136        1.018      286.534       46.992        0.027      339.256       12.463      867.052
12/06/2014  16:51:00     -267.088       10.720       -6.565      102.735       83.076       40.234    10554.570     6901.561     1618.776        4.528        0.954      267.303       49.272        0.034      339.258       12.464      867.046
12/06/2014  16:52:00     -184.908      -43.585      -13.661       80.965       67.518       36.913     6555.278     4558.633     1362.584        2.437        0.624      189.975       42.300        0.050      339.240       12.435      867.032
12/06/2014  16:53:00     -128.651      -56.255       11.859       96.093       70.968       41.515     9233.795     5036.431     1723.481        1.792        0.800      140.413       43.643        0.097      339.217       12.398      867.030
12/06/2014  16:54:00     -153.224      -52.915       -3.658       63.183       52.511       32.512     3992.078     2757.389     1057.033        1.705        0.390      162.103       23.338        0.021      339.215       12.394      867.027
12/06/2014  16:55:00     -115.789       16.987       11.141      128.980       69.184       50.319    16635.805     4786.400     2532.011        1.888        1.198      117.029       60.668        0.269      339.198       12.365      867.023
12/06/2014  16:56:00     -175.395      -70.114       -3.518      100.596       77.550       47.337    10119.492     6013.997     2240.780        2.703        0.919      188.890       47.823        0.064      339.204       12.374      867.030
12/06/2014  16:57:00     -184.025     -103.844       -3.166      154.906      115.816       65.527    23995.771    13413.303     4293.742        4.317        2.085      211.303       73.617        0.121      339.218       12.399      867.034
12/06/2014  16:58:00      -93.638      -40.296       12.730      112.231       84.018       50.949    12595.839     7059.058     2595.763        1.640        1.113      101.940       50.135        0.242      339.211       12.389      867.030
12/06/2014  16:59:00     -137.493       -8.996       -5.028      102.615       74.292       45.732    10529.913     5519.292     2091.374        1.857        0.907      137.787       53.323        0.150      339.257       12.465      867.048
12/06/2014  17:00:00      -79.261      -36.696        2.575       70.464       56.919       33.992     4965.106     3239.824     1155.476        0.850        0.468       87.343       26.258        0.090      339.236       12.430      867.038
12/06/2014  17:01:00     -284.974      -76.623      -27.000       97.617       91.731       41.274     9529.094     8414.489     1703.545        5.372        0.982      295.096       39.461        0.018      339.207       12.379      867.037
12/06/2014  17:02:00     -232.746      -26.212      -17.920       85.998       60.341       39.705     7395.737     3641.081     1576.493        3.389        0.631      234.218       43.906        0.035      339.162       12.304      867.041
12/06/2014  17:03:00     -313.789      -49.818      -17.296       97.514       76.888       55.391     9508.945     5911.774     3068.199        5.986        0.924      317.719       57.292        0.033      339.159       12.299      867.063
12/06/2014  17:04:00     -198.372      -88.109       -3.809       94.402       75.492       39.870     8911.692     5698.973     1589.645        3.166        0.810      217.059       49.193        0.051      339.178       12.329      867.075
12/06/2014  17:05:00     -169.834      -92.205       -5.395       67.853       72.530       37.824     4604.039     5260.612     1430.678        2.433        0.565      193.250       34.125        0.031      339.204       12.375      867.072
12/06/2014  17:06:00     -134.564      -60.426        0.924      100.359       69.795       42.945    10071.829     4871.379     1844.240        1.927        0.839      147.508       49.689        0.113      339.182       12.337      867.089
12/06/2014  17:07:00     -239.451     -105.015       -2.922       92.584      100.940       54.366     8571.739    10188.843     2955.709        4.504        1.086      261.467       44.983        0.030      339.142       12.269      867.117
12/06/2014  17:08:00     -333.838      -36.221      -20.426      119.750       72.354       56.053    14340.036     5235.037     3141.905        6.794        1.136      335.797       64.996        0.037      339.161       12.302      867.131
12/06/2014  17:09:00     -247.239      -23.938      -15.533       78.556       71.118       42.518     6171.104     5057.831     1807.750        3.749        0.652      248.395       42.128        0.029      339.134       12.255      867.139
12/06/2014  17:10:00     -313.121      -38.661      -16.556      108.867       63.666       46.251    11852.096     4053.398     2139.190        5.893        0.902      315.499       53.551        0.029      339.103       12.204      867.150
12/06/2014  17:11:00     -156.393      -27.615        2.247       87.728       73.694       40.220     7696.280     5430.872     1617.677        1.998        0.737      158.813       43.504        0.075      339.038       12.096      867.162
12/06/2014  17:12:00     -174.911      -56.306       -5.864      104.801       64.073       43.391    10983.235     4105.377     1882.758        2.538        0.849      183.751       46.082        0.063      339.027       12.078      867.186
12/06/2014  17:13:00     -166.861      -12.374        1.743      101.872       59.969       39.122    10377.906     3596.278     1530.565        2.175        0.775      167.319       48.599        0.084      339.055       12.125      867.198
12/06/2014  17:14:00     -320.261      -52.925      -26.564       72.953       64.330       32.267     5322.185     4138.331     1041.149        5.829        0.525      324.605       33.780        0.011      339.101       12.200      867.211
12/06/2014  17:15:00     -165.588      -20.187       -0.790       73.140       74.041       40.779     5349.432     5482.016     1662.940        2.016        0.625      166.814       37.571        0.051      339.044       12.107      867.210
12/06/2014  17:16:00     -186.015      -49.412       -4.892       63.742       53.847       35.154     4063.003     2899.547     1235.811        2.263        0.410      192.466       27.622        0.021      339.036       12.093      867.215
12/06/2014  17:17:00     -199.760      -42.693       -7.276       81.517       64.268       36.433     6645.059     4130.388     1327.357        2.694        0.605      204.272       38.140        0.035      339.022       12.069      867.238
12/06/2014  17:18:00     -184.303      -29.339      -11.870       62.148       63.299       31.770     3862.383     4006.802     1009.339        2.192        0.444      186.624       27.361        0.021      338.998       12.028      867.258
12/06/2014  17:19:00     -227.980      -44.614       -6.269       98.598       66.664       40.896     9721.546     4444.132     1672.496        3.492        0.792      232.304       45.261        0.038      338.997       12.028      867.273
12/06/2014  17:20:00     -215.264       -1.237       -2.692      134.142       85.798       53.261    17994.103     7361.234     2836.697        3.726        1.410      215.268       59.569        0.077      338.970       11.981      867.285
12/06/2014  17:21:00     -200.526      -42.228       -5.106       86.636       70.959       40.999     7505.741     5035.221     1680.891        2.812        0.711      204.924       46.954        0.052      338.976       11.992      867.302
12/06/2014  17:22:00     -162.256      -52.559        2.102       65.348       56.553       35.859     4270.421     3198.237     1285.840        1.892        0.438      170.556       35.147        0.042      338.973       11.987      867.325
12/06/2014  17:23:00     -152.992      -66.756       -3.328       68.352       61.496       41.678     4671.929     3781.724     1737.023        1.903        0.510      166.922       39.096        0.055      338.985       12.007      867.335
12/06/2014  17:24:00     -181.034      -38.617       -1.784       99.407       91.643       41.381     9881.725     8398.419     1712.361        2.713        1.000      185.107       49.056        0.070      338.990       12.015      867.341
12/06/2014  17:25:00     -195.390       -8.980       -8.175       83.172       49.105       41.823     6917.598     2411.270     1749.181        2.470        0.554      195.597       42.650        0.048      338.980       11.997      867.351
12/06/2014  17:26:00     -197.460      -45.869       -7.640       72.115       63.256       37.595     5200.629     4001.373     1413.377        2.588        0.531      202.717       37.225        0.034      338.969       11.981      867.371
12/06/2014  17:27:00     -226.487      -32.168       -9.077       80.406       54.470       39.970     6465.153     2966.961     1597.607        3.172        0.551      228.760       41.981        0.034      338.951       11.948      867.382
12/06/2014  17:28:00     -168.588      -45.657        2.170       86.896       66.704       42.857     7550.982     4449.432     1836.761        2.217        0.692      174.661       46.845        0.072      338.930       11.915      867.389
12/06/2014  17:29:00     -182.944      -37.801      -20.288       55.291       47.846       35.453     3057.124     2289.229     1256.941        2.095        0.330      186.809       29.038        0.024      338.930       11.915      867.386
12/06/2014  17:30:00     -162.520      -38.694      -11.120       78.959       69.521       39.256     6234.601     4833.134     1541.008        2.032        0.630      167.063       39.624        0.056      338.919       11.897      867.410
12/06/2014  17:31:00     -154.201      -12.434      -11.526       55.546       72.210       30.267     3085.355     5214.343      916.118        1.664        0.461      154.702       32.390        0.044      338.889       11.847      867.429
12/06/2014  17:32:00     -151.078        1.728       -7.874       72.287       42.253       30.976     5225.426     1785.305      959.525        1.543        0.399      151.088       36.104        0.057      338.903       11.871      867.435
12/06/2014  17:33:00     -135.247      -59.933       -5.887       61.579       53.128       28.745     3791.923     2822.615      826.299        1.468        0.372      147.932       23.561        0.025      338.881       11.834      867.447
12/06/2014  17:34:00     -179.014      -46.902       -4.938       75.574       56.554       36.012     5711.370     3198.326     1296.829        2.224        0.510      185.056       37.211        0.040      338.862       11.800      867.457
12/06/2014  17:35:00     -177.038      -51.642        1.524       95.766       62.797       38.262     9171.075     3943.410     1463.989        2.429        0.729      184.416       41.067        0.050      338.867       11.807      867.473
12/06/2014  17:36:00     -170.054      -34.736       -7.842       95.363       76.285       41.182     9094.102     5819.402     1695.940        2.339        0.830      173.565       47.988        0.076      338.873       11.819      867.486
12/06/2014  17:37:00     -179.302      -50.607       -1.851       92.373       83.401       44.070     8532.727     6955.804     1942.174        2.607        0.872      186.307       41.640        0.050      338.877       11.825      867.499
12/06/2014  17:38:00     -238.168      -36.677      -12.865      114.063       84.360       51.689    13010.410     7116.582     2671.769        4.051        1.140      240.976       46.633        0.037      338.914       11.887      867.517
12/06/2014  17:39:00     -251.284      -23.134       -9.262       97.236       96.708       45.216     9454.920     9352.526     2044.475        4.230        1.043      252.346       49.129        0.038      338.909       11.878      867.534
12/06/2014  17:40:00     -235.924      -60.019       -0.573      119.528       85.054       50.458    14286.916     7234.141     2545.968        4.166        1.203      243.439       53.761        0.049      338.928       11.911      867.552
12/06/2014  17:41:00     -233.426      -17.630       -6.454      101.049       67.686       48.657    10210.996     4581.384     2367.505        3.600        0.858      234.091       49.342        0.044      338.926       11.907      867.567
12/06/2014  17:42:00     -314.517      -69.493      -10.559      114.342       82.064       42.887    13073.990     6734.495     1839.298        6.275        1.082      322.103       46.010        0.020      338.984       12.004      867.561
12/06/2014  17:43:00     -307.881      -72.439      -17.719      107.160       80.860       46.291    11483.284     6538.409     2142.823        6.025        1.008      316.288       41.396        0.017      338.975       11.987      867.552
12/06/2014  17:44:00     -284.224      -27.360        0.228      113.903       93.335       48.219    12973.978     8711.400     2325.033        5.277        1.201      285.538       47.817        0.028      339.008       12.045      867.550
12/06/2014  17:45:00     -268.542      -84.464        3.645      102.455       91.693       48.170    10497.127     8407.620     2320.366        5.024        1.061      281.512       47.733        0.029      339.093       12.186      867.548
12/06/2014  17:46:00     -260.737      -72.377      -25.751       70.263       53.548       36.704     4936.917     2867.394     1347.176        4.152        0.458      270.596       34.126        0.016      339.088       12.176      867.553
12/06/2014  17:47:00     -209.301      -13.971      -19.265       95.757       74.911       50.917     9169.312     5611.703     2592.554        3.087        0.869      209.767       56.284        0.072      339.095       12.192      867.553
12/06/2014  17:48:00     -127.027      -11.567      -12.251      103.483       54.325       39.434    10708.822     2951.257     1555.025        1.581        0.761      127.553       49.720        0.152      339.082       12.170      867.553
12/06/2014  17:49:00     -238.819      -73.079      -23.889       95.917       75.655       40.909     9199.983     5723.703     1673.576        3.977        0.830      249.750       29.785        0.014      339.134       12.256      867.554
12/06/2014  17:50:00     -246.418      -57.235       -7.275       77.222       77.602       36.397     5963.232     6022.071     1324.735        3.868        0.666      252.978       37.857        0.022      339.097       12.192      867.570
12/06/2014  17:51:00     -199.133      -87.494       -8.953      104.288       68.767       46.512    10875.926     4728.875     2163.365        3.258        0.888      217.507       56.255        0.067      339.069       12.147      867.574
12/06/2014  17:52:00     -116.660      -52.181       -4.507       50.617       39.786       26.710     2562.091     1582.944      713.418        1.060        0.243      127.799       28.542        0.050      339.042       12.106      867.579
12/06/2014  17:53:00      -77.751      -26.344      -19.021       52.487       35.088       19.829     2754.923     1231.184      393.173        0.574        0.219       82.093        9.815        0.014      339.062       12.138      867.577
12/06/2014  17:54:00      -55.164       28.025      -19.452       53.646       34.707       25.881     2877.875     1204.590      669.840        0.448        0.238       61.874       14.233        0.053      339.100       12.202      867.571
12/06/2014  17:55:00      -58.901       16.977       -5.143       41.987       32.838       21.117     1762.917     1078.334      445.907        0.353        0.164       61.299       21.800        0.126      339.095       12.192      867.564
12/06/2014  17:56:00      -50.110      -28.519       -1.334       42.221       35.018       22.235     1782.607     1226.251      494.380        0.341        0.175       57.657       25.540        0.196      339.056       12.127      867.573
12/06/2014  17:57:00     -111.893      -53.603      -10.059       57.369       29.889       17.121     3291.151      893.323      293.130        0.999        0.224      124.070       22.303        0.032      339.031       12.086      867.596
12/06/2014  17:58:00     -142.967       -5.230       -6.073       48.238       31.830       26.001     2326.890     1013.129      676.028        1.226        0.201      143.063       28.552        0.040      338.977       11.994      867.617
12/06/2014  17:59:00     -163.261      -24.530       -7.007       55.036       45.252       32.344     3028.922     2047.726     1046.102        1.671        0.306      165.093       31.711        0.037      338.942       11.936      867.623
12/06/2014  18:00:00     -100.753      -18.378       -0.226       51.962       51.417       24.635     2700.072     2643.722      606.904        0.822        0.298      102.416       20.808        0.041      338.926       11.908      867.634
12/06/2014  18:01:00     -143.201      -46.266       -6.869       51.102       36.349       23.094     2611.379     1321.214      533.330        1.358        0.223      150.490       20.937        0.019      338.954       11.955      867.639
12/06/2014  18:02:00     -233.131      -96.317       -2.301       68.224       67.078       41.001     4654.518     4499.461     1681.083        3.723        0.542      252.244       37.433        0.022      338.987       12.007      867.643
12/06/2014  18:03:00     -188.889      -37.334       -5.248       72.657       59.269       37.519     5278.973     3512.771     1407.691        2.365        0.510      192.544       38.879        0.041      338.994       12.022      867.649
12/06/2014  18:04:00     -180.336      -39.627       -9.055       69.341       79.480       41.537     4808.193     6317.041     1725.296        2.351        0.643      184.639       35.804        0.038      338.998       12.028      867.655
12/06/2014  18:05:00     -231.097      -36.702      -21.146       90.106       81.143       45.096     8119.028     6584.218     2033.614        3.597        0.837      233.994       48.714        0.043      338.995       12.022      867.661
12/06/2014  18:06:00     -198.178      -33.459       -0.768       80.972       63.407       42.837     6556.433     4020.454     1834.971        2.640        0.621      200.983       40.579        0.041      338.957       11.960      867.663
12/06/2014  18:07:00     -249.167      -86.204       -8.224       58.765       72.435       36.595     3453.281     5246.892     1339.200        3.981        0.502      263.657       27.427        0.011      339.002       12.034      867.672
12/06/2014  18:08:00     -248.072      -89.886      -10.338       92.268       86.965       49.515     8513.348     7562.827     2451.784        4.412        0.926      263.854       49.617        0.035      338.998       12.027      867.684
12/06/2014  18:09:00     -191.801      -41.983      -11.769       82.998       59.440       40.418     6888.589     3533.070     1633.626        2.537        0.603      196.342       41.797        0.045      339.009       12.046      867.693
12/06/2014  18:10:00     -175.486      -43.496       -3.765       84.594       51.702       43.762     7156.225     2673.101     1915.071        2.222        0.587      180.796       42.105        0.054      339.000       12.032      867.702
12/06/2014  18:11:00     -111.566      -22.813       -0.813       72.837       55.667       30.145     5305.286     3098.842      908.723        1.114        0.466      113.875       33.238        0.085      338.954       11.956      867.707
12/06/2014  18:12:00     -156.885        5.811       -4.856       89.406       73.148       34.218     7993.394     5350.618     1170.898        1.959        0.726      156.992       32.153        0.042      338.954       11.955      867.706
12/06/2014  18:13:00     -183.603      -15.629       -8.818       67.636       60.670       39.952     4574.605     3680.878     1596.130        2.194        0.493      184.267       26.253        0.020      338.970       11.982      867.706
12/06/2014  18:14:00     -186.777      -48.895      -20.353       56.575       55.964       28.976     3200.759     3132.019      839.597        2.243        0.359      193.071       23.791        0.015      338.978       11.995      867.706
12/06/2014  18:15:00     -128.321       -2.122       -9.667       50.629       52.865       30.499     2563.265     2794.734      930.182        1.142        0.314      128.338       26.058        0.041      338.954       11.956      867.688
12/06/2014  18:16:00     -110.592       -4.741       -6.958       66.337       57.203       32.867     4400.614     3272.174     1080.230        1.053        0.438      110.694       34.402        0.097      338.935       11.924      867.661
12/06/2014  18:17:00     -200.375        6.541      -13.766       82.817       47.720       34.044     6858.663     2277.202     1159.006        2.534        0.515      200.481       37.068        0.034      338.935       11.922      867.655
12/06/2014  18:18:00     -130.106      -24.360      -15.614       65.465       50.800       33.103     4285.649     2580.632     1095.828        1.286        0.398      132.367       33.360        0.064      338.942       11.936      867.646
12/06/2014  18:19:00     -123.881      -15.101      -15.155       63.298       47.693       25.521     4006.617     2274.646      651.305        1.137        0.347      124.798       24.265        0.038      338.917       11.895      867.656
12/06/2014  18:20:00      -87.170        2.475       -2.317       48.206       43.230       26.297     2323.813     1868.839      691.509        0.625        0.244       87.206       21.260        0.059      338.873       11.821      867.663
12/06/2014  18:21:00     -184.794      -38.641       -9.343      100.238       59.558       38.203    10047.746     3547.098     1459.465        2.539        0.753      188.790       51.146        0.073      338.921       11.896      867.673
12/06/2014  18:22:00     -197.940        7.695      -25.860       57.162       60.428       24.261     3267.517     3651.483      588.580        2.371        0.375      198.089       19.910        0.010      338.898       11.860      867.685
12/06/2014  18:23:00     -135.581      -22.857      -13.383       53.374       66.954       35.028     2848.733     4482.870     1226.955        1.382        0.428      137.494       23.384        0.029      338.887       11.844      867.690
12/06/2014  18:24:00     -112.597       -0.017      -13.285       42.815       41.544       23.381     1833.142     1725.883      546.661        0.848        0.205      112.597       20.202        0.032      338.856       11.792      867.696
12/06/2014  18:25:00     -111.757      -26.185      -23.574       30.858       27.154       19.219      952.230      737.362      369.378        0.789        0.103      114.784       15.340        0.018      338.875       11.824      867.700
12/06/2014  18:26:00      -71.844        5.401      -15.453       32.011       30.841       23.312     1024.688      951.145      543.468        0.397        0.126       72.047       18.529        0.066      338.880       11.831      867.704
12/06/2014  18:27:00      -59.170      -21.986        2.818       32.357       37.944       24.221     1046.967     1439.720      586.647        0.353        0.154       63.123       17.576        0.078      338.847       11.776      867.698
12/06/2014  18:28:00      -92.558        2.874      -20.332       35.521       31.973       20.769     1261.749     1022.272      431.350        0.585        0.136       92.602       12.291        0.018      338.874       11.823      867.694
12/06/2014  18:29:00      -64.313       11.698      -11.062       22.645       20.503       18.651      512.786      420.390      347.844        0.284        0.064       65.368       15.993        0.060      338.824       11.739      867.688
12/06/2014  18:30:00      -44.634        0.302       -4.251       14.654       17.259       15.563      214.732      297.881      242.220        0.138        0.038       44.635        7.175        0.026      338.831       11.748      867.685
12/06/2014  18:31:00      -46.781       40.771       -2.625       27.627       25.105       18.925      763.263      630.236      358.160        0.280        0.088       62.055       17.636        0.081      338.866       11.809      867.688
12/06/2014  18:32:00      -51.204       76.998      -17.571       40.293       38.906       18.711     1623.553     1513.642      350.119        0.617        0.174       92.469       21.499        0.054      338.941       11.933      867.686
12/06/2014  18:33:00      -24.260       22.231       -8.081       33.571       20.455       15.508     1127.044      418.413      240.501        0.147        0.089       32.906        6.068        0.034      338.944       11.938      867.676
12/06/2014  18:34:00       -0.516       15.784       -0.580       31.072       13.552       20.745      965.487      183.665      430.370        0.091        0.079       15.793       21.498        1.853      338.915       11.890      867.656
12/06/2014  18:35:00        6.393       71.441      -11.099       25.508       46.730       23.693      650.675     2183.654      561.358        0.433        0.170       71.727       23.555        0.108      338.863       11.804      867.639
12/06/2014  18:36:00       30.034       34.922       -9.690       28.434       42.216       14.915      808.489     1782.167      222.456        0.251        0.141       46.061       15.623        0.115      338.767       11.641      867.619
12/06/2014  18:37:00       26.760       37.483       -0.584       23.793       37.073       20.133      566.115     1374.412      405.330        0.223        0.117       46.055       23.311        0.256      338.860       11.797      867.610
12/06/2014  18:38:00       26.991      -49.296       21.791       19.316       15.609       12.740      373.116      243.649      162.317        0.221        0.039       56.202        6.809        0.015      338.828       11.744      867.608
12/06/2014  18:39:00       11.169      -46.328       -2.300       16.670       18.155       16.181      277.877      329.595      261.833        0.157        0.043       47.655        9.377        0.039      338.794       11.688      867.628
12/06/2014  18:40:00       46.501      -13.919       -5.451       28.192       21.809       19.714      794.767      475.650      388.628        0.202        0.083       48.540       15.568        0.103      338.787       11.674      867.644
12/06/2014  18:41:00      -11.642      -50.835        1.480       20.501       22.361       22.451      420.307      499.999      504.068        0.207        0.071       52.151       13.102        0.063      338.777       11.659      867.648
12/06/2014  18:42:00       13.010        6.729       22.930       23.363       49.500       27.654      545.812     2450.229      764.731        0.225        0.188       14.647       26.247        3.211      338.634       11.419      867.656
12/06/2014  18:43:00      111.476       80.013       37.579       61.458       30.367       42.317     3777.048      922.157     1790.693        1.336        0.324      137.219       41.394        0.091      338.578       11.325      867.645
12/06/2014  18:44:00      118.539       85.819       28.230       28.655       19.548       18.865      821.136      382.128      355.899        1.189        0.078      146.343       11.670        0.006      338.607       11.373      867.636
12/06/2014  18:45:00       61.283       57.171       36.902       35.833       25.199       24.088     1284.020      634.965      580.217        0.544        0.125       83.810        7.686        0.008      338.586       11.338      867.640
12/06/2014  18:46:00       13.543       22.156       46.333       31.521       45.152       22.693      993.545     2038.721      514.967        0.318        0.177       25.967       26.956        1.078      338.603       11.366      867.655
12/06/2014  18:47:00       16.539       20.275       44.298       26.294       19.972       14.979      691.367      398.882      224.356        0.198        0.066       26.165       11.510        0.194      338.562       11.298      867.669
12/06/2014  18:48:00        3.858       35.647       60.428       23.127       28.463       17.310      534.837      810.133      299.649        0.329        0.082       35.855       11.823        0.109      338.544       11.268      867.679
12/06/2014  18:49:00        5.544       19.260       44.603       21.134       29.869       14.444      446.630      892.160      208.623        0.197        0.077       20.042       12.557        0.393      338.513       11.216      867.676
12/06/2014  18:50:00       46.103      -56.716        3.526       41.554       45.676       39.490     1726.744     2086.303     1559.468        0.536        0.269       73.090       35.653        0.238      338.498       11.190      867.675
12/06/2014  18:51:00       58.160        3.828       24.096       31.558       85.152       49.409      995.901     7250.812     2441.248        0.733        0.534       58.286       57.252        0.965      338.537       11.256      867.672
12/06/2014  18:52:00       56.700       74.954        4.840       37.828       20.612       32.589     1430.984      424.855     1062.028        0.589        0.146       93.984       25.073        0.071      338.748       11.612      867.661
12/06/2014  18:53:00       -3.861       35.119       24.536       18.782       31.060       24.053      352.777      964.721      578.535        0.187        0.095       35.331       13.415        0.144      338.780       11.664      867.658
12/06/2014  18:54:00        9.994       60.853       -6.325       21.005       25.511       14.729      441.230      650.822      216.937        0.258        0.065       61.668       14.302        0.054      338.771       11.648      867.666
12/06/2014  18:55:00        6.268       42.946       -8.708       13.117       17.329        9.160      172.059      300.290       83.901        0.126        0.028       43.401        9.082        0.044      338.671       11.482      867.672
12/06/2014  18:56:00      -18.614       27.449      -14.736       18.529       27.875        7.384      343.327      777.016       54.526        0.125        0.059       33.165       10.950        0.109      338.661       11.464      867.686
12/06/2014  18:57:00      -32.974      -23.706      -11.517       25.012       19.702       10.868      625.596      388.188      118.115        0.146        0.057       40.612        7.139        0.031      338.665       11.470      867.689
12/06/2014  18:58:00      -46.621      -18.634        1.416       17.946       25.967       15.203      322.060      674.297      231.121        0.187        0.061       50.207       10.159        0.041      338.665       11.470      867.669
12/06/2014  18:59:00      -23.139      -25.818        5.783       33.263       18.558       22.866     1106.458      344.390      522.877        0.160        0.099       34.670       17.414        0.252      338.657       11.456      867.649
12/06/2014  19:00:00       11.927      -10.808        4.190       16.178       16.036       13.526      261.734      257.148      182.941        0.049        0.035       16.095        7.903        0.241      338.652       11.448      867.632
12/06/2014  19:01:00        8.599      -33.620       -3.761       29.965       22.624       18.261      897.906      511.848      333.474        0.148        0.087       34.702       14.892        0.184      338.720       11.564      867.620
12/06/2014  19:02:00      -12.935      -51.604       -5.879       30.983       22.057       23.974      959.944      486.532      574.745        0.244        0.101       53.200       17.337        0.106      338.711       11.548      867.618
12/06/2014  19:03:00       -4.503      -57.328        0.184       28.130       48.286       19.715      791.316     2331.554      388.674        0.341        0.176       57.504       21.772        0.143      338.752       11.617      867.610
12/06/2014  19:04:00      -13.293      -29.568        5.023       36.902       28.998       15.240     1361.740      840.894      232.259        0.176        0.122       32.419        9.883        0.093      338.626       11.406      867.603
12/06/2014  19:05:00      -19.309      -24.410        5.130       26.714       25.610       17.456      713.663      655.882      304.722        0.133        0.084       31.124       14.049        0.204      338.561       11.297      867.595
12/06/2014  19:06:00      -53.785      -64.381       -0.816       43.326       41.121       26.952     1877.150     1690.971      726.432        0.567        0.215       83.891       22.999        0.075      338.526       11.236      867.592
12/06/2014  19:07:00      -80.162     -100.242       -0.033       42.942       33.670       27.104     1844.025     1133.656      734.645        1.009        0.186      128.353       29.715        0.054      338.521       11.229      867.579
12/06/2014  19:08:00      -85.433     -102.013       -5.915       34.086       30.289       22.322     1161.846      917.427      498.271        1.016        0.129      133.061       19.309        0.021      338.495       11.184      867.569
12/06/2014  19:09:00      -65.850      -88.351        3.845       52.198       43.892       31.385     2724.592     1926.538      985.005        0.890        0.282      110.191       24.108        0.048      338.519       11.225      867.570
12/06/2014  19:10:00      -76.037      -97.467       -5.833       44.254       43.216       25.121     1958.437     1867.632      631.052        0.989        0.223      123.618       16.712        0.018      338.505       11.200      867.577
12/06/2014  19:11:00     -102.647      -87.484        1.568       57.204       43.547       32.846     3272.296     1896.298     1078.876        1.222        0.312      134.870       33.117        0.060      338.404       11.032      867.577
12/06/2014  19:12:00     -109.375     -100.745       -1.375       47.671       54.510       28.364     2272.534     2971.302      804.536        1.408        0.302      148.702       26.360        0.031      338.405       11.034      867.574
12/06/2014  19:13:00     -115.491      -76.512        3.594       60.890       45.497       34.585     3707.646     2069.964     1196.104        1.309        0.349      138.536       28.795        0.043      338.352       10.945      867.557
12/06/2014  19:14:00     -131.287     -115.678       -3.392       50.175       59.859       34.105     2517.572     3583.041     1163.170        1.894        0.363      174.979       27.046        0.024      338.324       10.896      867.543
12/06/2014  19:15:00     -134.917     -101.020       -0.867       56.394       46.645       31.247     3180.236     2175.727      976.393        1.737        0.317      168.546       28.920        0.029      338.286       10.835      867.522
12/06/2014  19:16:00     -109.366     -105.850       -0.888       48.124       52.415       31.449     2315.882     2747.369      989.049        1.461        0.303      152.201       36.660        0.058      338.279       10.822      867.514
12/06/2014  19:17:00      -81.837      -95.374        9.121       74.679       50.281       37.477     5576.881     2528.184     1404.547        1.269        0.475      125.673       41.349        0.108      338.230       10.741      867.512
12/06/2014  19:18:00     -135.774      -96.518        6.054       64.648       50.086       29.420     4179.320     2508.656      865.543        1.767        0.378      166.585       20.955        0.016      338.216       10.715      867.510
12/06/2014  19:19:00     -160.100      -81.683       -4.821       35.096       30.098       23.618     1231.759      905.910      557.809        1.751        0.135      179.733       16.951        0.009      338.176       10.650      867.516
12/06/2014  19:20:00      -88.037      -69.615       -0.210       59.838       45.352       24.157     3580.636     2056.795      583.542        0.941        0.311      112.235       26.722        0.057      338.153       10.609      867.526
12/06/2014  19:21:00     -121.273      -98.174       -1.300       43.965       43.624       30.008     1932.922     1903.028      900.506        1.454        0.237      156.029       23.129        0.022      338.103       10.528      867.535
12/06/2014  19:22:00      -62.512      -84.653       -2.650       45.143       52.957       19.543     2037.851     2804.414      381.942        0.815        0.261      105.232       17.112        0.026      338.121       10.557      867.538
12/06/2014  19:23:00      -42.918      -28.758        8.418       40.165       30.102       21.919     1613.231      906.158      480.435        0.287        0.150       51.663       24.539        0.226      338.108       10.536      867.540
12/06/2014  19:24:00     -124.539      -89.072       -4.307       50.278       42.476       27.223     2527.885     1804.180      741.087        1.427        0.254      153.113       27.089        0.031      338.078       10.483      867.546
12/06/2014  19:25:00     -102.651      -83.632       -1.601       41.453       41.934       28.607     1718.348     1758.420      818.337        1.091        0.215      132.407       27.519        0.043      338.051       10.440      867.551
12/06/2014  19:26:00      -79.910      -88.734       -5.369       39.598       45.707       22.867     1568.024     2089.162      522.886        0.923        0.209      119.412       17.345        0.021      338.046       10.432      867.560
12/06/2014  19:27:00      -95.655      -94.528        5.612       66.380       55.281       32.053     4406.238     3056.036     1027.393        1.330        0.424      134.482       32.101        0.057      338.016       10.380      867.572
12/06/2014  19:28:00     -138.081      -87.117       -9.692       64.230       47.332       34.225     4125.511     2240.289     1171.338        1.714        0.377      163.266       29.914        0.034      337.992       10.341      867.563
12/06/2014  19:29:00     -118.616      -82.564       -3.758       62.945       43.631       27.206     3962.084     1903.691      740.172        1.375        0.330      144.522       27.342        0.036      337.971       10.304      867.558
12/06/2014  19:30:00      -98.021      -28.319       10.278       59.997       58.026       35.559     3599.595     3367.008     1264.478        0.937        0.412      102.029       40.527        0.158      337.963       10.292      867.549
12/06/2014  19:31:00     -125.050      -62.102       -1.062       45.833       45.105       27.773     2100.680     2034.452      771.347        1.220        0.245      139.621       24.125        0.030      337.976       10.316      867.554
12/06/2014  19:32:00     -161.054     -108.798       -3.576       84.357       55.097       38.461     7116.050     3035.650     1479.258        2.471        0.582      194.359       36.009        0.034      337.980       10.318      867.555
12/06/2014  19:33:00     -155.682      -65.791       -5.619       70.452       42.685       35.529     4963.540     1822.049     1262.287        1.832        0.402      169.013       37.408        0.049      337.979       10.319      867.550
12/06/2014  19:34:00      -99.838      -74.743       -1.721       38.864       43.239       30.075     1510.420     1869.644      904.527        0.992        0.214      124.716       23.603        0.036      337.975       10.312      867.550
12/06/2014  19:35:00      -69.999      -41.376        6.529       65.034       39.562       29.419     4229.459     1565.159      865.454        0.666        0.333       81.313       34.858        0.184      337.974       10.310      867.557
12/06/2014  19:36:00      -91.289     -102.259       -7.908       51.170       60.171       34.908     2618.329     3620.502     1218.556        1.315        0.373      137.079       24.352        0.032      337.996       10.347      867.563
12/06/2014  19:37:00      -79.663      -43.637        8.400       58.709       41.733       33.618     3446.714     1741.633     1130.181        0.732        0.316       90.831       37.112        0.167      337.949       10.268      867.570
12/06/2014  19:38:00      -96.500      -87.397        2.148       68.512       46.250       32.589     4693.936     2139.062     1062.018        1.242        0.395      130.194       34.574        0.071      337.990       10.338      867.574
12/06/2014  19:39:00     -106.017      -85.802       -6.940       53.526       40.111       30.518     2864.988     1608.853      931.344        1.203        0.270      136.388       26.206        0.037      337.987       10.334      867.571
12/06/2014  19:40:00     -105.316      -65.508        0.182       58.669       45.096       29.716     3442.084     2033.639      883.039        1.087        0.318      124.027       24.728        0.040      337.973       10.308      867.556
12/06/2014  19:41:00     -140.618     -117.676       -6.538       50.283       48.848       28.491     2528.366     2386.134      811.715        1.969        0.286      183.360       21.569        0.014      337.978       10.317      867.549
12/06/2014  19:42:00     -109.555      -63.471       -4.850       33.273       42.113       22.706     1107.100     1773.511      515.543        0.972        0.170      126.613       20.404        0.026      337.945       10.262      867.547
12/06/2014  19:43:00     -106.480     -100.112       -0.304       61.902       48.837       34.407     3831.889     2385.072     1183.854        1.438        0.370      146.153       35.599        0.059      338.017       10.382      867.555
12/06/2014  19:44:00      -84.850      -38.316       10.929       49.761       41.745       26.821     2476.203     1742.606      719.361        0.686        0.247       93.101       29.003        0.097      337.967       10.300      867.556
12/06/2014  19:45:00     -128.350      -74.763       -2.249       36.752       23.179       18.702     1350.735      537.257      349.778        1.215        0.112      148.537       11.764        0.006      337.991       10.338      867.563
12/06/2014  19:46:00     -111.705      -86.935       -5.032       30.969       29.667       18.865      959.058      880.160      355.877        1.113        0.110      141.548       13.890        0.010      337.988       10.334      867.570
12/06/2014  19:47:00     -111.289      -75.393      -11.806       31.457       26.547       17.924      989.548      704.770      321.254        1.011        0.101      134.422       13.630        0.010      337.989       10.337      867.576
12/06/2014  19:48:00     -127.880      -66.551       -6.082       50.397       32.562       24.809     2539.858     1060.290      615.502        1.252        0.211      144.160       22.879        0.025      337.972       10.308      867.590
12/06/2014  19:49:00     -126.014      -24.738       -2.343       40.051       42.117       23.246     1604.115     1773.813      540.378        1.021        0.196      128.419       21.199        0.027      337.934       10.242      867.615
12/06/2014  19:50:00     -133.732      -35.734       -0.133       44.995       37.612       21.124     2024.570     1414.700      446.228        1.152        0.194      138.424       22.024        0.025      337.935       10.246      867.622
12/06/2014  19:51:00     -154.932      -43.259       -9.981       52.236       24.420       18.992     2728.570      596.339      360.684        1.483        0.184      160.857       24.560        0.023      337.958       10.284      867.623
12/06/2014  19:52:00     -129.100      -79.882       -2.612       32.674       41.779       21.516     1067.583     1745.510      462.944        1.316        0.164      151.816       14.944        0.010      337.945       10.261      867.631
12/06/2014  19:53:00     -116.895      -30.557       -4.484       36.054       36.154       19.836     1299.872     1307.120      393.464        0.881        0.150      120.823       17.539        0.021      337.884       10.159      867.634
12/06/2014  19:54:00     -104.672      -29.761       -2.068       44.224       43.034       27.968     1955.751     1851.890      782.194        0.822        0.229      108.820       30.291        0.077      337.891       10.171      867.634
12/06/2014  19:55:00     -111.906      -40.632        1.969       42.426       38.069       22.590     1799.970     1449.230      510.330        0.897        0.188      119.054       22.828        0.037      337.890       10.170      867.641
12/06/2014  19:56:00     -106.989      -46.756        0.522       52.199       29.245       18.514     2724.713      855.297      342.770        0.878        0.196      116.759       19.564        0.028      337.931       10.239      867.639
12/06/2014  19:57:00     -148.489      -77.687      -10.292       35.327       49.302       20.460     1248.010     2430.724      418.619        1.614        0.205      167.584       14.711        0.008      337.956       10.281      867.629
12/06/2014  19:58:00      -98.050      -73.092       -0.973       44.059       34.740       24.545     1941.215     1206.834      602.464        0.935        0.188      122.296       23.435        0.037      337.922       10.222      867.621
12/06/2014  19:59:00     -109.110      -56.034       -5.172       43.371       37.106       21.538     1881.075     1376.884      463.881        0.940        0.186      122.657       21.191        0.030      337.913       10.208      867.609
12/06/2014  20:00:00     -144.705      -81.655        0.522       42.352       42.720       25.878     1793.650     1825.006      669.654        1.595        0.214      166.154       19.685        0.014      337.946       10.264      867.595
12/06/2014  20:01:00     -149.898      -41.703       -5.105       48.033       46.481       28.771     2307.202     2160.478      827.754        1.476        0.265      155.591       25.864        0.028      337.915       10.212      867.580
12/06/2014  20:02:00     -124.602      -58.604       -3.602       43.649       47.253       21.282     1905.193     2232.809      452.931        1.178        0.230      137.696       22.230        0.026      337.903       10.193      867.570
12/06/2014  20:03:00     -113.383      -37.979       -3.363       46.926       40.105       27.062     2202.012     1608.435      732.372        0.943        0.227      119.575       26.628        0.050      337.882       10.155      867.566
12/06/2014  20:04:00     -166.753      -22.415       -8.721       59.967       39.219       32.560     3595.986     1538.145     1060.185        1.729        0.310      168.252       31.821        0.036      337.877       10.149      867.563
12/06/2014  20:05:00     -124.011      -61.000       -2.528       49.188       44.999       26.005     2419.435     2024.925      676.255        1.211        0.256      138.202       27.094        0.038      337.869       10.135      867.557
12/06/2014  20:06:00     -133.240      -61.973       -3.375       41.233       43.451       26.555     1700.151     1887.955      705.170        1.295        0.215      146.947       25.024        0.029      337.871       10.137      867.556
12/06/2014  20:07:00     -144.457      -43.539       -0.943       44.079       36.684       21.985     1942.952     1345.728      483.345        1.327        0.189      150.876       16.776        0.012      337.830       10.070      867.559
12/06/2014  20:08:00     -141.944      -34.366       -1.467       56.524       43.128       30.106     3194.946     1860.059      906.371        1.365        0.298      146.045       29.867        0.042      337.820       10.051      867.568
12/06/2014  20:09:00     -111.648      -26.580        3.129       44.285       53.353       30.619     1961.171     2846.585      937.540        0.946        0.287      114.769       28.105        0.060      337.804       10.025      867.582
12/06/2014  20:10:00     -131.132      -18.657        6.432       53.807       40.024       30.382     2895.193     1601.915      923.087        1.150        0.271      132.452       31.503        0.057      337.730        9.899      867.594
12/06/2014  20:11:00     -119.564      -40.348        2.089       44.138       44.815       24.301     1948.150     2008.347      590.532        1.024        0.227      126.188       21.701        0.030      337.759        9.949      867.598
12/06/2014  20:12:00     -147.436      -38.973        0.118       50.223       36.036       30.082     2522.304     1298.592      904.939        1.399        0.236      152.500       26.577        0.030      337.765        9.961      867.597
12/06/2014  20:13:00     -165.903      -53.748        2.470       50.194       45.883       31.415     2519.441     2105.226      986.884        1.801        0.281      174.392       29.932        0.029      337.771        9.968      867.602
12/06/2014  20:14:00     -178.854      -58.484        0.459       52.589       56.038       28.822     2765.570     3140.216      830.683        2.107        0.337      188.174       23.865        0.016      337.775        9.974      867.611
12/06/2014  20:15:00     -153.499      -68.705       -3.251       44.910       30.536       25.512     2016.944      932.446      650.870        1.595        0.180      168.173       24.997        0.022      337.725        9.894      867.617
12/06/2014  20:16:00     -116.662      -71.671       -0.794       58.716       37.275       25.941     3447.604     1389.398      672.915        1.213        0.275      136.919       28.231        0.043      337.720        9.886      867.627
12/06/2014  20:17:00     -168.481      -72.623       -7.526       50.828       50.886       28.381     2583.518     2589.366      805.491        1.985        0.299      183.467       26.116        0.020      337.747        9.929      867.630
12/06/2014  20:18:00     -143.659      -68.296       -3.246       46.365       40.839       25.416     2149.734     1667.788      645.970        1.489        0.223      159.067       22.919        0.021      337.712        9.871      867.633
12/06/2014  20:19:00     -147.503      -59.088       -2.112       37.269       36.322       23.504     1388.968     1319.304      552.442        1.426        0.163      158.898       21.521        0.018      337.746        9.930      867.627
12/06/2014  20:20:00     -156.084      -63.328       -6.874       31.090       30.040       16.624      966.566      902.393      276.372        1.528        0.107      168.441       14.473        0.007      337.753        9.940      867.617
12/06/2014  20:21:00     -172.378      -60.158       -7.557       54.740       38.303       22.054     2996.430     1467.155      486.373        1.917        0.247      182.574       20.739        0.013      337.781        9.985      867.607
12/06/2014  20:22:00     -171.933      -53.221       -3.061       55.973       46.611       32.845     3132.949     2172.569     1078.796        1.939        0.319      179.982       28.518        0.025      337.785        9.992      867.596
12/06/2014  20:23:00     -169.532      -32.798       -4.579       45.069       35.462       27.134     2031.215     1257.523      736.273        1.693        0.201      172.676       22.981        0.018      337.713        9.872      867.597
12/06/2014  20:24:00     -161.482      -37.111       -7.139       52.074       36.630       24.937     2711.660     1341.778      621.838        1.609        0.234      165.691       24.886        0.023      337.731        9.902      867.604
12/06/2014  20:25:00     -115.566      -30.101        1.421       56.383       38.539       27.808     3179.074     1485.265      773.285        0.985        0.272      119.422       29.198        0.060      337.704        9.858      867.606
12/06/2014  20:26:00     -138.833      -39.247        4.590       60.106       55.743       32.726     3612.692     3107.259     1071.010        1.431        0.390      144.274       27.079        0.035      337.786        9.995      867.605
12/06/2014  20:27:00     -128.996      -29.354        0.888       49.588       62.981       32.686     2458.961     3966.549     1068.365        1.250        0.375      132.294       28.169        0.045      337.761        9.953      867.616
12/06/2014  20:28:00     -135.370      -55.855        3.965       63.735       36.637       26.065     4062.132     1342.237      679.371        1.377        0.304      146.440       29.008        0.039      337.801       10.021      867.623
12/06/2014  20:29:00     -151.532      -38.928       -2.325       56.646       39.326       23.253     3208.772     1546.563      540.705        1.489        0.265      156.452       22.241        0.020      337.783        9.989      867.641
12/06/2014  20:30:00     -167.657      -56.595       -0.169       42.276       32.655       24.079     1787.240     1066.335      579.783        1.737        0.172      176.951       25.635        0.021      337.795       10.010      867.658
12/06/2014  20:31:00     -147.118      -62.742       -3.967       38.877       32.644       17.361     1511.444     1065.636      301.419        1.424        0.144      159.938       13.012        0.007      337.800       10.018      867.664
12/06/2014  20:32:00     -146.894      -65.656        2.961       50.964       33.609       26.105     2597.334     1129.535      681.453        1.515        0.220      160.899       25.530        0.025      337.806       10.029      867.674
12/06/2014  20:33:00     -168.613      -66.225       -1.518       34.758       27.071       21.361     1208.106      732.863      456.302        1.761        0.120      181.152       16.404        0.008      337.868       10.132      867.676
12/06/2014  20:34:00     -153.614      -69.096       -3.781       37.777       31.331       19.548     1427.089      981.602      382.106        1.559        0.140      168.439       18.680        0.012      337.881       10.154      867.673
12/06/2014  20:35:00     -123.136      -69.602        3.526       45.214       39.811       24.143     2044.281     1584.950      582.892        1.211        0.211      141.446       25.795        0.033      337.851       10.104      867.685
12/06/2014  20:36:00     -121.620      -77.947       -1.196       43.489       27.687       26.229     1891.263      766.572      687.950        1.211        0.167      144.455       20.447        0.020      337.864       10.126      867.704
12/06/2014  20:37:00     -121.029      -34.039        5.159       53.581       41.523       23.718     2870.956     1724.152      562.529        1.049        0.258      125.724       20.819        0.027      337.968       10.301      867.716
12/06/2014  20:38:00     -138.855      -75.383       -0.565       46.478       33.379       23.047     2160.235     1114.160      531.187        1.438        0.190      157.997       23.688        0.022      338.001       10.356      867.711
12/06/2014  20:39:00     -119.590      -37.435       -1.399       44.155       40.465       22.643     1949.642     1637.421      512.702        0.990        0.205      125.313       22.905        0.033      337.982       10.324      867.701
12/06/2014  20:40:00     -100.837      -62.614       -4.831       32.176       33.271       22.059     1035.292     1106.943      486.617        0.837        0.131      118.695       22.259        0.035      337.942       10.257      867.685
12/06/2014  20:41:00      -84.533      -45.865        8.428       53.479       36.309       23.232     2860.046     1318.347      539.710        0.702        0.236       96.174       26.710        0.077      337.972       10.308      867.678
12/06/2014  20:42:00      -73.520      -26.592        4.200       35.200       21.829       19.150     1239.034      476.507      366.710        0.411        0.104       78.181       18.611        0.057      337.918       10.215      867.678
12/06/2014  20:43:00      -23.146       -5.032        2.540       27.724       13.196        8.826      768.614      174.123       77.905        0.079        0.051       23.686        7.781        0.108      337.877       10.148      867.680
12/06/2014  20:44:00      -49.356      -24.788        0.021       21.538       25.983       13.733      463.887      675.104      188.609        0.219        0.066       55.231        7.158        0.017      337.857       10.116      867.685
12/06/2014  20:45:00      -47.595      -21.652       -1.351       21.856       14.199        9.609      477.667      201.613       92.337        0.175        0.039       52.289       10.207        0.038      337.860       10.119      867.694
12/06/2014  20:46:00      -22.986       -0.266        1.771       12.831       10.420        7.352      164.630      108.581       54.059        0.043        0.016       22.988        5.879        0.065      337.844       10.093      867.705
12/06/2014  20:47:00       12.442        8.843        8.303        8.619        8.950        8.627       74.295       80.103       74.419        0.027        0.011       15.264        6.094        0.159      337.708        9.863      867.708
12/06/2014  20:48:00       48.940       38.272       10.404       18.794       19.699       17.700      353.214      388.061      313.303        0.251        0.053       62.127       15.451        0.062      337.529        9.564      867.706
12/06/2014  20:49:00       73.213       43.292        8.210       17.757       12.257       16.064      315.308      150.240      258.046        0.401        0.036       85.055       13.165        0.024      337.381        9.317      867.716
12/06/2014  20:50:00       78.818       39.414        3.303       20.597       15.591       12.373      424.230      243.075      153.081        0.430        0.041       88.124       10.395        0.014      337.344        9.255      867.724
12/06/2014  20:51:00       75.852       32.932        1.076       31.872       20.492       17.970     1015.836      419.902      322.924        0.430        0.088       82.692       12.071        0.021      337.418        9.379      867.728
12/06/2014  20:52:00       38.238       32.775        6.518       18.664       16.175       13.346      348.330      261.615      178.106        0.168        0.039       50.362       10.598        0.044      337.384        9.322      867.735
12/06/2014  20:53:00       29.636       58.873       -2.083       12.792       18.645       14.658      163.636      347.634      214.871        0.254        0.036       65.911       12.628        0.037      337.510        9.533      867.731
12/06/2014  20:54:00       17.409       69.908       -8.512       15.562       18.784       10.346      242.165      352.846      107.034        0.298        0.035       72.043        9.658        0.018      337.605        9.692      867.725
12/06/2014  20:55:00       11.772      102.507      -14.692       13.101       16.799        7.050      171.637      282.202       49.700        0.568        0.025      103.180        7.283        0.005      337.694        9.842      867.729
12/06/2014  20:56:00        6.278      131.648      -22.346        8.899       18.636        6.396       79.195      347.284       40.909        0.917        0.023      131.798        4.206        0.001      337.762        9.955      867.743
12/06/2014  20:57:00       12.718      138.641      -21.872       12.025       16.440        6.704      144.597      270.258       44.938        1.016        0.023      139.223        4.768        0.001      337.784        9.993      867.755
12/06/2014  20:58:00       27.925      158.132      -33.576       12.747       13.837        8.474      162.491      191.461       71.807        1.367        0.021      160.579        6.244        0.002      337.709        9.868      867.773
12/06/2014  20:59:00       21.948       89.330       -8.623       24.599       43.950       28.444      605.101     1931.599      809.036        0.594        0.167       91.987       27.148        0.087      337.547        9.596      867.785
12/06/2014  21:00:00       19.075       79.705       -5.418       27.211       41.128       27.422      740.437     1691.536      751.949        0.496        0.159       81.955       28.478        0.121      337.491        9.501      867.792
12/06/2014  21:01:00       19.570      113.775      -18.707       18.292       30.753       19.776      334.583      945.733      391.089        0.767        0.084      115.446       17.555        0.023      337.509        9.532      867.802
12/06/2014  21:02:00       -4.691      136.004      -20.543       15.205       16.059        7.346      231.183      257.880       53.957        0.974        0.027      136.085        5.068        0.001      337.539        9.582      867.819
12/06/2014  21:03:00      -35.943      116.781      -15.856       17.193       40.313       13.253      295.586     1625.155      175.632        0.864        0.105      122.187       15.087        0.015      337.738        9.915      867.821
12/06/2014  21:04:00      -65.442       70.143      -17.239       20.794       37.525       15.695      432.379     1408.090      246.343        0.579        0.104       95.931       17.522        0.033      337.784        9.994      867.831
12/06/2014  21:05:00      -65.836       88.965      -20.257       19.302       22.261       13.161      372.554      495.574      173.212        0.685        0.052      110.675       10.819        0.010      337.866       10.129      867.834
12/06/2014  21:06:00      -52.361       71.738      -13.906       20.573       17.840       14.611      423.230      318.278      213.473        0.452        0.048       88.815        9.353        0.011      337.919       10.219      867.829
12/06/2014  21:07:00      -37.341       44.147       -8.617       19.151       18.077       13.346      366.747      326.765      178.108        0.214        0.044       57.821       10.400        0.032      337.945       10.262      867.810
12/06/2014  21:08:00      -26.007       30.974       -1.095       10.029       13.644       11.155      100.589      186.158      124.437        0.102        0.021       40.444        5.484        0.018      337.852       10.105      867.792
12/06/2014  21:09:00        6.472        3.998       11.183       14.595        9.688        8.479      213.019       93.850       71.900        0.028        0.019        7.607        5.892        0.600      337.573        9.639      867.781
12/06/2014  21:10:00       11.388       -6.852       13.979        9.974        8.869        5.841       99.476       78.667       34.118        0.029        0.011       13.291        4.376        0.108      337.443        9.420      867.777
12/06/2014  21:11:00       15.032       -0.653       12.785        9.450        8.282        8.733       89.293       68.597       76.268        0.031        0.012       15.046        7.171        0.227      337.428        9.394      867.779
12/06/2014  21:12:00       -9.872       -5.044       -2.295        7.889        6.883        8.676       62.232       47.376       75.268        0.016        0.009       11.086        7.391        0.444      337.610        9.700      867.788
12/06/2014  21:13:00       -6.012      -17.843       -4.411        6.488       10.138        7.535       42.097      102.780       56.772        0.029        0.010       18.829        6.489        0.119      337.829       10.066      867.802
12/06/2014  21:14:00       -9.645      -32.587       -4.422        6.820        6.990        4.910       46.514       48.866       24.106        0.065        0.006       33.984        3.079        0.008      337.956       10.280      867.824
12/06/2014  21:15:00      -15.840      -32.684       -0.249        8.240        7.122        4.305       67.892       50.717       18.530        0.073        0.007       36.321        0.679        0.000      337.844       10.091      867.838
12/06/2014  21:16:00      -26.804      -31.056       -3.786        5.744        5.923        4.525       32.989       35.086       20.472        0.089        0.004       41.024        2.272        0.003      337.768        9.967      867.842
12/06/2014  21:17:00      -38.384      -35.262        0.650        8.325       10.169        5.480       69.313      103.418       30.027        0.146        0.010       52.123        3.869        0.006      337.713        9.874      867.851
12/06/2014  21:18:00      -42.392      -40.635        2.436       22.696       19.264       12.157      515.102      371.099      147.785        0.224        0.052       58.722       12.143        0.043      337.600        9.684      867.858
12/06/2014  21:19:00      -46.831      -29.108        0.041       15.350       13.759        9.781      235.618      189.322       95.677        0.178        0.026       55.141        6.343        0.013      337.706        9.861      867.870
12/06/2014  21:20:00      -75.506      -43.417       -7.017       15.734       14.257       11.422      247.568      203.254      130.465        0.411        0.029       87.098        5.615        0.004      337.659        9.783      867.880
12/06/2014  21:21:00      -69.986      -38.354       -0.255       14.976       21.015        8.564      224.291      441.639       73.334        0.355        0.037       79.807        6.613        0.007      337.536        9.576      867.887
12/06/2014  21:22:00      -74.397      -32.679       -3.802       16.298       12.185       11.783      265.628      148.481      138.828        0.359        0.028       81.258        6.952        0.007      337.404        9.354      867.889
12/06/2014  21:23:00      -86.725      -35.993       -6.167       19.137       16.002       10.684      366.240      256.055      114.156        0.480        0.037       93.898        6.564        0.005      337.368        9.294      867.897
12/06/2014  21:24:00      -55.784      -34.694        6.190       32.593       23.919       17.619     1062.319      572.134      310.430        0.315        0.097       65.692       17.509        0.071      337.233        9.068      867.886
12/06/2014  21:25:00      -75.150      -25.763        7.192       25.034       20.916       17.284      626.688      437.491      298.724        0.386        0.068       79.443       13.517        0.029      337.257        9.110      867.878
12/06/2014  21:26:00      -94.142      -39.792       -3.805       18.491       22.437       12.868      341.931      503.425      165.579        0.574        0.051      102.206        8.792        0.007      337.343        9.253      867.865
12/06/2014  21:27:00      -91.528      -37.785       -3.731       22.248       13.894       11.851      494.975      193.043      140.441        0.532        0.041       99.021        9.001        0.008      337.294        9.170      867.855
12/06/2014  21:28:00      -84.061      -15.253       -3.222       31.258       17.393       12.751      977.080      302.531      162.598        0.438        0.072       85.434       12.582        0.022      337.167        8.959      867.856
12/06/2014  21:29:00      -77.284      -20.194        3.687       29.161       20.398       14.388      850.345      416.086      207.003        0.393        0.074       79.879       15.165        0.036      337.068        8.792      867.845
12/06/2014  21:30:00      -77.229      -12.221        0.573       27.395       24.528       16.941      750.506      601.615      286.995        0.388        0.082       78.190       12.037        0.024      337.001        8.680      867.844
12/06/2014  21:31:00     -108.946      -20.307        0.542       33.962       24.910       15.919     1153.395      620.518      253.424        0.715        0.101      110.823       15.002        0.018      337.044        8.751      867.849
12/06/2014  21:32:00      -65.667      -32.075        7.389       40.613       21.379       16.408     1649.397      457.049      269.234        0.389        0.119       73.082       19.638        0.072      337.005        8.687      867.850
12/06/2014  21:33:00      -97.463      -36.676       -0.358       30.197       26.273       15.158      911.879      690.291      229.770        0.634        0.092      104.136       16.047        0.024      337.034        8.735      867.854
12/06/2014  21:34:00      -92.233      -28.384        2.355       32.917       22.626       15.489     1083.555      511.941      239.912        0.558        0.092       96.502       16.466        0.029      337.059        8.777      867.865
12/06/2014  21:35:00      -72.840      -22.941        6.967       34.556       23.021       18.146     1194.117      529.988      329.284        0.397        0.103       76.368       19.462        0.065      337.089        8.826      867.877
12/06/2014  21:36:00      -92.712      -18.932        3.377       28.442       27.336       18.185      808.951      747.258      330.681        0.543        0.094       94.625       17.262        0.033      337.111        8.862      867.877
12/06/2014  21:37:00      -86.079      -23.805        5.216       42.211       18.953       17.751     1781.753      359.203      315.086        0.523        0.123       89.310       22.509        0.064      337.143        8.919      867.872
12/06/2014  21:38:00      -45.988       -8.391        5.306       28.065       20.869       15.071      787.667      435.500      227.142        0.183        0.073       46.747       14.655        0.098      337.119        8.877      867.869
12/06/2014  21:39:00      -61.100      -24.232       -1.105       20.907       18.745       11.045      437.107      351.386      121.990        0.262        0.046       65.730       11.765        0.032      337.119        8.877      867.871
12/06/2014  21:40:00      -44.530      -14.723        5.888       19.742       15.453       11.285      389.766      238.809      127.344        0.150        0.038       46.901        6.454        0.019      337.076        8.805      867.888
12/06/2014  21:41:00      -35.132      -13.048        5.030       22.824       19.731       13.357      520.944      389.317      178.408        0.126        0.054       37.477       12.633        0.114      337.047        8.757      867.906
12/06/2014  21:42:00      -52.480      -18.816        1.541       25.420       19.089       13.367      646.167      364.385      178.686        0.215        0.059       55.751        9.978        0.032      337.081        8.814      867.909
12/06/2014  21:43:00      -68.968      -24.947        6.381       31.443       19.109       14.378      988.660      365.162      206.722        0.349        0.078       73.342       15.418        0.044      337.125        8.886      867.916
12/06/2014  21:44:00      -47.977      -27.397        2.270       30.636       21.641       15.687      938.557      468.319      246.089        0.235        0.083       55.248       16.574        0.090      337.188        8.993      867.926
12/06/2014  21:45:00      -32.570      -31.667        5.934       27.948       26.454       11.374      781.094      699.800      129.361        0.185        0.081       45.427       13.327        0.086      337.198        9.011      867.938
12/06/2014  21:46:00      -16.472        4.476        6.003       18.187       20.708       13.165      330.755      428.814      173.316        0.063        0.047       17.070       12.931        0.574      337.173        8.969      867.942
12/06/2014  21:47:00      -20.265      -15.270        3.601       10.517       11.021        8.161      110.599      121.471       66.603        0.048        0.015       25.374        7.613        0.090      337.234        9.072      867.938
12/06/2014  21:48:00        9.565       35.200       -3.852       15.187       29.065       14.011      230.636      844.801      196.311        0.131        0.064       36.477       17.847        0.239      337.079        8.809      867.945
12/06/2014  21:49:00        6.411       59.579      -13.802       15.428       13.722        9.156      238.028      188.289       83.825        0.215        0.026       59.923        7.087        0.014      336.963        8.618      867.934
12/06/2014  21:50:00      -15.095       55.469       -8.873       22.024       24.559        9.922      485.043      603.122       98.441        0.228        0.059       57.486        9.715        0.029      337.063        8.783      867.926
12/06/2014  21:51:00      -27.074       45.683        0.246       24.266       24.841       13.269      588.816      617.052      176.078        0.210        0.069       53.103       16.850        0.101      336.972        8.632      867.921
12/06/2014  21:52:00      -28.798       63.056       -4.557       21.690       22.972       12.955      470.470      527.726      167.821        0.300        0.058       69.321       12.520        0.033      337.147        8.924      867.917
12/06/2014  21:53:00      -22.670       26.923       -3.134       13.380       15.895        8.464      179.027      252.649       71.631        0.088        0.025       35.197        7.562        0.046      337.097        8.839      867.914
12/06/2014  21:54:00      -29.002       16.616       -5.386       24.087       13.797       11.118      580.161      190.363      123.605        0.102        0.045       33.425        5.883        0.031      337.152        8.932      867.905
12/06/2014  21:55:00      -56.822       18.031       -7.051       10.777        8.588        7.667      116.149       73.758       58.782        0.193        0.012       59.615        5.332        0.008      337.024        8.719      867.907
12/06/2014  21:56:00      -56.230        5.858       -6.162        5.128        4.844        4.112       26.301       23.461       16.913        0.165        0.003       56.534        2.585        0.002      337.212        9.033      867.903
12/06/2014  21:57:00      -70.620       -0.509       -6.567        8.458        5.678        6.438       71.540       32.240       41.452        0.259        0.007       70.622        3.697        0.003      337.060        8.780      867.905
12/06/2014  21:58:00      -54.350       -6.949       -5.783       18.932       11.264        9.305      358.407      126.886       86.581        0.180        0.029       54.793        7.795        0.020      336.849        8.424      867.903
12/06/2014  21:59:00      -30.856       -8.537      -10.667       12.253       13.900        7.221      150.125      193.206       52.143        0.077        0.020       32.015        5.230        0.027      336.940        8.579      867.906
12/06/2014  22:00:00      -15.501       -2.813       -5.895        9.233       10.144        8.147       85.241      102.900       66.373        0.027        0.013       15.754        7.499        0.227      337.016        8.702      867.906
12/06/2014  22:01:00      -11.944       -3.980       -2.480       13.663       10.448        7.316      186.676      109.155       53.531        0.026        0.017       12.589        1.651        0.017      337.074        8.801      867.904
12/06/2014  22:02:00      -28.366       -4.677       -5.998       11.363       10.857        5.791      129.126      117.877       33.530        0.057        0.014       28.749        4.588        0.025      337.000        8.678      867.905
12/06/2014  22:03:00      -27.597      -22.282       -4.864       11.422        8.748        9.444      130.461       76.535       89.194        0.079        0.015       35.469        3.039        0.007      336.885        8.489      867.906
12/06/2014  22:04:00      -19.642      -18.422       -5.310       12.678       13.536       10.868      160.723      183.223      118.112        0.061        0.023       26.929        6.638        0.061      336.828        8.392      867.904
12/06/2014  22:05:00      -44.744      -21.640       -6.040       13.251        9.986       12.133      175.595       99.721      147.206        0.146        0.021       49.702        5.599        0.013      336.770        8.296      867.901
12/06/2014  22:06:00      -57.748      -20.802       -5.563       24.854       15.811        8.816      617.725      249.975       77.720        0.237        0.047       61.381        6.221        0.010      336.744        8.252      867.901
12/06/2014  22:07:00      -61.836       -5.448       -9.327        6.890        9.742        7.208       47.474       94.906       51.951        0.207        0.010       62.076        4.186        0.005      336.748        8.260      867.898
12/06/2014  22:08:00      -56.018       -8.590       -9.192       11.746        8.577        9.000      137.963       73.567       80.995        0.179        0.015       56.672        6.735        0.014      336.771        8.297      867.888
12/06/2014  22:09:00      -54.294      -20.418       -8.679        9.831        6.375        6.264       96.641       40.639       39.233        0.181        0.009       58.007        2.555        0.002      336.755        8.271      867.875
12/06/2014  22:10:00      -64.835      -18.937      -12.741        9.428        7.587        6.806       88.883       57.557       46.322        0.246        0.010       67.544        2.817        0.002      336.764        8.286      867.867
12/06/2014  22:11:00      -74.083       -8.580       -9.644       20.431       13.365        8.405      417.411      178.623       70.651        0.316        0.033       74.578        7.751        0.011      336.689        8.159      867.855
12/06/2014  22:12:00      -80.454        0.895      -10.723       24.461       13.102       13.074      598.353      171.659      170.941        0.376        0.047       80.459       14.396        0.032      336.691        8.164      867.847
12/06/2014  22:13:00      -87.124      -20.311      -10.857       13.479       18.687       11.163      181.683      349.209      124.604        0.439        0.033       89.460        5.109        0.003      336.661        8.113      867.847
12/06/2014  22:14:00      -89.436      -23.902       -5.507       19.866       11.898       12.274      394.638      141.569      150.650        0.464        0.034       92.575       12.350        0.018      336.626        8.054      867.858
12/06/2014  22:15:00      -91.190      -14.538      -10.270       12.924       10.310        7.977      167.042      106.302       63.635        0.448        0.017       92.342        6.646        0.005      336.633        8.066      867.868
12/06/2014  22:16:00      -88.361       -2.352       -7.328       23.725       13.895       15.928      562.882      193.082      253.692        0.444        0.050       88.393       15.787        0.032      336.586        7.988      867.874
12/06/2014  22:17:00      -97.541       -5.931       -8.729       27.267       14.073       15.808      743.500      198.060      249.891        0.541        0.060       97.721       14.594        0.022      336.573        7.965      867.872
12/06/2014  22:18:00      -79.723      -16.326       -3.193       22.525       14.894       10.758      507.384      221.822      115.724        0.374        0.042       81.377       11.897        0.021      336.511        7.862      867.868
12/06/2014  22:19:00      -68.397      -34.366       -6.792       16.627       15.898        8.976      276.468      252.761       80.570        0.326        0.030       76.546        7.359        0.009      336.502        7.848      867.873
12/06/2014  22:20:00     -102.663      -24.525       -7.478       17.698       14.030       12.415      313.221      196.843      154.138        0.593        0.033      105.552       11.200        0.011      336.489        7.826      867.879
12/06/2014  22:21:00     -114.613       -6.351       -9.789       25.805       20.397       13.631      665.912      416.038      185.802        0.727        0.063      114.789       12.940        0.013      336.471        7.796      867.878
12/06/2014  22:22:00     -111.512      -13.151       -8.572       30.241       20.576       16.305      914.505      423.383      265.864        0.714        0.080      112.284       16.478        0.022      336.445        7.752      867.879
12/06/2014  22:23:00      -96.420       -8.030        0.465       40.133       28.206       22.431     1610.697      795.565      503.170        0.613        0.145       96.754       24.941        0.066      336.363        7.615      867.884
12/06/2014  22:24:00      -82.494      -11.262       -2.167       33.512       19.486       17.491     1123.078      379.708      305.927        0.437        0.090       83.259       18.338        0.049      336.329        7.557      867.883
12/06/2014  22:25:00      -83.870      -29.911       -7.523       21.169       17.317       12.792      448.129      299.872      163.630        0.445        0.046       89.044       10.219        0.013      336.335        7.568      867.882
12/06/2014  22:26:00      -78.026      -36.112       -4.830       22.939       17.677       11.296      526.211      312.480      127.604        0.419        0.048       85.977        9.832        0.013      336.347        7.587      867.871
12/06/2014  22:27:00      -75.646      -44.635      -10.539       25.637       25.312       12.972      657.262      640.683      168.266        0.465        0.073       87.833       10.605        0.015      336.381        7.644      867.878
12/06/2014  22:28:00     -110.163      -56.940       -9.143       17.699       15.943       15.165      313.252      254.168      229.972        0.813        0.040      124.008       11.323        0.008      336.372        7.629      867.871
12/06/2014  22:29:00      -93.869      -46.951       -8.033       12.853       19.000       11.392      165.202      361.007      129.780        0.587        0.033      104.956        8.644        0.007      336.322        7.545      867.862
12/06/2014  22:30:00      -97.082      -44.668      -15.233       10.090       14.028        8.178      101.800      196.781       66.882        0.601        0.018      106.865        3.773        0.001      336.332        7.564      867.857
12/06/2014  22:31:00      -83.228      -29.428       -6.067       13.977       14.650       12.714      195.360      214.634      161.656        0.420        0.029       88.277        9.543        0.012      336.290        7.493      867.849
12/06/2014  22:32:00     -110.401      -24.844       -8.219       16.032       16.194       11.131      257.012      262.257      123.900        0.676        0.032      113.162        8.825        0.006      336.337        7.571      867.842
12/06/2014  22:33:00      -98.676      -34.206       -3.328       13.783       18.784       10.905      189.963      352.851      118.911        0.579        0.033      104.436        7.606        0.005      336.307        7.521      867.840
12/06/2014  22:34:00      -94.694      -37.134       -3.872       28.857       17.934       22.910      832.735      321.644      524.865        0.602        0.084      101.715       22.052        0.047      336.299        7.508      867.850
12/06/2014  22:35:00     -107.046      -51.592       -9.644       19.060       19.444       13.488      363.280      378.079      181.933        0.757        0.046      118.830        5.809        0.002      336.345        7.585      867.858
12/06/2014  22:36:00     -126.946      -65.290       -2.886       39.052       18.794       17.050     1525.039      353.208      290.714        1.128        0.108      142.752       19.345        0.018      336.388        7.656      867.854
12/06/2014  22:37:00      -95.138      -51.508       -1.023       44.238       24.844       17.857     1957.015      617.214      318.879        0.730        0.145      108.187       11.258        0.011      336.430        7.726      867.855
12/06/2014  22:38:00     -104.086      -60.419        3.045       37.788       21.939       20.809     1427.897      481.321      432.994        0.842        0.117      120.351       16.554        0.019      336.435        7.734      867.855
12/06/2014  22:39:00     -103.424      -62.574        1.146       38.203       28.743       17.708     1459.500      826.182      313.560        0.861        0.130      120.880       18.676        0.024      336.432        7.729      867.859
12/06/2014  22:40:00     -118.772      -68.377        3.208       34.973       24.464       19.727     1223.112      598.489      389.145        1.050        0.111      137.048       19.680        0.021      336.523        7.883      867.860
12/06/2014  22:41:00     -122.703      -43.115        2.378       39.336       29.978       21.068     1547.310      898.652      443.844        0.990        0.144      130.057       19.883        0.023      336.473        7.799      867.854
12/06/2014  22:42:00     -128.798      -45.508        5.701       32.786       24.368       17.174     1074.893      593.789      294.960        1.033        0.098      136.601       15.713        0.013      336.418        7.706      867.857
12/06/2014  22:43:00     -131.074      -44.622        3.005       29.966       30.154       15.176      897.977      909.261      230.303        1.061        0.102      138.461       12.687        0.008      336.370        7.627      867.870
12/06/2014  22:44:00     -125.087      -41.761        2.043       45.371       31.871       17.131     2058.525     1015.784      293.465        1.038        0.168      131.874       20.395        0.024      336.416        7.703      867.893
12/06/2014  22:45:00     -143.970      -49.288        0.648       32.329       28.936       20.981     1045.136      837.321      440.185        1.274        0.116      152.173       17.967        0.014      336.452        7.764      867.907
12/06/2014  22:46:00     -148.301      -59.987       -4.581       28.599       29.722       16.949      817.903      883.400      287.274        1.380        0.099      159.974       13.796        0.007      336.439        7.741      867.917
12/06/2014  22:47:00     -134.868      -48.565       -3.152       37.670       28.080       21.597     1419.046      788.513      466.427        1.162        0.134      143.346       18.553        0.017      336.416        7.703      867.918
12/06/2014  22:48:00     -103.274      -48.235       -2.062       39.006       32.520       19.879     1521.436     1057.537      395.166        0.798        0.149      113.983       17.728        0.024      336.385        7.650      867.929
12/06/2014  22:49:00      -87.206      -40.485       -1.619       36.372       28.509       18.814     1322.900      812.744      353.977        0.587        0.124       96.145       15.364        0.026      336.343        7.581      867.931
12/06/2014  22:50:00      -76.067      -37.870        6.080       34.521       26.377       15.592     1191.707      695.722      243.108        0.469        0.107       84.972       14.300        0.028      336.384        7.649      867.938
12/06/2014  22:51:00      -56.009      -27.761        6.788       42.989       25.049       12.911     1848.073      627.432      166.681        0.330        0.132       62.512       13.352        0.046      336.384        7.650      867.946
12/06/2014  22:52:00      -69.409      -44.800       -1.826       22.810       17.805       13.595      520.314      317.031      184.831        0.392        0.051       82.611       11.121        0.018      336.378        7.639      867.955
12/06/2014  22:53:00      -76.169      -30.684       -4.367       15.738       18.229       10.170      247.681      332.284      103.420        0.372        0.034       82.117        8.795        0.011      336.354        7.598      867.968
12/06/2014  22:54:00      -61.467      -18.385       -1.940       18.640       14.920       12.438      347.462      222.612      154.710        0.242        0.036       64.158        7.659        0.014      336.318        7.540      867.968
12/06/2014  22:55:00      -21.302      -16.966        6.016       21.768       16.167       11.182      473.861      261.377      125.044        0.082        0.043       27.233       13.177        0.234      336.299        7.505      867.975
12/06/2014  22:56:00      -43.458      -17.097        1.945       21.362       23.977       13.953      456.321      574.882      194.685        0.171        0.061       46.701       13.478        0.083      336.238        7.405      867.984
12/06/2014  22:57:00      -66.445      -18.390        1.220       20.195       21.933        9.977      407.856      481.076       99.532        0.287        0.049       68.943        9.754        0.020      336.228        7.387      868.011
12/06/2014  22:58:00      -48.183      -30.885       -0.403       16.469       10.640        6.720      271.225      113.208       45.155        0.185        0.021       57.232        5.993        0.011      336.268        7.455      868.022
12/06/2014  22:59:00      -34.768      -13.778       -2.006        8.837        8.411        5.870       78.097       70.738       34.461        0.079        0.009       37.398        2.279        0.004      336.275        7.466      868.031
12/06/2014  23:00:00      -54.488       -3.771       -7.148        9.774        5.141        5.277       95.537       26.427       27.844        0.159        0.007       54.618        3.614        0.004      336.263        7.448      868.029
12/06/2014  23:01:00      -59.865       -0.804       -4.998       11.567        8.169        6.465      133.795       66.733       41.790        0.193        0.012       59.870        5.178        0.007      336.245        7.419      868.030
12/06/2014  23:02:00      -57.982       -3.654       -2.773       19.610       17.331        9.932      384.533      300.364       98.646        0.208        0.039       58.097        9.120        0.025      336.216        7.369      868.028
12/06/2014  23:03:00      -82.170       -5.910      -12.576       13.514       10.274        8.820      182.628      105.563       77.788        0.366        0.018       82.382        7.732        0.009      336.204        7.349      868.027
12/06/2014  23:04:00      -94.598       -8.315       -8.773       18.458       12.277        9.602      340.698      150.727       92.202        0.484        0.029       94.963        9.718        0.010      336.181        7.309      868.023
12/06/2014  23:05:00      -69.010      -26.973        0.084       21.569       17.171       14.594      465.202      294.831      212.983        0.323        0.049       74.094       11.485        0.024      336.111        7.192      868.024
12/06/2014  23:06:00      -73.986      -30.378       -1.459       22.266       16.715       12.284      495.767      279.406      150.888        0.366        0.046       79.980       11.974        0.022      336.137        7.237      868.034
12/06/2014  23:07:00      -61.223      -34.362       -4.737       19.855       16.117        9.786      394.224      259.754       95.766        0.285        0.037       70.206        4.723        0.005      336.144        7.248      868.056
12/06/2014  23:08:00      -45.543      -31.692        2.629       21.863       14.798       11.946      477.978      218.973      142.706        0.196        0.042       55.485       11.627        0.044      336.171        7.293      868.071
12/06/2014  23:09:00      -45.883      -46.606        1.150       21.675       16.942       14.149      469.809      287.026      200.206        0.262        0.048       65.402       14.109        0.047      336.250        7.426      868.078
12/06/2014  23:10:00      -86.367      -58.657       -6.465       15.235       18.177       13.155      232.091      330.411      173.062        0.584        0.037      104.403        9.659        0.009      336.238        7.407      868.084
12/06/2014  23:11:00      -66.289      -32.129        2.183       38.422       14.187       12.460     1476.273      201.263      155.243        0.363        0.092       73.665        7.856        0.011      336.165        7.284      868.094
12/06/2014  23:12:00      -48.772      -28.178        3.667       30.554       18.948       13.170      933.558      359.030      173.452        0.233        0.073       56.327       11.585        0.042      336.108        7.187      868.106
12/06/2014  23:13:00      -49.566      -26.350        1.434       25.452       18.735       16.479      647.811      351.005      271.562        0.221        0.064       56.134       14.795        0.069      336.055        7.100      868.114
12/06/2014  23:14:00      -50.905       -2.953       -3.431       32.157       22.071       15.131     1034.096      487.134      228.955        0.218        0.088       50.991       14.210        0.078      335.876        6.800      868.127
12/06/2014  23:15:00      -71.686       -5.481       -5.661       25.901       21.388       16.363      670.877      457.446      267.734        0.330        0.070       71.895       14.996        0.044      335.799        6.674      868.126
12/06/2014  23:16:00     -101.816        7.029       -9.535       29.432       18.778       17.957      866.268      352.628      322.442        0.602        0.077      102.059       17.766        0.030      335.836        6.735      868.112
12/06/2014  23:17:00      -84.166        0.965       -7.941       44.982       20.870       20.777     2023.424      435.569      431.696        0.502        0.145       84.171       21.371        0.064      335.806        6.685      868.105
12/06/2014  23:18:00      -93.031       11.741       -9.287       31.064       26.887       17.161      964.997      722.936      294.507        0.543        0.099       93.769       14.905        0.025      335.720        6.541      868.107
12/06/2014  23:19:00     -129.504        3.910      -14.773       40.208       29.462       18.965     1616.652      868.032      359.682        0.992        0.142      129.563       15.285        0.014      335.724        6.549      868.115
12/06/2014  23:20:00      -81.834      -12.414       -7.309       19.403       23.708       19.464      376.493      562.047      378.846        0.411        0.066       82.770       15.453        0.035      335.639        6.408      868.111
12/06/2014  23:21:00      -76.970      -24.461      -12.101       20.813       35.479       15.536      433.170     1258.775      241.362        0.430        0.097       80.764       15.134        0.035      335.723        6.549      868.101
12/06/2014  23:22:00      -71.425      -44.866       -7.559       47.265       23.143       15.665     2233.985      535.585      245.386        0.509        0.151       84.348       13.673        0.026      335.677        6.471      868.095
12/06/2014  23:23:00      -66.872      -40.028       -7.086       46.563       23.602       17.372     2168.117      557.045      301.781        0.458        0.151       77.936       21.865        0.079      335.570        6.293      868.088
12/06/2014  23:24:00      -36.425      -17.855       -1.581       39.235       16.139       14.139     1539.391      260.476      199.920        0.182        0.100       40.566       18.927        0.218      335.595        6.333      868.094
12/06/2014  23:25:00      -68.299      -18.852       -7.969       19.394       19.281       14.884      376.126      371.774      221.539        0.303        0.048       70.853       15.841        0.050      335.541        6.242      868.112
12/06/2014  23:26:00      -89.573       -3.766      -14.947       10.794       11.559       10.848      116.506      133.603      117.685        0.431        0.018       89.652        6.695        0.006      335.575        6.300      868.118
12/06/2014  23:27:00      -90.396      -20.280      -16.535       15.923       17.510       10.657      253.531      306.600      113.567        0.476        0.034       92.643        4.870        0.003      335.594        6.333      868.118
12/06/2014  23:28:00      -73.449      -16.921       -3.730       17.787       11.774       10.251      316.360      138.632      105.077        0.313        0.028       75.373        9.627        0.016      335.500        6.175      868.114
12/06/2014  23:29:00      -57.045      -16.345       -7.536       15.588       11.631        6.173      242.985      135.274       38.107        0.200        0.021       59.340        4.170        0.005      335.561        6.277      868.117
12/06/2014  23:30:00      -12.007       -6.200       -5.211       12.845        9.541        3.828      164.986       91.024       14.653        0.024        0.014       13.514        5.613        0.173      335.605        6.351      868.120
12/06/2014  23:31:00       24.444       10.188       -0.071       15.195       12.665        5.844      230.888      160.409       34.156        0.056        0.021       26.483        3.080        0.014      335.896        6.834      868.115
12/06/2014  23:32:00       24.649       14.198       -3.055       10.300        8.027        9.684      106.096       64.431       93.786        0.054        0.013       28.445        7.764        0.074      336.025        7.048      868.108
12/06/2014  23:33:00        7.993       43.779       -4.156        9.710       23.800        6.866       94.275      566.447       47.139        0.135        0.035       44.503       10.505        0.056      336.161        7.278      868.111
12/06/2014  23:34:00       -2.385       56.278       -1.184       13.085       25.052        8.756      171.228      627.625       76.665        0.202        0.044       56.328        9.561        0.029      336.246        7.419      868.130
12/06/2014  23:35:00      -29.775      -13.046       -7.042       17.224       19.341       16.160      296.660      374.089      261.146        0.102        0.047       32.508       10.520        0.105      335.905        6.851      868.142
12/06/2014  23:36:00      -18.772      -36.196       -2.393       10.467       11.157       10.290      109.556      124.475      105.877        0.100        0.017       40.774        5.893        0.021      335.676        6.469      868.146
12/06/2014  23:37:00      -36.087      -35.145       -0.407       16.526       13.646        8.799      273.097      186.225       77.419        0.154        0.027       50.373        7.168        0.020      335.597        6.338      868.148
12/06/2014  23:38:00      -44.166      -39.884       -5.592       14.818       12.679        8.812      219.570      160.763       77.648        0.202        0.023       59.509        2.276        0.001      335.689        6.492      868.145
12/06/2014  23:39:00      -46.071      -35.900        1.972       26.014       18.022       15.990      676.735      324.809      255.670        0.234        0.063       58.407       16.220        0.077      335.715        6.533      868.149
12/06/2014  23:40:00      -87.161      -51.006       -6.673       22.282       17.318       12.987      496.484      299.906      168.657        0.560        0.048      100.988        7.484        0.005      335.814        6.698      868.157
12/06/2014  23:41:00      -90.799      -53.190        0.445       28.088       30.181       20.428      788.938      910.918      417.308        0.660        0.106      105.231       18.043        0.029      335.595        6.333      868.148
12/06/2014  23:42:00     -100.512      -61.505       -2.139       42.977       32.999       21.340     1847.002     1088.966      455.385        0.864        0.170      117.837       21.521        0.033      335.573        6.297      868.142
12/06/2014  23:43:00     -113.907      -59.124       -7.173       32.298       25.864       18.209     1043.131      668.947      331.584        0.928        0.102      128.337       18.402        0.021      335.537        6.236      868.149
12/06/2014  23:44:00     -123.934      -48.363       -3.752       39.232       35.399       15.501     1539.129     1253.108      240.291        1.037        0.152      133.036       14.669        0.012      335.512        6.194      868.156
12/06/2014  23:45:00     -125.298      -90.925        3.366       43.381       36.442       24.725     1881.927     1327.995      611.324        1.390        0.191      154.812       22.797        0.022      335.563        6.280      868.166
12/06/2014  23:46:00     -131.730      -92.040      -12.057       43.153       31.827       18.573     1862.153     1012.961      344.959        1.459        0.161      160.699       17.473        0.012      335.680        6.475      868.165
12/06/2014  23:47:00     -122.259      -53.251       -8.670       30.468       27.065       19.295      928.269      732.493      372.301        0.995        0.102      133.352       17.011        0.016      335.635        6.401      868.160
12/06/2014  23:48:00     -138.914      -53.584       -2.074       28.792       35.523       18.674      828.963     1261.874      348.723        1.231        0.122      148.890       12.068        0.007      335.609        6.357      868.146
12/06/2014  23:49:00     -125.079      -45.531        0.895       57.636       35.576       23.436     3321.878     1265.617      549.269        1.143        0.257      133.108       26.858        0.041      335.566        6.286      868.135
12/06/2014  23:50:00     -141.479      -59.913       -3.507       27.725       21.517       17.327      768.679      462.966      300.230        1.257        0.077      153.642       13.979        0.008      335.588        6.323      868.124
12/06/2014  23:51:00     -145.586      -44.236      -12.369       26.399       27.020       16.823      696.921      730.078      283.012        1.251        0.086      152.158       13.200        0.008      335.482        6.144      868.109
12/06/2014  23:52:00     -129.326      -15.217       -5.378       41.854       29.042       24.913     1751.764      843.426      620.674        1.010        0.161      130.218       25.127        0.037      335.340        5.908      868.096
12/06/2014  23:53:00     -112.887      -45.720       -3.891       31.912       30.219       19.700     1018.401      913.181      388.083        0.858        0.116      121.794       19.146        0.025      335.333        5.895      868.099
12/06/2014  23:54:00     -114.310      -48.056        3.446       35.551       22.585       17.897     1263.861      510.105      320.311        0.874        0.105      124.001       18.621        0.023      335.387        5.987      868.106
12/06/2014  23:55:00     -117.207      -48.280       -2.639       19.652       21.822       14.640      386.211      476.204      214.342        0.858        0.054      126.761       11.402        0.008      335.492        6.161      868.099
12/06/2014  23:56:00     -131.418      -55.107       -2.269       22.620       20.637       16.125      511.657      425.906      260.004        1.075        0.060      142.504       11.800        0.007      335.532        6.228      868.090
12/06/2014  23:57:00     -103.685      -49.464       -7.956       17.436       19.954       12.625      304.003      398.162      159.386        0.706        0.043      114.879        8.312        0.005      335.448        6.088      868.098
12/06/2014  23:58:00      -99.741      -35.727       -9.437       23.961       33.659       12.870      574.151     1132.942      165.636        0.659        0.094      105.946        9.585        0.008      335.370        5.958      868.094
12/06/2014  23:59:00      -51.407      -17.146        1.926       36.854       26.253       22.214     1358.212      689.203      493.460        0.274        0.127       54.191       18.957        0.122      335.293        5.828      868.082
